Time,TemperatureF,DewpointF,PressureIn,WindDirection,WindDirectionDegrees,WindSpeedMPH,WindSpeedGustMPH,Humidity,HourlyPrecipIn,Conditions,Clouds,dailyrainin,SoftwareType,DateUTC
2013-06-23 00:00:00,70.5,65.1,29.03,SSE,154,0.0,0.0,83,0.00,,---,0.00,VWS V14.01,2013-06-23 04:00:00,
2013-06-23 00:01:00,69.3,67.5,29.03,SE,138,0.0,0.0,94,0.00,,---,0.00,VWS V14.01,2013-06-23 04:01:00,
2013-06-23 00:02:00,69.3,67.5,29.03,SE,139,0.0,0.0,94,0.00,,---,0.00,VWS V14.01,2013-06-23 04:02:00,
2013-06-23 00:03:00,69.3,67.5,29.03,SE,139,0.0,0.0,94,0.00,,---,0.00,VWS V14.01,2013-06-23 04:03:00,
2013-06-23 00:04:00,69.3,67.5,29.03,SE,139,0.0,2.7,94,0.00,,---,0.00,VWS V14.01,2013-06-23 04:04:00,
2013-06-23 00:05:00,69.3,67.5,29.03,SE,139,0.0,0.0,94,0.00,,---,0.00,VWS V14.01,2013-06-23 04:05:00,
2013-06-23 00:06:00,69.3,67.5,29.03,SE,139,0.0,0.0,94,0.00,,---,0.00,VWS V14.01,2013-06-23 04:06:00,
2013-06-23 00:07:00,69.3,67.5,29.03,SE,139,0.0,0.0,94,0.00,,---,0.00,VWS V14.01,2013-06-23 04:07:00,
2013-06-23 00:08:00,69.3,67.5,29.03,SE,139,0.0,0.0,94,0.00,,---,0.00,VWS V14.01,2013-06-23 04:08:00,
2013-06-23 00:09:00,69.3,67.5,29.03,SE,139,0.0,3.1,94,0.00,,---,0.00,VWS V14.01,2013-06-23 04:09:00,
2013-06-23 00:10:00,69.3,67.5,29.03,SE,139,0.0,2.7,94,0.00,,---,0.00,VWS V14.01,2013-06-23 04:10:00,
2013-06-23 00:11:00,69.3,67.5,29.03,SE,139,0.0,0.0,94,0.00,,---,0.00,VWS V14.01,2013-06-23 04:11:00,
2013-06-23 00:12:00,69.1,67.3,29.03,SE,139,2.7,3.1,94,0.00,,---,0.00,VWS V14.01,2013-06-23 04:12:00,
2013-06-23 00:13:00,69.1,67.3,29.03,SE,139,0.0,2.7,94,0.00,,---,0.00,VWS V14.01,2013-06-23 04:13:00,
2013-06-23 00:14:00,69.1,67.3,29.03,SE,139,0.0,0.0,94,0.00,,---,0.00,VWS V14.01,2013-06-23 04:14:00,
2013-06-23 00:15:00,69.1,67.3,29.03,SE,139,0.0,0.0,94,0.00,,---,0.00,VWS V14.01,2013-06-23 04:15:00,
2013-06-23 00:16:00,69.1,67.3,29.03,SE,139,0.0,0.0,94,0.00,,---,0.00,VWS V14.01,2013-06-23 04:16:00,
2013-06-23 00:17:00,69.1,67.3,29.03,SE,139,0.0,0.0,94,0.00,,---,0.00,VWS V14.01,2013-06-23 04:17:00,
2013-06-23 00:18:00,69.1,67.3,29.03,SE,139,0.0,0.0,94,0.00,,---,0.00,VWS V14.01,2013-06-23 04:18:00,
2013-06-23 00:19:00,69.1,67.3,29.03,SE,139,2.7,3.6,94,0.00,,---,0.00,VWS V14.01,2013-06-23 04:19:00,
2013-06-23 00:20:00,69.1,67.3,29.03,SE,139,0.0,2.7,94,0.00,,---,0.00,VWS V14.01,2013-06-23 04:20:00,
2013-06-23 00:21:00,69.1,67.3,29.03,SE,139,0.0,0.0,94,0.00,,---,0.00,VWS V14.01,2013-06-23 04:21:00,
2013-06-23 00:22:00,69.1,67.3,29.03,SE,139,0.0,0.0,94,0.00,,---,0.00,VWS V14.01,2013-06-23 04:22:00,
2013-06-23 00:23:00,69.1,67.3,29.03,SSE,167,2.7,3.6,94,0.00,,---,0.00,VWS V14.01,2013-06-23 04:23:00,
2013-06-23 00:24:00,69.1,67.3,29.03,SSE,167,0.0,2.7,94,0.00,,---,0.00,VWS V14.01,2013-06-23 04:24:00,
2013-06-23 00:25:00,69.1,67.3,29.03,SSE,167,0.0,0.0,94,0.00,,---,0.00,VWS V14.01,2013-06-23 04:25:00,
2013-06-23 00:26:00,69.1,67.3,29.03,SSE,167,0.0,0.0,94,0.00,,---,0.00,VWS V14.01,2013-06-23 04:26:00,
2013-06-23 00:27:00,69.1,67.3,29.03,SSE,167,0.0,0.0,94,0.00,,---,0.00,VWS V14.01,2013-06-23 04:27:00,
2013-06-23 00:28:00,69.1,67.3,29.03,SSE,167,0.0,0.0,94,0.00,,---,0.00,VWS V14.01,2013-06-23 04:28:00,
2013-06-23 00:29:00,69.1,67.3,29.03,SSE,167,0.0,0.0,94,0.00,,---,0.00,VWS V14.01,2013-06-23 04:29:00,
2013-06-23 00:30:00,69.1,67.3,29.03,SSE,167,0.0,0.0,94,0.00,,---,0.00,VWS V14.01,2013-06-23 04:30:00,
2013-06-23 00:31:00,69.1,67.3,29.03,SSE,167,0.0,0.0,94,0.00,,---,0.00,VWS V14.01,2013-06-23 04:31:00,
2013-06-23 00:32:00,69.1,67.3,29.03,SSE,167,0.0,0.0,94,0.00,,---,0.00,VWS V14.01,2013-06-23 04:32:00,
2013-06-23 00:33:00,69.1,67.3,29.03,SSE,167,0.0,0.0,94,0.00,,---,0.00,VWS V14.01,2013-06-23 04:33:00,
2013-06-23 00:34:00,69.1,67.3,29.03,SSE,167,0.0,0.0,94,0.00,,---,0.00,VWS V14.01,2013-06-23 04:34:00,
2013-06-23 00:35:00,69.1,67.3,29.03,SSE,167,0.0,0.0,94,0.00,,---,0.00,VWS V14.01,2013-06-23 04:35:00,
2013-06-23 00:36:00,69.1,67.3,29.03,SE,140,0.0,0.0,94,0.00,,---,0.00,VWS V14.01,2013-06-23 04:36:00,
2013-06-23 00:37:00,69.1,67.3,29.03,SE,142,0.0,4.5,94,0.00,,---,0.00,VWS V14.01,2013-06-23 04:37:00,
2013-06-23 00:38:00,69.1,67.3,29.03,SE,142,0.0,0.0,94,0.00,,---,0.00,VWS V14.01,2013-06-23 04:38:00,
2013-06-23 00:39:00,69.1,67.3,29.03,SE,142,0.0,0.0,94,0.00,,---,0.00,VWS V14.01,2013-06-23 04:39:00,
2013-06-23 00:40:00,69.1,67.3,29.03,SE,142,3.1,4.0,94,0.00,,---,0.00,VWS V14.01,2013-06-23 04:40:00,
2013-06-23 00:41:00,69.1,67.3,29.03,SE,142,0.0,4.0,94,0.00,,---,0.00,VWS V14.01,2013-06-23 04:41:00,
2013-06-23 00:42:00,69.1,67.3,29.03,SE,142,0.0,3.1,94,0.00,,---,0.00,VWS V14.01,2013-06-23 04:42:00,
2013-06-23 00:43:00,69.1,67.3,29.03,SE,142,0.0,2.7,94,0.00,,---,0.00,VWS V14.01,2013-06-23 04:43:00,
2013-06-23 00:44:00,69.1,67.3,29.03,SE,140,0.0,4.0,94,0.00,,---,0.00,VWS V14.01,2013-06-23 04:44:00,
2013-06-23 00:45:00,69.1,67.3,29.03,SE,135,4.5,4.5,94,0.00,,---,0.00,VWS V14.01,2013-06-23 04:45:00,
2013-06-23 00:46:00,69.1,67.3,29.03,SE,146,0.0,4.5,94,0.00,,---,0.00,VWS V14.01,2013-06-23 04:46:00,
2013-06-23 00:47:00,69.1,67.3,29.03,SE,146,0.0,0.0,94,0.00,,---,0.00,VWS V14.01,2013-06-23 04:47:00,
2013-06-23 00:48:00,69.1,67.3,29.03,SE,146,0.0,0.0,94,0.00,,---,0.00,VWS V14.01,2013-06-23 04:48:00,
2013-06-23 00:49:00,69.1,67.3,29.03,SE,146,0.0,0.0,94,0.00,,---,0.00,VWS V14.01,2013-06-23 04:49:00,
2013-06-23 00:50:00,68.9,67.1,29.03,SE,146,0.0,0.0,94,0.00,,---,0.00,VWS V14.01,2013-06-23 04:50:00,
2013-06-23 00:51:00,69.1,67.3,29.03,SE,146,0.0,2.7,94,0.00,,---,0.00,VWS V14.01,2013-06-23 04:51:00,
2013-06-23 00:52:00,69.1,67.3,29.03,SE,140,0.0,4.0,94,0.00,,---,0.00,VWS V14.01,2013-06-23 04:52:00,
2013-06-23 00:53:00,69.1,67.3,29.03,SE,140,0.0,3.6,94,0.00,,---,0.00,VWS V14.01,2013-06-23 04:53:00,
2013-06-23 00:54:00,68.9,67.1,29.03,SE,140,0.0,0.0,94,0.00,,---,0.00,VWS V14.01,2013-06-23 04:54:00,
2013-06-23 00:55:00,68.9,67.1,29.03,SE,140,0.0,0.0,94,0.00,,---,0.00,VWS V14.01,2013-06-23 04:55:00,
2013-06-23 00:56:00,68.9,67.1,29.03,SE,140,0.0,0.0,94,0.00,,---,0.00,VWS V14.01,2013-06-23 04:56:00,
2013-06-23 00:57:00,68.9,67.1,29.03,SE,140,0.0,0.0,94,0.00,,---,0.00,VWS V14.01,2013-06-23 04:57:00,
2013-06-23 00:58:00,68.9,67.1,29.03,SE,140,0.0,0.0,94,0.00,,---,0.00,VWS V14.01,2013-06-23 04:58:00,
2013-06-23 00:59:00,68.9,67.1,29.03,SE,140,0.0,0.0,94,0.00,,---,0.00,VWS V14.01,2013-06-23 04:59:00,
2013-06-23 01:00:00,68.9,67.1,29.03,SE,140,0.0,0.0,94,0.00,,---,0.00,VWS V14.01,2013-06-23 05:00:00,
2013-06-23 01:01:00,68.9,67.1,29.03,SE,140,0.0,2.7,94,0.00,,---,0.00,VWS V14.01,2013-06-23 05:01:00,
2013-06-23 01:02:00,68.9,67.1,29.03,SE,140,0.0,0.0,94,0.00,,---,0.00,VWS V14.01,2013-06-23 05:02:00,
2013-06-23 01:03:00,68.9,67.1,29.03,SE,140,0.0,4.0,94,0.00,,---,0.00,VWS V14.01,2013-06-23 05:03:00,
2013-06-23 01:04:00,68.9,67.1,29.03,SE,140,0.0,0.0,94,0.00,,---,0.00,VWS V14.01,2013-06-23 05:04:00,
2013-06-23 01:05:00,68.9,67.1,29.03,SE,140,0.0,0.0,94,0.00,,---,0.00,VWS V14.01,2013-06-23 05:05:00,
2013-06-23 01:06:00,68.9,67.1,29.03,SE,140,2.7,2.7,94,0.00,,---,0.00,VWS V14.01,2013-06-23 05:06:00,
2013-06-23 01:07:00,68.9,67.1,29.03,SE,140,0.0,4.5,94,0.00,,---,0.00,VWS V14.01,2013-06-23 05:07:00,
2013-06-23 01:08:00,68.9,67.1,29.03,SSW,193,0.0,2.7,94,0.00,,---,0.00,VWS V14.01,2013-06-23 05:08:00,
2013-06-23 01:09:00,68.9,67.1,29.03,SE,144,0.0,0.0,94,0.00,,---,0.00,VWS V14.01,2013-06-23 05:09:00,
2013-06-23 01:10:00,68.9,67.1,29.03,SE,144,0.0,0.0,94,0.00,,---,0.00,VWS V14.01,2013-06-23 05:10:00,
2013-06-23 01:11:00,68.9,67.1,29.03,SE,144,0.0,0.0,94,0.00,,---,0.00,VWS V14.01,2013-06-23 05:11:00,
2013-06-23 01:12:00,68.9,67.1,29.03,WSW,237,0.0,2.7,94,0.00,,---,0.00,VWS V14.01,2013-06-23 05:12:00,
2013-06-23 01:13:00,68.9,67.1,29.03,WSW,237,0.0,0.0,94,0.00,,---,0.00,VWS V14.01,2013-06-23 05:13:00,
2013-06-23 01:14:00,68.9,67.1,29.03,WSW,237,0.0,0.0,94,0.00,,---,0.00,VWS V14.01,2013-06-23 05:14:00,
2013-06-23 01:15:00,68.9,67.1,29.03,WSW,237,0.0,0.0,94,0.00,,---,0.00,VWS V14.01,2013-06-23 05:15:00,
2013-06-23 01:16:00,68.9,67.1,29.03,WSW,256,0.0,2.7,94,0.00,,---,0.00,VWS V14.01,2013-06-23 05:16:00,
2013-06-23 01:17:00,68.9,67.1,29.03,WSW,256,0.0,0.0,94,0.00,,---,0.00,VWS V14.01,2013-06-23 05:17:00,
2013-06-23 01:18:00,68.9,67.1,29.03,WSW,256,0.0,0.0,94,0.00,,---,0.00,VWS V14.01,2013-06-23 05:18:00,
2013-06-23 01:19:00,68.9,67.1,29.03,WSW,256,0.0,0.0,94,0.00,,---,0.00,VWS V14.01,2013-06-23 05:19:00,
2013-06-23 01:20:00,68.9,67.1,29.03,WSW,256,0.0,0.0,94,0.00,,---,0.00,VWS V14.01,2013-06-23 05:20:00,
2013-06-23 01:21:00,68.9,67.1,29.03,WSW,256,0.0,0.0,94,0.00,,---,0.00,VWS V14.01,2013-06-23 05:21:00,
2013-06-23 01:22:00,69.1,67.3,29.03,SE,140,0.0,3.6,94,0.00,,---,0.00,VWS V14.01,2013-06-23 05:22:00,
2013-06-23 01:23:00,69.1,67.3,29.03,SE,140,2.7,2.7,94,0.00,,---,0.00,VWS V14.01,2013-06-23 05:23:00,
2013-06-23 01:24:00,69.1,67.3,29.03,SE,140,0.0,4.5,94,0.00,,---,0.00,VWS V14.01,2013-06-23 05:24:00,
2013-06-23 01:25:00,69.1,67.3,29.03,SE,140,0.0,0.0,94,0.00,,---,0.00,VWS V14.01,2013-06-23 05:25:00,
2013-06-23 01:26:00,69.1,67.3,29.03,SE,140,0.0,0.0,94,0.00,,---,0.00,VWS V14.01,2013-06-23 05:26:00,
2013-06-23 01:27:00,69.1,67.3,29.03,SE,140,0.0,0.0,94,0.00,,---,0.00,VWS V14.01,2013-06-23 05:27:00,
2013-06-23 01:28:00,70.3,66.3,29.03,SW,217,0.0,0.0,87,0.00,,---,0.00,VWS V14.01,2013-06-23 05:28:00,
2013-06-23 01:29:00,69.1,67.3,29.03,SE,140,0.0,0.0,94,0.00,,---,0.00,VWS V14.01,2013-06-23 05:29:00,
2013-06-23 01:30:00,69.1,67.3,29.03,SE,140,0.0,0.0,94,0.00,,---,0.00,VWS V14.01,2013-06-23 05:30:00,
2013-06-23 01:31:00,68.9,67.1,29.03,SE,140,0.0,0.0,94,0.00,,---,0.00,VWS V14.01,2013-06-23 05:31:00,
2013-06-23 01:32:00,68.9,67.1,29.03,SE,140,0.0,0.0,94,0.00,,---,0.00,VWS V14.01,2013-06-23 05:32:00,
2013-06-23 01:33:00,70.3,66.3,29.03,SW,217,0.0,0.0,87,0.00,,---,0.00,VWS V14.01,2013-06-23 05:33:00,
2013-06-23 01:34:00,69.1,67.3,29.03,SE,140,0.0,0.0,94,0.00,,---,0.00,VWS V14.01,2013-06-23 05:34:00,
2013-06-23 01:35:00,69.1,67.3,29.03,SE,140,0.0,0.0,94,0.00,,---,0.00,VWS V14.01,2013-06-23 05:35:00,
2013-06-23 01:36:00,69.1,67.3,29.03,SE,140,0.0,0.0,94,0.00,,---,0.00,VWS V14.01,2013-06-23 05:36:00,
2013-06-23 01:37:00,69.1,67.3,29.03,SSE,147,0.0,0.0,94,0.00,,---,0.00,VWS V14.01,2013-06-23 05:37:00,
2013-06-23 01:38:00,70.3,66.0,29.03,SW,217,0.0,0.0,86,0.00,,---,0.00,VWS V14.01,2013-06-23 05:38:00,
2013-06-23 01:39:00,68.9,67.1,29.03,SSE,147,0.0,0.0,94,0.00,,---,0.00,VWS V14.01,2013-06-23 05:39:00,
2013-06-23 01:40:00,68.9,67.1,29.03,SSE,147,0.0,0.0,94,0.00,,---,0.00,VWS V14.01,2013-06-23 05:40:00,
2013-06-23 01:41:00,68.9,67.1,29.03,SSE,147,0.0,0.0,94,0.00,,---,0.00,VWS V14.01,2013-06-23 05:41:00,
2013-06-23 01:42:00,68.9,67.1,29.03,SSE,147,0.0,0.0,94,0.00,,---,0.00,VWS V14.01,2013-06-23 05:42:00,
2013-06-23 01:43:00,70.2,65.8,29.03,SW,217,0.0,0.0,86,0.00,,---,0.00,VWS V14.01,2013-06-23 05:43:00,
2013-06-23 01:44:00,69.1,67.3,29.03,SSE,147,0.0,0.0,94,0.00,,---,0.00,VWS V14.01,2013-06-23 05:44:00,
2013-06-23 01:45:00,69.1,67.3,29.03,SSE,147,0.0,0.0,94,0.00,,---,0.00,VWS V14.01,2013-06-23 05:45:00,
2013-06-23 01:46:00,69.1,67.6,29.03,SSE,147,0.0,0.0,95,0.00,,---,0.00,VWS V14.01,2013-06-23 05:46:00,
2013-06-23 01:47:00,68.9,67.4,29.03,SSE,147,0.0,0.0,95,0.00,,---,0.00,VWS V14.01,2013-06-23 05:47:00,
2013-06-23 01:48:00,70.2,65.8,29.03,SW,217,0.0,0.0,86,0.00,,---,0.00,VWS V14.01,2013-06-23 05:48:00,
2013-06-23 01:49:00,68.9,67.4,29.03,SSE,147,0.0,0.0,95,0.00,,---,0.00,VWS V14.01,2013-06-23 05:49:00,
2013-06-23 01:50:00,68.9,67.4,29.03,SSE,147,0.0,0.0,95,0.00,,---,0.00,VWS V14.01,2013-06-23 05:50:00,
2013-06-23 01:51:00,68.9,67.4,29.03,SSE,147,0.0,0.0,95,0.00,,---,0.00,VWS V14.01,2013-06-23 05:51:00,
2013-06-23 01:52:00,68.9,67.4,29.03,SSE,147,0.0,0.0,95,0.00,,---,0.00,VWS V14.01,2013-06-23 05:52:00,
2013-06-23 01:53:00,70.2,65.8,29.03,SW,217,0.0,0.0,86,0.00,,---,0.00,VWS V14.01,2013-06-23 05:53:00,
2013-06-23 01:54:00,68.9,67.4,29.03,SSE,147,0.0,0.0,95,0.00,,---,0.00,VWS V14.01,2013-06-23 05:54:00,
2013-06-23 01:55:00,68.9,67.4,29.03,SSE,147,0.0,0.0,95,0.00,,---,0.00,VWS V14.01,2013-06-23 05:55:00,
2013-06-23 01:56:00,68.9,67.4,29.03,SSE,147,0.0,0.0,95,0.00,,---,0.00,VWS V14.01,2013-06-23 05:56:00,
2013-06-23 01:57:00,68.9,67.4,29.03,SSE,147,0.0,0.0,95,0.00,,---,0.00,VWS V14.01,2013-06-23 05:57:00,
2013-06-23 01:58:00,70.2,65.8,29.03,SW,217,0.0,0.0,86,0.00,,---,0.00,VWS V14.01,2013-06-23 05:58:00,
2013-06-23 01:59:00,68.7,67.2,29.03,SSE,147,0.0,0.0,95,0.00,,---,0.00,VWS V14.01,2013-06-23 05:59:00,
2013-06-23 02:00:00,68.7,67.2,29.03,SSE,147,0.0,0.0,95,0.00,,---,0.00,VWS V14.01,2013-06-23 06:00:00,
2013-06-23 02:01:00,68.7,67.2,29.03,SSE,147,0.0,0.0,95,0.00,,---,0.00,VWS V14.01,2013-06-23 06:01:00,
2013-06-23 02:02:00,68.7,67.2,29.03,SSE,147,0.0,0.0,95,0.00,,---,0.00,VWS V14.01,2013-06-23 06:02:00,
2013-06-23 02:03:00,68.7,67.2,29.03,SSE,147,0.0,0.0,95,0.00,,---,0.00,VWS V14.01,2013-06-23 06:03:00,
2013-06-23 02:04:00,68.9,67.4,29.03,SSE,147,0.0,0.0,95,0.00,,---,0.00,VWS V14.01,2013-06-23 06:04:00,
2013-06-23 02:05:00,70.0,65.6,29.03,SW,217,0.0,0.0,86,0.00,,---,0.00,VWS V14.01,2013-06-23 06:05:00,
2013-06-23 02:06:00,68.9,67.4,29.03,SSE,147,0.0,0.0,95,0.00,,---,0.00,VWS V14.01,2013-06-23 06:06:00,
2013-06-23 02:07:00,68.9,67.4,29.03,SSE,147,0.0,0.0,95,0.00,,---,0.00,VWS V14.01,2013-06-23 06:07:00,
2013-06-23 02:08:00,68.9,67.4,29.03,South,174,0.0,0.0,95,0.00,,---,0.00,VWS V14.01,2013-06-23 06:08:00,
2013-06-23 02:09:00,68.9,67.4,29.03,SW,225,0.0,0.0,95,0.00,,---,0.00,VWS V14.01,2013-06-23 06:09:00,
2013-06-23 02:10:00,68.9,67.4,29.03,SW,225,0.0,0.0,95,0.00,,---,0.00,VWS V14.01,2013-06-23 06:10:00,
2013-06-23 02:11:00,69.8,65.1,29.03,SW,217,0.0,0.0,85,0.00,,---,0.00,VWS V14.01,2013-06-23 06:11:00,
2013-06-23 02:12:00,68.9,67.4,29.03,SW,225,0.0,0.0,95,0.00,,---,0.00,VWS V14.01,2013-06-23 06:12:00,
2013-06-23 02:13:00,68.9,67.4,29.03,SW,225,0.0,0.0,95,0.00,,---,0.00,VWS V14.01,2013-06-23 06:13:00,
2013-06-23 02:14:00,68.9,67.4,29.03,SW,225,0.0,0.0,95,0.00,,---,0.00,VWS V14.01,2013-06-23 06:14:00,
2013-06-23 02:15:00,68.9,67.4,29.03,SW,225,0.0,0.0,95,0.00,,---,0.00,VWS V14.01,2013-06-23 06:15:00,
2013-06-23 02:16:00,69.6,64.9,29.03,SW,217,0.0,0.0,85,0.00,,---,0.00,VWS V14.01,2013-06-23 06:16:00,
2013-06-23 02:17:00,68.9,67.4,29.03,SW,225,0.0,0.0,95,0.00,,---,0.00,VWS V14.01,2013-06-23 06:17:00,
2013-06-23 02:18:00,68.9,67.4,29.03,SW,225,0.0,0.0,95,0.00,,---,0.00,VWS V14.01,2013-06-23 06:18:00,
2013-06-23 02:19:00,68.9,67.4,29.03,SW,225,0.0,0.0,95,0.00,,---,0.00,VWS V14.01,2013-06-23 06:19:00,
2013-06-23 02:20:00,68.7,67.2,29.03,SW,225,0.0,0.0,95,0.00,,---,0.00,VWS V14.01,2013-06-23 06:20:00,
2013-06-23 02:21:00,69.4,64.7,29.03,ESE,110,0.0,0.0,85,0.00,,---,0.00,VWS V14.01,2013-06-23 06:21:00,
2013-06-23 02:22:00,68.7,67.2,29.03,SW,225,0.0,0.0,95,0.00,,---,0.00,VWS V14.01,2013-06-23 06:22:00,
2013-06-23 02:23:00,68.7,67.2,29.03,SW,225,0.0,0.0,95,0.00,,---,0.00,VWS V14.01,2013-06-23 06:23:00,
2013-06-23 02:24:00,68.7,67.2,29.03,SW,225,0.0,0.0,95,0.00,,---,0.00,VWS V14.01,2013-06-23 06:24:00,
2013-06-23 02:25:00,68.7,67.2,29.03,SW,225,0.0,0.0,95,0.00,,---,0.00,VWS V14.01,2013-06-23 06:25:00,
2013-06-23 02:26:00,69.4,65.1,29.03,ESE,110,0.0,0.0,86,0.00,,---,0.00,VWS V14.01,2013-06-23 06:26:00,
2013-06-23 02:27:00,68.7,67.2,29.03,SW,225,0.0,0.0,95,0.00,,---,0.00,VWS V14.01,2013-06-23 06:27:00,
2013-06-23 02:28:00,68.7,67.2,29.03,SW,225,0.0,0.0,95,0.00,,---,0.00,VWS V14.01,2013-06-23 06:28:00,
2013-06-23 02:29:00,68.5,67.1,29.03,SW,225,0.0,0.0,95,0.00,,---,0.00,VWS V14.01,2013-06-23 06:29:00,
2013-06-23 02:30:00,68.5,67.1,29.03,SW,225,0.0,0.0,95,0.00,,---,0.00,VWS V14.01,2013-06-23 06:30:00,
2013-06-23 02:32:00,69.3,64.6,29.03,ESE,110,0.0,0.0,85,0.00,,---,0.00,VWS V14.01,2013-06-23 06:32:00,
2013-06-23 02:33:00,68.5,67.1,29.03,SW,225,0.0,0.0,95,0.00,,---,0.00,VWS V14.01,2013-06-23 06:33:00,
2013-06-23 02:34:00,68.5,67.1,29.03,SW,225,0.0,0.0,95,0.00,,---,0.00,VWS V14.01,2013-06-23 06:34:00,
2013-06-23 02:35:00,68.5,67.1,29.03,SW,225,0.0,0.0,95,0.00,,---,0.00,VWS V14.01,2013-06-23 06:35:00,
2013-06-23 02:36:00,68.5,67.1,29.03,SW,225,0.0,0.0,95,0.00,,---,0.00,VWS V14.01,2013-06-23 06:36:00,
2013-06-23 02:37:00,69.3,64.9,29.03,SE,127,2.7,4.5,86,0.00,,---,0.00,VWS V14.01,2013-06-23 06:37:00,
2013-06-23 02:38:00,68.5,67.1,29.03,SW,225,0.0,0.0,95,0.00,,---,0.00,VWS V14.01,2013-06-23 06:38:00,
2013-06-23 02:39:00,68.5,67.1,29.03,SW,225,0.0,0.0,95,0.00,,---,0.00,VWS V14.01,2013-06-23 06:39:00,
2013-06-23 02:40:00,68.5,67.1,29.03,SW,225,0.0,0.0,95,0.00,,---,0.00,VWS V14.01,2013-06-23 06:40:00,
2013-06-23 02:41:00,68.5,67.1,29.03,SW,225,0.0,0.0,95,0.00,,---,0.00,VWS V14.01,2013-06-23 06:41:00,
2013-06-23 02:42:00,69.3,64.9,29.03,SE,127,0.0,0.0,86,0.00,,---,0.00,VWS V14.01,2013-06-23 06:42:00,
2013-06-23 02:43:00,68.5,67.1,29.03,SW,225,0.0,0.0,95,0.00,,---,0.00,VWS V14.01,2013-06-23 06:43:00,
2013-06-23 02:44:00,68.5,67.1,29.03,SW,225,0.0,0.0,95,0.00,,---,0.00,VWS V14.01,2013-06-23 06:44:00,
2013-06-23 02:45:00,68.5,67.1,29.03,SW,225,0.0,0.0,95,0.00,,---,0.00,VWS V14.01,2013-06-23 06:45:00,
2013-06-23 02:46:00,68.5,67.1,29.03,SW,225,0.0,0.0,95,0.00,,---,0.00,VWS V14.01,2013-06-23 06:46:00,
2013-06-23 02:47:00,69.1,65.1,29.03,SE,127,0.0,0.0,87,0.00,,---,0.00,VWS V14.01,2013-06-23 06:47:00,
2013-06-23 02:48:00,68.5,67.1,29.03,SW,225,0.0,0.0,95,0.00,,---,0.00,VWS V14.01,2013-06-23 06:48:00,
2013-06-23 02:49:00,68.5,67.1,29.03,SW,225,0.0,0.0,95,0.00,,---,0.00,VWS V14.01,2013-06-23 06:49:00,
2013-06-23 02:50:00,68.5,67.1,29.03,SW,225,0.0,0.0,95,0.00,,---,0.00,VWS V14.01,2013-06-23 06:50:00,
2013-06-23 02:51:00,68.5,67.1,29.03,SW,225,0.0,0.0,95,0.00,,---,0.00,VWS V14.01,2013-06-23 06:51:00,
2013-06-23 02:52:00,69.1,65.1,29.03,SE,127,0.0,0.0,87,0.00,,---,0.00,VWS V14.01,2013-06-23 06:52:00,
2013-06-23 02:53:00,68.5,67.1,29.03,SW,225,0.0,0.0,95,0.00,,---,0.00,VWS V14.01,2013-06-23 06:53:00,
2013-06-23 02:54:00,68.5,67.1,29.03,SW,225,0.0,0.0,95,0.00,,---,0.00,VWS V14.01,2013-06-23 06:54:00,
2013-06-23 02:55:00,68.5,67.1,29.03,SW,225,0.0,0.0,95,0.00,,---,0.00,VWS V14.01,2013-06-23 06:55:00,
2013-06-23 02:56:00,68.5,67.1,29.03,SW,225,0.0,0.0,95,0.00,,---,0.00,VWS V14.01,2013-06-23 06:56:00,
2013-06-23 02:57:00,68.9,64.9,29.03,SE,127,0.0,0.0,87,0.00,,---,0.00,VWS V14.01,2013-06-23 06:57:00,
2013-06-23 02:58:00,68.5,67.1,29.03,SW,225,0.0,0.0,95,0.00,,---,0.00,VWS V14.01,2013-06-23 06:58:00,
2013-06-23 02:59:00,68.5,67.1,29.03,SW,225,0.0,0.0,95,0.00,,---,0.00,VWS V14.01,2013-06-23 06:59:00,
2013-06-23 03:00:00,68.5,67.1,29.03,SW,225,0.0,0.0,95,0.00,,---,0.00,VWS V14.01,2013-06-23 07:00:00,
2013-06-23 03:01:00,68.5,67.1,29.03,SW,225,0.0,0.0,95,0.00,,---,0.00,VWS V14.01,2013-06-23 07:01:00,
2013-06-23 03:02:00,68.9,64.9,29.03,SE,127,0.0,0.0,87,0.00,,---,0.00,VWS V14.01,2013-06-23 07:02:00,
2013-06-23 03:03:00,68.4,66.9,29.03,SW,225,0.0,0.0,95,0.00,,---,0.00,VWS V14.01,2013-06-23 07:03:00,
2013-06-23 03:04:00,68.4,66.9,29.03,SW,225,0.0,0.0,95,0.00,,---,0.00,VWS V14.01,2013-06-23 07:04:00,
2013-06-23 03:05:00,68.4,66.9,29.03,SW,225,0.0,0.0,95,0.00,,---,0.00,VWS V14.01,2013-06-23 07:05:00,
2013-06-23 03:06:00,68.5,67.1,29.03,SW,225,0.0,0.0,95,0.00,,---,0.00,VWS V14.01,2013-06-23 07:06:00,
2013-06-23 03:07:00,68.7,64.7,29.03,SE,127,0.0,0.0,87,0.00,,---,0.00,VWS V14.01,2013-06-23 07:07:00,
2013-06-23 03:08:00,68.4,66.9,29.03,SW,225,0.0,0.0,95,0.00,,---,0.00,VWS V14.01,2013-06-23 07:08:00,
2013-06-23 03:09:00,68.4,66.9,29.03,SW,225,0.0,0.0,95,0.00,,---,0.00,VWS V14.01,2013-06-23 07:09:00,
2013-06-23 03:10:00,68.4,66.9,29.03,SW,225,0.0,0.0,95,0.00,,---,0.00,VWS V14.01,2013-06-23 07:10:00,
2013-06-23 03:11:00,68.4,66.9,29.03,SW,225,0.0,0.0,95,0.00,,---,0.00,VWS V14.01,2013-06-23 07:11:00,
2013-06-23 03:12:00,68.4,66.9,29.03,SW,225,0.0,0.0,95,0.00,,---,0.00,VWS V14.01,2013-06-23 07:12:00,
2013-06-23 03:13:00,68.7,64.7,29.03,SE,127,0.0,0.0,87,0.00,,---,0.00,VWS V14.01,2013-06-23 07:13:00,
2013-06-23 03:14:00,68.4,66.9,29.03,SE,133,0.0,0.0,95,0.00,,---,0.00,VWS V14.01,2013-06-23 07:14:00,
2013-06-23 03:15:00,68.4,66.9,29.03,SE,133,0.0,0.0,95,0.00,,---,0.00,VWS V14.01,2013-06-23 07:15:00,
2013-06-23 03:16:00,68.4,66.9,29.03,SE,133,0.0,0.0,95,0.00,,---,0.00,VWS V14.01,2013-06-23 07:16:00,
2013-06-23 03:17:00,68.4,66.9,29.03,SE,133,0.0,0.0,95,0.00,,---,0.00,VWS V14.01,2013-06-23 07:17:00,
2013-06-23 03:18:00,68.7,64.7,29.00,SE,127,0.0,0.0,87,0.00,,---,0.00,VWS V14.01,2013-06-23 07:18:00,
2013-06-23 03:19:00,68.4,66.9,29.03,SE,133,0.0,0.0,95,0.00,,---,0.00,VWS V14.01,2013-06-23 07:19:00,
2013-06-23 03:20:00,68.4,66.9,29.03,SE,133,0.0,0.0,95,0.00,,---,0.00,VWS V14.01,2013-06-23 07:20:00,
2013-06-23 03:21:00,68.4,66.9,29.03,SE,133,0.0,0.0,95,0.00,,---,0.00,VWS V14.01,2013-06-23 07:21:00,
2013-06-23 03:22:00,68.4,66.9,29.03,SE,133,0.0,0.0,95,0.00,,---,0.00,VWS V14.01,2013-06-23 07:22:00,
2013-06-23 03:23:00,68.4,66.9,29.03,SE,133,0.0,0.0,95,0.00,,---,0.00,VWS V14.01,2013-06-23 07:23:00,
2013-06-23 03:24:00,68.7,65.0,29.00,SE,127,0.0,0.0,88,0.00,,---,0.00,VWS V14.01,2013-06-23 07:24:00,
2013-06-23 03:25:00,68.4,66.9,29.03,SE,133,0.0,0.0,95,0.00,,---,0.00,VWS V14.01,2013-06-23 07:25:00,
2013-06-23 03:26:00,68.4,66.9,29.03,SE,133,0.0,0.0,95,0.00,,---,0.00,VWS V14.01,2013-06-23 07:26:00,
2013-06-23 03:27:00,68.4,66.9,29.03,SE,134,0.0,0.0,95,0.00,,---,0.00,VWS V14.01,2013-06-23 07:27:00,
2013-06-23 03:28:00,68.4,66.9,29.03,SE,134,0.0,0.0,95,0.00,,---,0.00,VWS V14.01,2013-06-23 07:28:00,
2013-06-23 03:29:00,68.4,66.9,29.03,SE,134,0.0,0.0,95,0.00,,---,0.00,VWS V14.01,2013-06-23 07:29:00,
2013-06-23 03:30:00,68.4,66.9,29.03,SE,134,0.0,0.0,95,0.00,,---,0.00,VWS V14.01,2013-06-23 07:30:00,
2013-06-23 03:31:00,68.4,66.9,29.03,SE,134,0.0,0.0,95,0.00,,---,0.00,VWS V14.01,2013-06-23 07:31:00,
2013-06-23 03:32:00,68.4,66.9,29.03,SE,134,0.0,0.0,95,0.00,,---,0.00,VWS V14.01,2013-06-23 07:32:00,
2013-06-23 03:33:00,68.4,66.9,29.03,SE,134,0.0,0.0,95,0.00,,---,0.00,VWS V14.01,2013-06-23 07:33:00,
2013-06-23 03:34:00,68.4,66.9,29.03,SE,134,0.0,0.0,95,0.00,,---,0.00,VWS V14.01,2013-06-23 07:34:00,
2013-06-23 03:35:00,68.4,66.9,29.03,SW,232,0.0,0.0,95,0.00,,---,0.00,VWS V14.01,2013-06-23 07:35:00,
2013-06-23 03:36:00,68.4,66.9,29.03,SW,232,0.0,0.0,95,0.00,,---,0.00,VWS V14.01,2013-06-23 07:36:00,
2013-06-23 03:37:00,68.4,66.9,29.03,SW,232,0.0,0.0,95,0.00,,---,0.00,VWS V14.01,2013-06-23 07:37:00,
2013-06-23 03:38:00,68.4,66.9,29.03,SW,232,0.0,0.0,95,0.00,,---,0.00,VWS V14.01,2013-06-23 07:38:00,
2013-06-23 03:39:00,68.4,66.9,29.03,SW,232,0.0,0.0,95,0.00,,---,0.00,VWS V14.01,2013-06-23 07:39:00,
2013-06-23 03:40:00,68.4,66.9,29.03,SW,232,0.0,0.0,95,0.00,,---,0.00,VWS V14.01,2013-06-23 07:40:00,
2013-06-23 03:41:00,68.4,66.9,29.03,SW,232,0.0,0.0,95,0.00,,---,0.00,VWS V14.01,2013-06-23 07:41:00,
2013-06-23 03:42:00,68.4,66.9,29.03,SW,232,0.0,0.0,95,0.00,,---,0.00,VWS V14.01,2013-06-23 07:42:00,
2013-06-23 03:43:00,68.4,66.9,29.03,SW,232,0.0,0.0,95,0.00,,---,0.00,VWS V14.01,2013-06-23 07:43:00,
2013-06-23 03:44:00,68.4,66.9,29.03,SSE,168,2.7,2.7,95,0.00,,---,0.00,VWS V14.01,2013-06-23 07:44:00,
2013-06-23 03:45:00,68.4,66.9,29.03,SSE,167,0.0,2.7,95,0.00,,---,0.00,VWS V14.01,2013-06-23 07:45:00,
2013-06-23 03:46:00,68.4,66.9,29.03,SSE,167,0.0,0.0,95,0.00,,---,0.00,VWS V14.01,2013-06-23 07:46:00,
2013-06-23 03:47:00,68.4,66.9,29.03,SSE,168,0.0,0.0,95,0.00,,---,0.00,VWS V14.01,2013-06-23 07:47:00,
2013-06-23 03:48:00,68.4,66.9,29.03,SSE,168,0.0,0.0,95,0.00,,---,0.00,VWS V14.01,2013-06-23 07:48:00,
2013-06-23 03:49:00,68.4,66.9,29.03,SSE,167,0.0,0.0,95,0.00,,---,0.00,VWS V14.01,2013-06-23 07:49:00,
2013-06-23 03:50:00,68.4,66.9,29.03,SSE,167,0.0,0.0,95,0.00,,---,0.00,VWS V14.01,2013-06-23 07:50:00,
2013-06-23 03:51:00,68.4,66.9,29.03,SSE,168,0.0,0.0,95,0.00,,---,0.00,VWS V14.01,2013-06-23 07:51:00,
2013-06-23 03:52:00,68.4,66.9,29.03,SSE,167,0.0,0.0,95,0.00,,---,0.00,VWS V14.01,2013-06-23 07:52:00,
2013-06-23 03:53:00,68.4,66.9,29.03,SSE,168,0.0,0.0,95,0.00,,---,0.00,VWS V14.01,2013-06-23 07:53:00,
2013-06-23 03:54:00,68.4,66.9,29.03,SSE,167,0.0,0.0,95,0.00,,---,0.00,VWS V14.01,2013-06-23 07:54:00,
2013-06-23 03:55:00,68.4,66.9,29.03,SSE,168,0.0,0.0,95,0.00,,---,0.00,VWS V14.01,2013-06-23 07:55:00,
2013-06-23 03:56:00,68.4,66.9,29.03,SSE,168,0.0,0.0,95,0.00,,---,0.00,VWS V14.01,2013-06-23 07:56:00,
2013-06-23 03:57:00,68.4,66.9,29.03,SSE,168,0.0,0.0,95,0.00,,---,0.00,VWS V14.01,2013-06-23 07:57:00,
2013-06-23 03:58:00,68.2,66.7,29.03,SSE,167,0.0,0.0,95,0.00,,---,0.00,VWS V14.01,2013-06-23 07:58:00,
2013-06-23 03:59:00,68.2,66.7,29.03,SSE,168,0.0,0.0,95,0.00,,---,0.00,VWS V14.01,2013-06-23 07:59:00,
2013-06-23 04:00:00,68.2,66.7,29.03,SSE,168,0.0,0.0,95,0.00,,---,0.00,VWS V14.01,2013-06-23 08:00:00,
2013-06-23 04:01:00,68.2,66.7,29.03,South,170,0.0,0.0,95,0.00,,---,0.00,VWS V14.01,2013-06-23 08:01:00,
2013-06-23 04:02:00,68.2,66.7,29.03,South,170,0.0,0.0,95,0.00,,---,0.00,VWS V14.01,2013-06-23 08:02:00,
2013-06-23 04:03:00,68.2,66.7,29.03,South,170,0.0,0.0,95,0.00,,---,0.00,VWS V14.01,2013-06-23 08:03:00,
2013-06-23 04:04:00,68.2,66.7,29.03,South,170,0.0,0.0,95,0.00,,---,0.00,VWS V14.01,2013-06-23 08:04:00,
2013-06-23 04:05:00,68.2,66.7,29.03,South,170,0.0,0.0,95,0.00,,---,0.00,VWS V14.01,2013-06-23 08:05:00,
2013-06-23 04:06:00,68.2,66.7,29.03,SSW,208,0.0,0.0,95,0.00,,---,0.00,VWS V14.01,2013-06-23 08:06:00,
2013-06-23 04:07:00,68.2,66.7,29.03,SSW,208,0.0,0.0,95,0.00,,---,0.00,VWS V14.01,2013-06-23 08:07:00,
2013-06-23 04:08:00,68.2,66.7,29.03,SSW,208,0.0,0.0,95,0.00,,---,0.00,VWS V14.01,2013-06-23 08:08:00,
2013-06-23 04:09:00,68.2,66.7,29.03,SSW,208,0.0,0.0,95,0.00,,---,0.00,VWS V14.01,2013-06-23 08:09:00,
2013-06-23 04:10:00,68.2,66.7,29.03,SSW,208,0.0,0.0,95,0.00,,---,0.00,VWS V14.01,2013-06-23 08:10:00,
2013-06-23 04:11:00,68.2,66.7,29.03,SSW,208,0.0,0.0,95,0.00,,---,0.00,VWS V14.01,2013-06-23 08:11:00,
2013-06-23 04:12:00,68.2,67.0,29.03,SSW,208,0.0,0.0,96,0.00,,---,0.00,VWS V14.01,2013-06-23 08:12:00,
2013-06-23 04:13:00,68.2,67.0,29.03,SSW,208,0.0,0.0,96,0.00,,---,0.00,VWS V14.01,2013-06-23 08:13:00,
2013-06-23 04:14:00,68.2,67.0,29.03,SSW,208,0.0,0.0,96,0.00,,---,0.00,VWS V14.01,2013-06-23 08:14:00,
2013-06-23 04:15:00,68.2,67.0,29.03,SSW,208,0.0,0.0,96,0.00,,---,0.00,VWS V14.01,2013-06-23 08:15:00,
2013-06-23 04:16:00,68.2,67.0,29.03,SSW,208,0.0,0.0,96,0.00,,---,0.00,VWS V14.01,2013-06-23 08:16:00,
2013-06-23 04:17:00,68.2,67.0,29.03,SSW,208,0.0,0.0,96,0.00,,---,0.00,VWS V14.01,2013-06-23 08:17:00,
2013-06-23 04:18:00,68.2,67.0,29.03,SSW,207,0.0,0.0,96,0.00,,---,0.00,VWS V14.01,2013-06-23 08:18:00,
2013-06-23 04:19:00,68.4,67.2,29.03,South,190,0.0,0.0,96,0.00,,---,0.00,VWS V14.01,2013-06-23 08:19:00,
2013-06-23 04:20:00,68.4,67.2,29.03,West,268,2.7,2.7,96,0.00,,---,0.00,VWS V14.01,2013-06-23 08:20:00,
2013-06-23 04:21:00,68.4,67.2,29.03,West,268,0.0,2.7,96,0.00,,---,0.00,VWS V14.01,2013-06-23 08:21:00,
2013-06-23 04:22:00,68.4,67.2,29.03,West,268,0.0,0.0,96,0.00,,---,0.00,VWS V14.01,2013-06-23 08:22:00,
2013-06-23 04:23:00,68.4,67.2,29.03,SW,223,0.0,3.6,96,0.00,,---,0.00,VWS V14.01,2013-06-23 08:23:00,
2013-06-23 04:24:00,68.4,67.2,29.03,SW,223,0.0,0.0,96,0.00,,---,0.00,VWS V14.01,2013-06-23 08:24:00,
2013-06-23 04:25:00,68.5,67.4,29.03,SW,223,0.0,0.0,96,0.00,,---,0.00,VWS V14.01,2013-06-23 08:25:00,
2013-06-23 04:26:00,68.4,67.2,29.03,SW,223,0.0,0.0,96,0.00,,---,0.00,VWS V14.01,2013-06-23 08:26:00,
2013-06-23 04:27:00,68.4,67.2,29.03,SW,223,0.0,0.0,96,0.00,,---,0.00,VWS V14.01,2013-06-23 08:27:00,
2013-06-23 04:28:00,68.4,67.2,29.03,SW,223,0.0,0.0,96,0.00,,---,0.00,VWS V14.01,2013-06-23 08:28:00,
2013-06-23 04:29:00,68.4,67.2,29.03,SW,223,0.0,0.0,96,0.00,,---,0.00,VWS V14.01,2013-06-23 08:29:00,
2013-06-23 04:30:00,68.4,67.2,29.03,SW,223,0.0,0.0,96,0.00,,---,0.00,VWS V14.01,2013-06-23 08:30:00,
2013-06-23 04:31:00,68.4,67.2,29.03,SW,223,0.0,0.0,96,0.00,,---,0.00,VWS V14.01,2013-06-23 08:31:00,
2013-06-23 04:32:00,68.4,67.2,29.03,SW,223,0.0,0.0,96,0.00,,---,0.00,VWS V14.01,2013-06-23 08:32:00,
2013-06-23 04:33:00,68.4,67.2,29.03,SW,223,0.0,0.0,96,0.00,,---,0.00,VWS V14.01,2013-06-23 08:33:00,
2013-06-23 04:34:00,68.4,67.2,29.03,SE,137,3.6,3.6,96,0.00,,---,0.00,VWS V14.01,2013-06-23 08:34:00,
2013-06-23 04:35:00,68.4,67.2,29.03,SE,146,0.0,4.9,96,0.00,,---,0.00,VWS V14.01,2013-06-23 08:35:00,
2013-06-23 04:36:00,68.4,67.2,29.03,SE,146,0.0,0.0,96,0.00,,---,0.00,VWS V14.01,2013-06-23 08:36:00,
2013-06-23 04:37:00,68.4,67.2,29.03,SSE,154,0.0,3.1,96,0.00,,---,0.00,VWS V14.01,2013-06-23 08:37:00,
2013-06-23 04:38:00,68.4,67.2,29.03,SSE,154,0.0,0.0,96,0.00,,---,0.00,VWS V14.01,2013-06-23 08:38:00,
2013-06-23 04:39:00,68.4,67.2,29.03,SE,131,0.0,0.0,96,0.00,,---,0.00,VWS V14.01,2013-06-23 08:39:00,
2013-06-23 04:40:00,68.5,67.4,29.03,SE,130,0.0,4.5,96,0.00,,---,0.00,VWS V14.01,2013-06-23 08:40:00,
2013-06-23 04:41:00,68.5,67.4,29.03,SE,130,0.0,0.0,96,0.00,,---,0.00,VWS V14.01,2013-06-23 08:41:00,
2013-06-23 04:42:00,68.5,67.4,29.03,SSW,210,0.0,3.1,96,0.00,,---,0.00,VWS V14.01,2013-06-23 08:42:00,
2013-06-23 04:43:00,68.5,67.4,29.03,SSW,210,0.0,0.0,96,0.00,,---,0.00,VWS V14.01,2013-06-23 08:43:00,
2013-06-23 04:44:00,68.5,67.4,29.03,SSW,210,0.0,0.0,96,0.00,,---,0.00,VWS V14.01,2013-06-23 08:44:00,
2013-06-23 04:45:00,68.5,67.4,29.03,SSW,210,0.0,0.0,96,0.00,,---,0.00,VWS V14.01,2013-06-23 08:45:00,
2013-06-23 04:46:00,68.5,67.4,29.03,SSW,210,0.0,0.0,96,0.00,,---,0.00,VWS V14.01,2013-06-23 08:46:00,
2013-06-23 04:47:00,68.5,67.4,29.03,SSW,210,0.0,0.0,96,0.00,,---,0.00,VWS V14.01,2013-06-23 08:47:00,
2013-06-23 04:48:00,68.5,67.4,29.03,SSW,210,0.0,0.0,96,0.00,,---,0.00,VWS V14.01,2013-06-23 08:48:00,
2013-06-23 04:49:00,68.5,67.4,29.03,SE,143,0.0,4.5,96,0.00,,---,0.00,VWS V14.01,2013-06-23 08:49:00,
2013-06-23 04:50:00,68.5,67.4,29.03,SE,126,0.0,3.6,96,0.00,,---,0.00,VWS V14.01,2013-06-23 08:50:00,
2013-06-23 04:51:00,68.5,67.4,29.03,SE,126,0.0,0.0,96,0.00,,---,0.00,VWS V14.01,2013-06-23 08:51:00,
2013-06-23 04:52:00,68.5,67.4,29.03,SE,126,0.0,0.0,96,0.00,,---,0.00,VWS V14.01,2013-06-23 08:52:00,
2013-06-23 04:53:00,68.5,67.4,29.03,SE,126,0.0,0.0,96,0.00,,---,0.00,VWS V14.01,2013-06-23 08:53:00,
2013-06-23 04:54:00,68.5,67.4,29.03,SE,126,0.0,0.0,96,0.00,,---,0.00,VWS V14.01,2013-06-23 08:54:00,
2013-06-23 04:55:00,68.5,67.4,29.03,SE,131,0.0,0.0,96,0.00,,---,0.00,VWS V14.01,2013-06-23 08:55:00,
2013-06-23 04:56:00,68.5,67.4,29.03,SE,131,0.0,0.0,96,0.00,,---,0.00,VWS V14.01,2013-06-23 08:56:00,
2013-06-23 04:57:00,68.5,67.4,29.03,SSE,153,0.0,3.6,96,0.00,,---,0.00,VWS V14.01,2013-06-23 08:57:00,
2013-06-23 04:58:00,68.5,67.4,29.03,SSE,153,0.0,2.7,96,0.00,,---,0.00,VWS V14.01,2013-06-23 08:58:00,
2013-06-23 04:59:00,68.5,67.4,29.03,SSE,153,0.0,0.0,96,0.00,,---,0.00,VWS V14.01,2013-06-23 08:59:00,
2013-06-23 05:00:00,68.5,67.4,29.03,SSE,153,0.0,2.7,96,0.00,,---,0.00,VWS V14.01,2013-06-23 09:00:00,
2013-06-23 05:01:00,68.7,67.5,29.03,SSE,152,0.0,3.6,96,0.00,,---,0.00,VWS V14.01,2013-06-23 09:01:00,
2013-06-23 05:02:00,68.7,67.5,29.03,SSE,152,0.0,0.0,96,0.00,,---,0.00,VWS V14.01,2013-06-23 09:02:00,
2013-06-23 05:03:00,68.7,67.5,29.03,SSE,152,0.0,0.0,96,0.00,,---,0.00,VWS V14.01,2013-06-23 09:03:00,
2013-06-23 05:04:00,68.7,67.5,29.03,SSE,158,0.0,2.7,96,0.00,,---,0.00,VWS V14.01,2013-06-23 09:04:00,
2013-06-23 05:05:00,68.7,67.5,29.03,SSE,158,0.0,0.0,96,0.00,,---,0.00,VWS V14.01,2013-06-23 09:05:00,
2013-06-23 05:06:00,68.7,67.5,29.03,SSE,150,0.0,0.0,96,0.00,,---,0.00,VWS V14.01,2013-06-23 09:06:00,
2013-06-23 05:07:00,68.7,67.5,29.03,SSE,167,0.0,3.1,96,0.00,,---,0.00,VWS V14.01,2013-06-23 09:07:00,
2013-06-23 05:08:00,68.5,67.4,29.03,SSE,167,0.0,0.0,96,0.00,,---,0.00,VWS V14.01,2013-06-23 09:08:00,
2013-06-23 05:09:00,68.5,67.4,29.03,SSE,167,0.0,0.0,96,0.00,,---,0.00,VWS V14.01,2013-06-23 09:09:00,
2013-06-23 05:10:00,68.5,67.4,29.03,SSE,167,0.0,0.0,96,0.00,,---,0.00,VWS V14.01,2013-06-23 09:10:00,
2013-06-23 05:11:00,68.5,67.4,29.03,SSE,167,0.0,0.0,96,0.00,,---,0.00,VWS V14.01,2013-06-23 09:11:00,
2013-06-23 05:12:00,68.5,67.4,29.03,SSE,167,0.0,0.0,96,0.00,,---,0.00,VWS V14.01,2013-06-23 09:12:00,
2013-06-23 05:13:00,68.5,67.4,29.03,SSE,167,0.0,0.0,96,0.00,,---,0.00,VWS V14.01,2013-06-23 09:13:00,
2013-06-23 05:14:00,68.5,67.4,29.03,SSE,167,0.0,0.0,96,0.00,,---,0.00,VWS V14.01,2013-06-23 09:14:00,
2013-06-23 05:15:00,68.5,67.4,29.03,SSE,167,0.0,0.0,96,0.00,,---,0.00,VWS V14.01,2013-06-23 09:15:00,
2013-06-23 05:16:00,68.5,67.4,29.03,South,176,0.0,0.0,96,0.00,,---,0.00,VWS V14.01,2013-06-23 09:16:00,
2013-06-23 05:17:00,67.8,64.8,29.06,SE,127,0.0,0.0,90,0.00,,---,0.00,VWS V14.01,2013-06-23 09:17:00,
2013-06-23 05:18:00,68.5,67.4,29.03,South,175,4.0,4.0,96,0.00,,---,0.00,VWS V14.01,2013-06-23 09:18:00,
2013-06-23 05:19:00,68.5,67.4,29.03,South,175,0.0,4.0,96,0.00,,---,0.00,VWS V14.01,2013-06-23 09:19:00,
2013-06-23 05:20:00,68.5,67.4,29.03,South,175,0.0,0.0,96,0.00,,---,0.00,VWS V14.01,2013-06-23 09:20:00,
2013-06-23 05:21:00,68.5,67.4,29.03,South,174,0.0,0.0,96,0.00,,---,0.00,VWS V14.01,2013-06-23 09:21:00,
2013-06-23 05:22:00,68.5,67.4,29.03,South,171,0.0,2.7,96,0.00,,---,0.00,VWS V14.01,2013-06-23 09:22:00,
2013-06-23 05:23:00,68.5,67.4,29.03,South,171,0.0,0.0,96,0.00,,---,0.00,VWS V14.01,2013-06-23 09:23:00,
2013-06-23 05:24:00,68.5,67.4,29.03,SSE,153,0.0,4.5,96,0.00,,---,0.00,VWS V14.01,2013-06-23 09:24:00,
2013-06-23 05:25:00,68.5,67.4,29.03,SW,230,4.0,4.0,96,0.00,,---,0.00,VWS V14.01,2013-06-23 09:25:00,
2013-06-23 05:26:00,68.5,67.4,29.03,SW,230,0.0,4.0,96,0.00,,---,0.00,VWS V14.01,2013-06-23 09:26:00,
2013-06-23 05:27:00,68.5,67.4,29.03,SW,230,0.0,0.0,96,0.00,,---,0.00,VWS V14.01,2013-06-23 09:27:00,
2013-06-23 05:28:00,68.5,67.4,29.03,SW,230,0.0,0.0,96,0.00,,---,0.00,VWS V14.01,2013-06-23 09:28:00,
2013-06-23 05:29:00,68.5,67.4,29.03,SW,230,0.0,0.0,96,0.00,,---,0.00,VWS V14.01,2013-06-23 09:29:00,
2013-06-23 05:30:00,68.5,67.4,29.03,SW,230,0.0,0.0,96,0.00,,---,0.00,VWS V14.01,2013-06-23 09:30:00,
2013-06-23 05:31:00,68.5,67.4,29.03,SW,230,0.0,0.0,96,0.00,,---,0.00,VWS V14.01,2013-06-23 09:31:00,
2013-06-23 05:32:00,68.5,67.4,29.03,SW,233,0.0,0.0,96,0.00,,---,0.00,VWS V14.01,2013-06-23 09:32:00,
2013-06-23 05:33:00,68.4,67.2,29.03,SW,233,0.0,0.0,96,0.00,,---,0.00,VWS V14.01,2013-06-23 09:33:00,
2013-06-23 05:34:00,68.0,65.0,29.06,SE,127,0.0,0.0,90,0.00,,---,0.00,VWS V14.01,2013-06-23 09:34:00,
2013-06-23 05:35:00,68.5,67.4,29.03,ESE,121,0.0,0.0,96,0.00,,---,0.00,VWS V14.01,2013-06-23 09:35:00,
2013-06-23 05:36:00,68.5,67.4,29.03,ESE,121,0.0,0.0,96,0.00,,---,0.00,VWS V14.01,2013-06-23 09:36:00,
2013-06-23 05:37:00,68.5,67.4,29.03,ESE,121,0.0,0.0,96,0.00,,---,0.00,VWS V14.01,2013-06-23 09:37:00,
2013-06-23 05:38:00,68.5,67.4,29.03,SSW,208,0.0,0.0,96,0.00,,---,0.00,VWS V14.01,2013-06-23 09:38:00,
2013-06-23 05:39:00,68.5,67.4,29.03,SSE,167,0.0,0.0,96,0.00,,---,0.00,VWS V14.01,2013-06-23 09:39:00,
2013-06-23 05:40:00,68.2,65.1,29.06,SE,127,0.0,0.0,90,0.00,,---,0.00,VWS V14.01,2013-06-23 09:40:00,
2013-06-23 05:41:00,68.5,67.4,29.03,SSE,167,0.0,0.0,96,0.00,,---,0.00,VWS V14.01,2013-06-23 09:41:00,
2013-06-23 05:42:00,68.5,67.4,29.03,South,176,2.7,2.7,96,0.00,,---,0.00,VWS V14.01,2013-06-23 09:42:00,
2013-06-23 05:43:00,68.4,67.2,29.03,South,176,0.0,2.7,96,0.00,,---,0.00,VWS V14.01,2013-06-23 09:43:00,
2013-06-23 05:44:00,68.4,67.2,29.03,South,176,0.0,0.0,96,0.00,,---,0.00,VWS V14.01,2013-06-23 09:44:00,
2013-06-23 05:45:00,68.4,67.2,29.03,South,176,0.0,0.0,96,0.00,,---,0.00,VWS V14.01,2013-06-23 09:45:00,
2013-06-23 05:46:00,68.4,67.2,29.03,SE,143,0.0,3.6,96,0.00,,---,0.00,VWS V14.01,2013-06-23 09:46:00,
2013-06-23 05:47:00,68.2,65.1,29.06,SE,127,0.0,0.0,90,0.00,,---,0.00,VWS V14.01,2013-06-23 09:47:00,
2013-06-23 05:48:00,68.4,67.2,29.03,SE,143,0.0,0.0,96,0.00,,---,0.00,VWS V14.01,2013-06-23 09:48:00,
2013-06-23 05:49:00,68.4,67.2,29.03,SE,143,3.1,3.1,96,0.00,,---,0.00,VWS V14.01,2013-06-23 09:49:00,
2013-06-23 05:50:00,68.4,67.2,29.03,SE,143,0.0,3.1,96,0.00,,---,0.00,VWS V14.01,2013-06-23 09:50:00,
2013-06-23 05:51:00,68.4,67.2,29.03,SE,143,0.0,0.0,96,0.00,,---,0.00,VWS V14.01,2013-06-23 09:51:00,
2013-06-23 05:52:00,68.2,65.1,29.06,SE,127,0.0,0.0,90,0.00,,---,0.00,VWS V14.01,2013-06-23 09:52:00,
2013-06-23 05:53:00,68.4,67.2,29.03,SE,143,0.0,0.0,96,0.00,,---,0.00,VWS V14.01,2013-06-23 09:53:00,
2013-06-23 05:54:00,68.4,67.2,29.03,SE,128,2.7,2.7,96,0.00,,---,0.00,VWS V14.01,2013-06-23 09:54:00,
2013-06-23 05:55:00,68.4,67.2,29.03,SE,137,0.0,3.6,96,0.00,,---,0.00,VWS V14.01,2013-06-23 09:55:00,
2013-06-23 05:56:00,68.4,67.2,29.03,SE,137,0.0,2.7,96,0.00,,---,0.00,VWS V14.01,2013-06-23 09:56:00,
2013-06-23 05:57:00,68.0,65.0,29.06,SE,127,0.0,0.0,90,0.00,,---,0.00,VWS V14.01,2013-06-23 09:57:00,
2013-06-23 05:58:00,68.4,67.2,29.03,SE,137,0.0,0.0,96,0.00,,---,0.00,VWS V14.01,2013-06-23 09:58:00,
2013-06-23 05:59:00,68.4,67.2,29.03,SE,137,0.0,0.0,96,0.00,,---,0.00,VWS V14.01,2013-06-23 09:59:00,
2013-06-23 06:00:00,68.4,67.2,29.03,SSE,147,0.0,3.1,96,0.00,,---,0.00,VWS V14.01,2013-06-23 10:00:00,
2013-06-23 06:01:00,68.4,67.2,29.03,SSE,147,0.0,0.0,96,0.00,,---,0.00,VWS V14.01,2013-06-23 10:01:00,
2013-06-23 06:02:00,68.4,67.2,29.03,SSE,147,0.0,0.0,96,0.00,,---,0.00,VWS V14.01,2013-06-23 10:02:00,
2013-06-23 06:03:00,68.0,65.0,29.06,SE,127,0.0,0.0,90,0.00,,---,0.00,VWS V14.01,2013-06-23 10:03:00,
2013-06-23 06:04:00,68.4,67.2,29.03,SSE,147,0.0,0.0,96,0.00,,---,0.00,VWS V14.01,2013-06-23 10:04:00,
2013-06-23 06:05:00,68.4,67.2,29.03,SW,224,0.0,3.1,96,0.00,,---,0.00,VWS V14.01,2013-06-23 10:05:00,
2013-06-23 06:06:00,68.4,67.2,29.03,SW,224,0.0,0.0,96,0.00,,---,0.00,VWS V14.01,2013-06-23 10:06:00,
2013-06-23 06:07:00,68.4,67.2,29.03,SW,224,0.0,0.0,96,0.00,,---,0.00,VWS V14.01,2013-06-23 10:07:00,
2013-06-23 06:08:00,67.8,64.8,29.06,SE,127,0.0,0.0,90,0.00,,---,0.00,VWS V14.01,2013-06-23 10:08:00,
2013-06-23 06:09:00,68.2,67.0,29.03,SW,225,0.0,0.0,96,0.00,,---,0.00,VWS V14.01,2013-06-23 10:09:00,
2013-06-23 06:10:00,68.2,67.0,29.03,SE,144,0.0,3.1,96,0.00,,---,0.00,VWS V14.01,2013-06-23 10:10:00,
2013-06-23 06:11:00,68.2,67.0,29.03,SE,144,0.0,0.0,96,0.00,,---,0.00,VWS V14.01,2013-06-23 10:11:00,
2013-06-23 06:12:00,68.2,67.0,29.03,SE,143,0.0,3.1,96,0.00,,---,0.00,VWS V14.01,2013-06-23 10:12:00,
2013-06-23 06:13:00,67.8,64.8,29.06,SE,127,0.0,0.0,90,0.00,,---,0.00,VWS V14.01,2013-06-23 10:13:00,
2013-06-23 06:14:00,68.4,67.2,29.03,SE,138,0.0,0.0,96,0.00,,---,0.00,VWS V14.01,2013-06-23 10:14:00,
2013-06-23 06:15:00,68.2,67.0,29.03,SE,138,0.0,0.0,96,0.00,,---,0.00,VWS V14.01,2013-06-23 10:15:00,
2013-06-23 06:16:00,68.2,67.0,29.03,SSE,152,0.0,0.0,96,0.00,,---,0.00,VWS V14.01,2013-06-23 10:16:00,
2013-06-23 06:17:00,68.2,67.0,29.03,SSE,147,0.0,4.0,96,0.00,,---,0.00,VWS V14.01,2013-06-23 10:17:00,
2013-06-23 06:18:00,68.2,67.0,29.03,SSE,147,0.0,0.0,96,0.00,,---,0.00,VWS V14.01,2013-06-23 10:18:00,
2013-06-23 06:19:00,67.8,64.8,29.06,SE,127,0.0,0.0,90,0.00,,---,0.00,VWS V14.01,2013-06-23 10:19:00,
2013-06-23 06:20:00,68.2,67.0,29.03,SSE,147,0.0,0.0,96,0.00,,---,0.00,VWS V14.01,2013-06-23 10:20:00,
2013-06-23 06:21:00,68.2,67.0,29.03,SSE,147,0.0,0.0,96,0.00,,---,0.00,VWS V14.01,2013-06-23 10:21:00,
2013-06-23 06:22:00,68.2,67.0,29.03,SSE,147,0.0,0.0,96,0.00,,---,0.00,VWS V14.01,2013-06-23 10:22:00,
2013-06-23 06:23:00,68.2,67.0,29.03,SSE,147,0.0,0.0,96,0.00,,---,0.00,VWS V14.01,2013-06-23 10:23:00,
2013-06-23 06:24:00,67.8,64.8,29.06,SE,127,0.0,0.0,90,0.00,,---,0.00,VWS V14.01,2013-06-23 10:24:00,
2013-06-23 06:25:00,68.2,67.0,29.03,SSE,147,0.0,0.0,96,0.00,,---,0.00,VWS V14.01,2013-06-23 10:25:00,
2013-06-23 06:26:00,68.2,67.0,29.03,SSE,147,0.0,0.0,96,0.00,,---,0.00,VWS V14.01,2013-06-23 10:26:00,
2013-06-23 06:27:00,68.2,67.0,29.03,SSE,147,0.0,0.0,96,0.00,,---,0.00,VWS V14.01,2013-06-23 10:27:00,
2013-06-23 06:28:00,68.2,67.0,29.03,SSE,147,0.0,0.0,96,0.00,,---,0.00,VWS V14.01,2013-06-23 10:28:00,
2013-06-23 06:29:00,67.8,64.8,29.06,SE,127,0.0,0.0,90,0.00,,---,0.00,VWS V14.01,2013-06-23 10:29:00,
2013-06-23 06:30:00,68.2,67.0,29.03,SSE,147,0.0,0.0,96,0.00,,---,0.00,VWS V14.01,2013-06-23 10:30:00,
2013-06-23 06:31:00,68.2,67.0,29.03,SSE,147,0.0,0.0,96,0.00,,---,0.00,VWS V14.01,2013-06-23 10:31:00,
2013-06-23 06:32:00,68.2,67.0,29.03,SSE,147,0.0,0.0,96,0.00,,---,0.00,VWS V14.01,2013-06-23 10:32:00,
2013-06-23 06:33:00,68.2,67.0,29.03,SSE,147,0.0,0.0,96,0.00,,---,0.00,VWS V14.01,2013-06-23 10:33:00,
2013-06-23 06:34:00,67.8,64.8,29.06,SE,127,0.0,0.0,90,0.00,,---,0.00,VWS V14.01,2013-06-23 10:34:00,
2013-06-23 06:35:00,68.2,67.0,29.03,SSE,147,0.0,0.0,96,0.00,,---,0.00,VWS V14.01,2013-06-23 10:35:00,
2013-06-23 06:36:00,68.2,67.0,29.03,SSE,147,0.0,0.0,96,0.00,,---,0.00,VWS V14.01,2013-06-23 10:36:00,
2013-06-23 06:37:00,68.2,67.0,29.03,SSE,147,0.0,0.0,96,0.00,,---,0.00,VWS V14.01,2013-06-23 10:37:00,
2013-06-23 06:38:00,68.4,67.2,29.03,SSE,147,0.0,0.0,96,0.00,,---,0.00,VWS V14.01,2013-06-23 10:38:00,
2013-06-23 06:39:00,67.8,64.8,29.06,SE,127,0.0,0.0,90,0.00,,---,0.00,VWS V14.01,2013-06-23 10:39:00,
2013-06-23 06:40:00,68.4,67.2,29.03,SE,135,0.0,0.0,96,0.00,,---,0.00,VWS V14.01,2013-06-23 10:40:00,
2013-06-23 06:41:00,68.4,67.2,29.03,SE,135,0.0,0.0,96,0.00,,---,0.00,VWS V14.01,2013-06-23 10:41:00,
2013-06-23 06:42:00,68.4,67.2,29.03,SE,135,0.0,0.0,96,0.00,,---,0.00,VWS V14.01,2013-06-23 10:42:00,
2013-06-23 06:43:00,68.4,67.2,29.03,SE,135,0.0,0.0,96,0.00,,---,0.00,VWS V14.01,2013-06-23 10:43:00,
2013-06-23 06:44:00,68.0,65.0,29.06,SE,127,0.0,0.0,90,0.00,,---,0.00,VWS V14.01,2013-06-23 10:44:00,
2013-06-23 06:45:00,68.4,67.2,29.03,SE,135,0.0,0.0,96,0.00,,---,0.00,VWS V14.01,2013-06-23 10:45:00,
2013-06-23 06:46:00,68.4,67.2,29.03,SE,135,0.0,0.0,96,0.00,,---,0.00,VWS V14.01,2013-06-23 10:46:00,
2013-06-23 06:47:00,68.4,67.2,29.03,SE,135,0.0,0.0,96,0.00,,---,0.00,VWS V14.01,2013-06-23 10:47:00,
2013-06-23 06:48:00,68.4,67.2,29.03,SE,135,0.0,0.0,96,0.00,,---,0.00,VWS V14.01,2013-06-23 10:48:00,
2013-06-23 06:49:00,68.0,65.0,29.06,SE,127,0.0,0.0,90,0.00,,---,0.00,VWS V14.01,2013-06-23 10:49:00,
2013-06-23 06:50:00,68.5,67.4,29.03,SE,136,3.1,3.1,96,0.00,,---,0.00,VWS V14.01,2013-06-23 10:50:00,
2013-06-23 06:51:00,68.5,67.4,29.03,SE,136,0.0,3.1,96,0.00,,---,0.00,VWS V14.01,2013-06-23 10:51:00,
2013-06-23 06:52:00,68.5,67.4,29.03,SE,136,0.0,4.0,96,0.00,,---,0.00,VWS V14.01,2013-06-23 10:52:00,
2013-06-23 06:53:00,68.7,67.5,29.03,SE,136,0.0,0.0,96,0.00,,---,0.00,VWS V14.01,2013-06-23 10:53:00,
2013-06-23 06:54:00,68.0,65.0,29.06,SE,127,0.0,0.0,90,0.00,,---,0.00,VWS V14.01,2013-06-23 10:54:00,
2013-06-23 06:55:00,68.7,67.5,29.03,SE,136,0.0,0.0,96,0.00,,---,0.00,VWS V14.01,2013-06-23 10:55:00,
2013-06-23 06:56:00,68.7,67.5,29.03,SE,136,0.0,2.7,96,0.00,,---,0.00,VWS V14.01,2013-06-23 10:56:00,
2013-06-23 06:57:00,68.7,67.5,29.03,SE,136,0.0,0.0,96,0.00,,---,0.00,VWS V14.01,2013-06-23 10:57:00,
2013-06-23 06:58:00,68.7,67.5,29.03,SE,136,0.0,0.0,96,0.00,,---,0.00,VWS V14.01,2013-06-23 10:58:00,
2013-06-23 06:59:00,68.2,65.1,29.06,SE,127,0.0,0.0,90,0.00,,---,0.00,VWS V14.01,2013-06-23 10:59:00,
2013-06-23 07:00:00,68.9,67.7,29.03,SE,136,0.0,0.0,96,0.00,,---,0.00,VWS V14.01,2013-06-23 11:00:00,
2013-06-23 07:01:00,68.9,67.7,29.03,SE,136,0.0,0.0,96,0.00,,---,0.00,VWS V14.01,2013-06-23 11:01:00,
2013-06-23 07:02:00,68.9,67.7,29.03,SE,135,2.7,2.7,96,0.00,,---,0.00,VWS V14.01,2013-06-23 11:02:00,
2013-06-23 07:03:00,69.1,67.9,29.03,SE,133,3.1,4.9,96,0.00,,---,0.00,VWS V14.01,2013-06-23 11:03:00,
2013-06-23 07:04:00,68.4,65.6,29.06,SE,127,0.0,0.0,91,0.00,,---,0.00,VWS V14.01,2013-06-23 11:04:00,
2013-06-23 07:05:00,69.1,67.9,29.03,SE,145,0.0,5.4,96,0.00,,---,0.00,VWS V14.01,2013-06-23 11:05:00,
2013-06-23 07:06:00,69.1,67.9,29.03,SE,134,0.0,4.0,96,0.00,,---,0.00,VWS V14.01,2013-06-23 11:06:00,
2013-06-23 07:07:00,69.3,68.1,29.03,SE,134,0.0,0.0,96,0.00,,---,0.00,VWS V14.01,2013-06-23 11:07:00,
2013-06-23 07:08:00,69.3,68.1,29.03,SE,134,0.0,0.0,96,0.00,,---,0.00,VWS V14.01,2013-06-23 11:08:00,
2013-06-23 07:09:00,68.5,65.8,29.06,SE,128,0.0,0.0,91,0.00,,---,0.00,VWS V14.01,2013-06-23 11:09:00,
2013-06-23 07:10:00,69.3,68.1,29.03,SE,134,0.0,0.0,96,0.00,,---,0.00,VWS V14.01,2013-06-23 11:10:00,
2013-06-23 07:11:00,69.3,68.1,29.03,WSW,241,0.0,0.0,96,0.00,,---,0.00,VWS V14.01,2013-06-23 11:11:00,
2013-06-23 07:12:00,69.3,68.1,29.03,WSW,241,0.0,0.0,96,0.00,,---,0.00,VWS V14.01,2013-06-23 11:12:00,
2013-06-23 07:13:00,69.4,68.2,29.03,SE,136,0.0,0.0,96,0.00,,---,0.00,VWS V14.01,2013-06-23 11:13:00,
2013-06-23 07:14:00,68.9,66.2,29.06,SE,127,0.0,0.0,91,0.00,,---,0.00,VWS V14.01,2013-06-23 11:14:00,
2013-06-23 07:15:00,69.4,68.2,29.03,SE,136,0.0,0.0,96,0.00,,---,0.00,VWS V14.01,2013-06-23 11:15:00,
2013-06-23 07:16:00,69.4,68.2,29.03,SE,136,0.0,0.0,96,0.00,,---,0.00,VWS V14.01,2013-06-23 11:16:00,
2013-06-23 07:17:00,69.4,68.2,29.03,SE,136,0.0,0.0,96,0.00,,---,0.00,VWS V14.01,2013-06-23 11:17:00,
2013-06-23 07:18:00,69.6,68.4,29.03,SE,136,0.0,0.0,96,0.00,,---,0.00,VWS V14.01,2013-06-23 11:18:00,
2013-06-23 07:19:00,69.1,66.0,29.06,SE,128,0.0,2.7,90,0.00,,---,0.00,VWS V14.01,2013-06-23 11:19:00,
2013-06-23 07:20:00,69.6,68.4,29.03,SE,136,0.0,0.0,96,0.00,,---,0.00,VWS V14.01,2013-06-23 11:20:00,
2013-06-23 07:21:00,69.6,68.4,29.03,SE,136,0.0,0.0,96,0.04,,---,0.04,VWS V14.01,2013-06-23 11:21:00,
2013-06-23 07:22:00,69.6,68.4,29.03,SE,136,0.0,0.0,96,0.04,,---,0.04,VWS V14.01,2013-06-23 11:22:00,
2013-06-23 07:23:00,69.8,68.6,29.03,SE,136,0.0,0.0,96,0.04,,---,0.04,VWS V14.01,2013-06-23 11:23:00,
2013-06-23 07:24:00,69.4,66.4,29.06,SE,128,0.0,0.0,90,0.00,,---,0.00,VWS V14.01,2013-06-23 11:24:00,
2013-06-23 07:25:00,70.0,68.8,29.03,SE,136,0.0,0.0,96,0.04,,---,0.04,VWS V14.01,2013-06-23 11:25:00,
2013-06-23 07:26:00,70.0,68.8,29.03,SE,136,0.0,0.0,96,0.04,,---,0.04,VWS V14.01,2013-06-23 11:26:00,
2013-06-23 07:27:00,70.0,68.8,29.03,SE,136,0.0,0.0,96,0.04,,---,0.04,VWS V14.01,2013-06-23 11:27:00,
2013-06-23 07:28:00,70.0,68.8,29.03,SE,136,0.0,0.0,96,0.04,,---,0.04,VWS V14.01,2013-06-23 11:28:00,
2013-06-23 07:29:00,69.6,66.6,29.06,SSW,203,0.0,4.5,90,0.00,,---,0.00,VWS V14.01,2013-06-23 11:29:00,
2013-06-23 07:30:00,70.2,69.0,29.03,SE,136,0.0,0.0,96,0.04,,---,0.04,VWS V14.01,2013-06-23 11:30:00,
2013-06-23 07:31:00,70.3,69.2,29.03,SE,136,0.0,0.0,96,0.04,,---,0.04,VWS V14.01,2013-06-23 11:31:00,
2013-06-23 07:32:00,70.3,69.2,29.03,SE,136,0.0,0.0,96,0.04,,---,0.04,VWS V14.01,2013-06-23 11:32:00,
2013-06-23 07:33:00,70.3,69.2,29.03,SSE,149,3.6,4.5,96,0.04,,---,0.04,VWS V14.01,2013-06-23 11:33:00,
2013-06-23 07:34:00,70.0,66.6,29.06,SSE,150,0.0,0.0,89,0.00,,---,0.00,VWS V14.01,2013-06-23 11:34:00,
2013-06-23 07:35:00,70.5,69.3,29.03,SSE,149,0.0,0.0,96,0.04,,---,0.04,VWS V14.01,2013-06-23 11:35:00,
2013-06-23 07:36:00,70.5,69.3,29.03,SSE,149,0.0,0.0,96,0.04,,---,0.04,VWS V14.01,2013-06-23 11:36:00,
2013-06-23 07:37:00,70.5,69.3,29.03,SSE,149,0.0,0.0,96,0.04,,---,0.04,VWS V14.01,2013-06-23 11:37:00,
2013-06-23 07:38:00,70.7,69.5,29.03,SSE,149,0.0,0.0,96,0.04,,---,0.04,VWS V14.01,2013-06-23 11:38:00,
2013-06-23 07:39:00,70.2,66.1,29.06,West,267,0.0,5.8,87,0.00,,---,0.00,VWS V14.01,2013-06-23 11:39:00,
2013-06-23 07:40:00,70.7,69.5,29.03,SSE,148,0.0,0.0,96,0.04,,---,0.04,VWS V14.01,2013-06-23 11:40:00,
2013-06-23 07:41:00,70.5,69.3,29.03,SW,229,0.0,0.0,96,0.04,,---,0.04,VWS V14.01,2013-06-23 11:41:00,
2013-06-23 07:42:00,70.5,69.3,29.03,SW,229,0.0,0.0,96,0.04,,---,0.04,VWS V14.01,2013-06-23 11:42:00,
2013-06-23 07:43:00,70.7,69.5,29.03,SW,229,0.0,0.0,96,0.04,,---,0.04,VWS V14.01,2013-06-23 11:43:00,
2013-06-23 07:44:00,70.7,65.6,29.06,SSW,210,0.0,2.7,84,0.00,,---,0.00,VWS V14.01,2013-06-23 11:44:00,
2013-06-23 07:45:00,70.7,69.5,29.03,SSE,164,0.0,3.1,96,0.04,,---,0.04,VWS V14.01,2013-06-23 11:45:00,
2013-06-23 07:46:00,70.9,69.7,29.03,SSE,164,0.0,0.0,96,0.04,,---,0.04,VWS V14.01,2013-06-23 11:46:00,
2013-06-23 07:47:00,70.9,69.4,29.03,SSE,164,0.0,0.0,95,0.04,,---,0.04,VWS V14.01,2013-06-23 11:47:00,
2013-06-23 07:48:00,70.9,69.4,29.03,SSE,164,0.0,0.0,95,0.04,,---,0.04,VWS V14.01,2013-06-23 11:48:00,
2013-06-23 07:49:00,71.1,64.9,29.06,West,269,0.0,0.0,81,0.00,,---,0.00,VWS V14.01,2013-06-23 11:49:00,
2013-06-23 07:50:00,70.9,69.4,29.03,WSW,251,3.1,3.1,95,0.04,,---,0.04,VWS V14.01,2013-06-23 11:50:00,
2013-06-23 07:51:00,71.1,69.6,29.03,WSW,251,0.0,3.1,95,0.04,,---,0.04,VWS V14.01,2013-06-23 11:51:00,
2013-06-23 07:52:00,71.1,69.6,29.03,WSW,251,0.0,0.0,95,0.04,,---,0.04,VWS V14.01,2013-06-23 11:52:00,
2013-06-23 07:53:00,71.1,69.6,29.03,SSW,207,0.0,3.1,95,0.04,,---,0.04,VWS V14.01,2013-06-23 11:53:00,
2013-06-23 07:54:00,71.4,64.9,29.06,WSW,245,2.7,4.0,80,0.00,,---,0.00,VWS V14.01,2013-06-23 11:54:00,
2013-06-23 07:55:00,71.1,69.6,29.03,SW,218,0.0,4.5,95,0.04,,---,0.04,VWS V14.01,2013-06-23 11:55:00,
2013-06-23 07:56:00,71.1,69.6,29.03,SW,227,0.0,3.6,95,0.04,,---,0.04,VWS V14.01,2013-06-23 11:56:00,
2013-06-23 07:57:00,71.2,69.7,29.06,SW,233,0.0,3.1,95,0.04,,---,0.04,VWS V14.01,2013-06-23 11:57:00,
2013-06-23 07:58:00,71.2,69.7,29.06,SW,233,0.0,0.0,95,0.04,,---,0.04,VWS V14.01,2013-06-23 11:58:00,
2013-06-23 07:59:00,72.0,64.7,29.06,ESE,112,0.0,2.7,78,0.00,,---,0.00,VWS V14.01,2013-06-23 11:59:00,
2013-06-23 08:00:00,71.6,70.1,29.06,SW,223,3.1,3.1,95,0.04,,---,0.04,VWS V14.01,2013-06-23 12:00:00,
2013-06-23 08:01:00,71.8,70.3,29.06,SW,223,0.0,3.1,95,0.04,,---,0.04,VWS V14.01,2013-06-23 12:01:00,
2013-06-23 08:02:00,72.0,70.4,29.06,WSW,246,4.0,5.4,95,0.04,,---,0.04,VWS V14.01,2013-06-23 12:02:00,
2013-06-23 08:03:00,71.8,70.3,29.06,WSW,240,3.6,4.0,95,0.04,,---,0.04,VWS V14.01,2013-06-23 12:03:00,
2013-06-23 08:04:00,72.7,64.7,29.06,SW,236,2.7,2.7,76,0.00,,---,0.00,VWS V14.01,2013-06-23 12:04:00,
2013-06-23 08:05:00,72.0,70.1,29.06,SW,223,0.0,0.0,94,0.04,,---,0.04,VWS V14.01,2013-06-23 12:05:00,
2013-06-23 08:06:00,71.8,70.0,29.06,SW,225,2.7,4.5,94,0.04,,---,0.04,VWS V14.01,2013-06-23 12:06:00,
2013-06-23 08:07:00,71.8,70.0,29.06,WSW,243,0.0,3.6,94,0.04,,---,0.04,VWS V14.01,2013-06-23 12:07:00,
2013-06-23 08:08:00,71.8,70.0,29.06,WSW,246,0.0,0.0,94,0.04,,---,0.04,VWS V14.01,2013-06-23 12:08:00,
2013-06-23 08:09:00,75.7,66.5,29.06,WSW,258,0.0,0.0,73,0.00,,---,0.00,VWS V14.01,2013-06-23 12:09:00,
2013-06-23 08:10:00,72.3,70.2,29.06,WSW,246,0.0,0.0,93,0.04,,---,0.04,VWS V14.01,2013-06-23 12:10:00,
2013-06-23 08:11:00,72.3,70.2,29.06,West,278,5.8,6.3,93,0.04,,---,0.04,VWS V14.01,2013-06-23 12:11:00,
2013-06-23 08:12:00,72.3,70.2,29.06,SW,229,3.6,6.3,93,0.04,,---,0.04,VWS V14.01,2013-06-23 12:12:00,
2013-06-23 08:13:00,72.9,70.4,29.06,SW,229,0.0,3.6,92,0.04,,---,0.04,VWS V14.01,2013-06-23 12:13:00,
2013-06-23 08:14:00,77.2,63.6,29.06,West,269,4.5,5.8,63,0.00,,---,0.00,VWS V14.01,2013-06-23 12:14:00,
2013-06-23 08:15:00,74.3,71.5,29.06,SW,229,0.0,0.0,91,0.04,,---,0.04,VWS V14.01,2013-06-23 12:15:00,
2013-06-23 08:16:00,75.4,72.2,29.06,SW,229,0.0,0.0,90,0.04,,---,0.04,VWS V14.01,2013-06-23 12:16:00,
2013-06-23 08:17:00,76.5,73.3,29.06,SW,229,0.0,0.0,90,0.04,,---,0.04,VWS V14.01,2013-06-23 12:17:00,
2013-06-23 08:18:00,76.6,73.5,29.06,SW,229,0.0,0.0,90,0.04,,---,0.04,VWS V14.01,2013-06-23 12:18:00,
2013-06-23 08:19:00,80.1,64.0,29.06,SSW,203,3.1,4.5,58,0.00,,---,0.00,VWS V14.01,2013-06-23 12:19:00,
2013-06-23 08:20:00,77.5,73.7,29.06,SSW,210,3.6,3.6,88,0.04,,---,0.04,VWS V14.01,2013-06-23 12:20:00,
2013-06-23 08:21:00,78.1,73.6,29.06,SSW,202,0.0,3.6,86,0.04,,---,0.04,VWS V14.01,2013-06-23 12:21:00,
2013-06-23 08:22:00,79.0,73.7,29.06,SE,133,0.0,3.6,84,0.00,,---,0.04,VWS V14.01,2013-06-23 12:22:00,
2013-06-23 08:23:00,78.4,71.8,29.06,WNW,292,0.0,4.0,80,0.00,,---,0.04,VWS V14.01,2013-06-23 12:23:00,
2013-06-23 08:24:00,79.9,61.2,29.06,West,264,0.0,4.5,53,0.00,,---,0.00,VWS V14.01,2013-06-23 12:24:00,
2013-06-23 08:25:00,80.1,71.0,29.06,West,281,0.0,0.0,74,0.00,,---,0.04,VWS V14.01,2013-06-23 12:25:00,
2013-06-23 08:26:00,80.4,70.6,29.06,SSW,204,0.0,4.0,72,0.00,,---,0.04,VWS V14.01,2013-06-23 12:26:00,
2013-06-23 08:27:00,80.2,68.7,29.06,WNW,302,0.0,5.4,68,0.00,,---,0.04,VWS V14.01,2013-06-23 12:27:00,
2013-06-23 08:28:00,80.2,67.0,29.06,WSW,250,0.0,4.9,64,0.00,,---,0.04,VWS V14.01,2013-06-23 12:28:00,
2013-06-23 08:29:00,79.9,58.5,29.06,WSW,252,3.6,5.8,48,0.00,,---,0.00,VWS V14.01,2013-06-23 12:29:00,
2013-06-23 08:30:00,81.9,67.6,29.06,SW,227,0.0,4.0,62,0.00,,---,0.04,VWS V14.01,2013-06-23 12:30:00,
2013-06-23 08:31:00,81.5,65.8,29.06,SW,229,0.0,3.6,59,0.00,,---,0.04,VWS V14.01,2013-06-23 12:31:00,
2013-06-23 08:32:00,82.2,66.0,29.06,SW,229,0.0,0.0,58,0.00,,---,0.04,VWS V14.01,2013-06-23 12:32:00,
2013-06-23 08:33:00,82.0,64.8,29.06,SW,229,3.1,3.1,56,0.00,,---,0.04,VWS V14.01,2013-06-23 12:33:00,
2013-06-23 08:34:00,82.4,61.3,29.06,West,267,0.0,0.0,49,0.00,,---,0.00,VWS V14.01,2013-06-23 12:34:00,
2013-06-23 08:35:00,82.6,65.3,29.06,SE,125,0.0,3.6,56,0.00,,---,0.04,VWS V14.01,2013-06-23 12:35:00,
2013-06-23 08:36:00,81.7,63.4,29.06,North,356,2.7,3.6,54,0.00,,---,0.04,VWS V14.01,2013-06-23 12:36:00,
2013-06-23 08:37:00,82.8,65.0,29.06,WSW,254,0.0,4.5,55,0.00,,---,0.04,VWS V14.01,2013-06-23 12:37:00,
2013-06-23 08:38:00,83.8,66.0,29.06,SSE,147,2.7,4.0,55,0.00,,---,0.04,VWS V14.01,2013-06-23 12:38:00,
2013-06-23 08:39:00,84.4,59.5,29.06,West,277,3.6,4.5,43,0.00,,---,0.00,VWS V14.01,2013-06-23 12:39:00,
2013-06-23 08:40:00,83.7,64.2,29.06,West,278,0.0,0.0,52,0.00,,---,0.04,VWS V14.01,2013-06-23 12:40:00,
2013-06-23 08:41:00,84.0,64.0,29.06,SW,227,0.0,4.5,51,0.00,,---,0.04,VWS V14.01,2013-06-23 12:41:00,
2013-06-23 08:42:00,84.4,63.7,29.06,SW,228,3.1,3.1,50,0.00,,---,0.04,VWS V14.01,2013-06-23 12:42:00,
2013-06-23 08:43:00,83.5,61.7,29.06,West,269,0.0,3.6,48,0.00,,---,0.04,VWS V14.01,2013-06-23 12:43:00,
2013-06-23 08:44:00,85.1,57.4,29.06,West,276,0.0,4.5,39,0.00,,---,0.00,VWS V14.01,2013-06-23 12:44:00,
2013-06-23 08:45:00,84.0,62.8,29.06,SW,225,0.0,3.1,49,0.00,,---,0.04,VWS V14.01,2013-06-23 12:45:00,
2013-06-23 08:46:00,84.0,62.8,29.06,WSW,245,3.1,5.8,49,0.00,,---,0.04,VWS V14.01,2013-06-23 12:46:00,
2013-06-23 08:47:00,81.9,60.8,29.06,SW,223,3.1,6.3,49,0.00,,---,0.04,VWS V14.01,2013-06-23 12:47:00,
2013-06-23 08:48:00,81.1,61.3,29.06,West,278,2.7,6.7,51,0.00,,---,0.04,VWS V14.01,2013-06-23 12:48:00,
2013-06-23 08:49:00,86.0,57.5,29.06,SE,141,4.5,4.5,38,0.00,,---,0.00,VWS V14.01,2013-06-23 12:49:00,
2013-06-23 08:50:00,79.5,62.5,29.06,SW,229,0.0,4.9,56,0.00,,---,0.04,VWS V14.01,2013-06-23 12:50:00,
2013-06-23 08:51:00,79.7,62.6,29.06,West,275,8.7,8.7,56,0.00,,---,0.04,VWS V14.01,2013-06-23 12:51:00,
2013-06-23 08:52:00,78.6,63.1,29.06,WSW,254,0.0,8.7,59,0.00,,---,0.04,VWS V14.01,2013-06-23 12:52:00,
2013-06-23 08:53:00,78.8,63.8,29.06,WSW,254,0.0,0.0,60,0.00,,---,0.04,VWS V14.01,2013-06-23 12:53:00,
2013-06-23 08:54:00,83.5,56.6,29.06,SE,138,0.0,4.9,40,0.00,,---,0.00,VWS V14.01,2013-06-23 12:54:00,
2013-06-23 08:55:00,79.0,63.9,29.06,West,277,0.0,6.3,60,0.00,,---,0.04,VWS V14.01,2013-06-23 12:55:00,
2013-06-23 08:56:00,79.2,64.1,29.06,WSW,250,3.1,3.6,60,0.00,,---,0.04,VWS V14.01,2013-06-23 12:56:00,
2013-06-23 08:57:00,79.5,64.9,29.06,SW,218,4.9,6.3,61,0.00,,---,0.04,VWS V14.01,2013-06-23 12:57:00,
2013-06-23 08:58:00,79.2,64.1,29.06,SW,218,0.0,4.9,60,0.00,,---,0.04,VWS V14.01,2013-06-23 12:58:00,
2013-06-23 08:59:00,82.4,56.4,29.06,South,181,0.0,3.1,41,0.00,,---,0.00,VWS V14.01,2013-06-23 12:59:00,
2013-06-23 09:00:00,78.8,63.3,29.06,ENE,70,0.0,0.0,59,0.00,,---,0.04,VWS V14.01,2013-06-23 13:00:00,
2013-06-23 09:01:00,78.8,63.8,29.06,ESE,116,2.7,2.7,60,0.00,,---,0.04,VWS V14.01,2013-06-23 13:01:00,
2013-06-23 09:02:00,79.0,63.9,29.06,SW,226,3.6,3.6,60,0.00,,---,0.04,VWS V14.01,2013-06-23 13:02:00,
2013-06-23 09:03:00,78.8,63.8,29.06,West,275,4.0,4.0,60,0.00,,---,0.04,VWS V14.01,2013-06-23 13:03:00,
2013-06-23 09:04:00,81.1,56.5,29.06,WSW,251,0.0,0.0,43,0.00,,---,0.00,VWS V14.01,2013-06-23 13:04:00,
2013-06-23 09:05:00,78.4,63.4,29.06,West,265,0.0,3.6,60,0.00,,---,0.04,VWS V14.01,2013-06-23 13:05:00,
2013-06-23 09:06:00,78.4,63.4,29.06,West,265,0.0,0.0,60,0.00,,---,0.04,VWS V14.01,2013-06-23 13:06:00,
2013-06-23 09:07:00,78.3,63.2,29.06,WSW,257,0.0,4.5,60,0.00,,---,0.04,VWS V14.01,2013-06-23 13:07:00,
2013-06-23 09:08:00,77.9,63.4,29.06,West,261,3.1,6.3,61,0.00,,---,0.04,VWS V14.01,2013-06-23 13:08:00,
2013-06-23 09:09:00,79.7,57.1,29.06,WNW,282,0.0,6.3,46,0.00,,---,0.00,VWS V14.01,2013-06-23 13:09:00,
2013-06-23 09:10:00,77.4,63.8,29.06,WSW,237,0.0,6.7,63,0.00,,---,0.04,VWS V14.01,2013-06-23 13:10:00,
2013-06-23 09:11:00,77.4,63.8,29.06,NW,307,0.0,4.9,63,0.00,,---,0.04,VWS V14.01,2013-06-23 13:11:00,
2013-06-23 09:12:00,77.5,64.4,29.06,SW,226,0.0,2.7,64,0.00,,---,0.04,VWS V14.01,2013-06-23 13:12:00,
2013-06-23 09:13:00,77.5,64.4,29.06,East,85,0.0,4.5,64,0.00,,---,0.04,VWS V14.01,2013-06-23 13:13:00,
2013-06-23 09:14:00,78.8,58.0,29.06,SW,223,3.1,4.0,49,0.00,,---,0.00,VWS V14.01,2013-06-23 13:14:00,
2013-06-23 09:15:00,77.5,64.4,29.06,SSW,207,0.0,4.5,64,0.00,,---,0.04,VWS V14.01,2013-06-23 13:15:00,
2013-06-23 09:16:00,77.4,63.8,29.06,SSW,193,3.6,8.3,63,0.00,,---,0.04,VWS V14.01,2013-06-23 13:16:00,
2013-06-23 09:17:00,77.4,64.2,29.06,WNW,303,5.4,5.8,64,0.00,,---,0.04,VWS V14.01,2013-06-23 13:17:00,
2013-06-23 09:18:00,77.2,64.1,29.06,SW,222,2.7,6.3,64,0.00,,---,0.04,VWS V14.01,2013-06-23 13:18:00,
2013-06-23 09:19:00,77.4,64.2,29.06,SW,235,0.0,6.7,64,0.00,,---,0.04,VWS V14.01,2013-06-23 13:19:00,
2013-06-23 09:20:00,78.6,58.4,29.06,SW,231,2.7,5.8,50,0.00,,---,0.00,VWS V14.01,2013-06-23 13:20:00,
2013-06-23 09:21:00,77.4,64.2,29.06,West,281,4.0,5.4,64,0.00,,---,0.04,VWS V14.01,2013-06-23 13:21:00,
2013-06-23 09:22:00,77.2,64.1,29.06,WNW,291,0.0,5.8,64,0.00,,---,0.04,VWS V14.01,2013-06-23 13:22:00,
2013-06-23 09:23:00,77.5,64.9,29.06,SW,235,0.0,3.6,65,0.00,,---,0.04,VWS V14.01,2013-06-23 13:23:00,
2013-06-23 09:24:00,77.4,64.7,29.06,West,268,3.1,4.0,65,0.00,,---,0.04,VWS V14.01,2013-06-23 13:24:00,
2013-06-23 09:25:00,78.3,58.7,29.06,SW,217,3.1,4.0,51,0.00,,---,0.00,VWS V14.01,2013-06-23 13:25:00,
2013-06-23 09:26:00,77.2,64.1,29.06,WNW,288,0.0,6.9,64,0.00,,---,0.04,VWS V14.01,2013-06-23 13:26:00,
2013-06-23 09:27:00,77.5,64.4,29.06,WSW,248,0.0,6.7,64,0.00,,---,0.04,VWS V14.01,2013-06-23 13:27:00,
2013-06-23 09:28:00,77.5,64.4,29.06,WSW,257,3.6,5.4,64,0.00,,---,0.04,VWS V14.01,2013-06-23 13:28:00,
2013-06-23 09:29:00,77.7,64.6,29.06,West,259,4.5,4.5,64,0.00,,---,0.04,VWS V14.01,2013-06-23 13:29:00,
2013-06-23 09:30:00,77.7,64.6,29.06,South,183,3.1,5.4,64,0.00,,---,0.04,VWS V14.01,2013-06-23 13:30:00,
2013-06-23 09:31:00,77.9,59.9,29.06,WSW,254,0.0,0.0,54,0.00,,---,0.00,VWS V14.01,2013-06-23 13:31:00,
2013-06-23 09:32:00,77.5,64.0,29.06,WNW,291,7.4,11.0,63,0.00,,---,0.04,VWS V14.01,2013-06-23 13:32:00,
2013-06-23 09:33:00,77.4,63.8,29.06,West,272,6.3,9.2,63,0.00,,---,0.04,VWS V14.01,2013-06-23 13:33:00,
2013-06-23 09:34:00,77.5,64.0,29.06,WSW,241,0.0,6.3,63,0.00,,---,0.04,VWS V14.01,2013-06-23 13:34:00,
2013-06-23 09:35:00,77.7,64.6,29.06,West,273,0.0,3.1,64,0.00,,---,0.04,VWS V14.01,2013-06-23 13:35:00,
2013-06-23 09:36:00,77.9,64.3,29.06,SSW,205,0.0,6.9,63,0.00,,---,0.04,VWS V14.01,2013-06-23 13:36:00,
2013-06-23 09:37:00,79.2,61.1,29.06,WSW,254,0.0,0.0,54,0.00,,---,0.00,VWS V14.01,2013-06-23 13:37:00,
2013-06-23 09:38:00,77.7,63.7,29.06,SW,221,0.0,8.7,62,0.00,,---,0.04,VWS V14.01,2013-06-23 13:38:00,
2013-06-23 09:39:00,77.7,64.1,29.06,West,259,0.0,5.8,63,0.00,,---,0.04,VWS V14.01,2013-06-23 13:39:00,
2013-06-23 09:40:00,77.7,64.6,29.06,WNW,300,6.9,6.9,64,0.00,,---,0.04,VWS V14.01,2013-06-23 13:40:00,
2013-06-23 09:41:00,77.5,64.0,29.06,SW,225,7.8,7.8,63,0.00,,---,0.04,VWS V14.01,2013-06-23 13:41:00,
2013-06-23 09:42:00,79.3,59.7,29.06,SE,124,0.0,3.1,51,0.00,,---,0.00,VWS V14.01,2013-06-23 13:42:00,
2013-06-23 09:43:00,77.5,64.0,29.06,WSW,257,0.0,3.1,63,0.00,,---,0.04,VWS V14.01,2013-06-23 13:43:00,
2013-06-23 09:44:00,77.5,63.5,29.06,West,274,9.6,9.6,62,0.00,,---,0.04,VWS V14.01,2013-06-23 13:44:00,
2013-06-23 09:45:00,77.4,62.9,29.06,WNW,299,3.6,12.5,61,0.00,,---,0.04,VWS V14.01,2013-06-23 13:45:00,
2013-06-23 09:46:00,77.4,63.3,29.06,West,275,5.4,6.7,62,0.00,,---,0.04,VWS V14.01,2013-06-23 13:46:00,
2013-06-23 09:47:00,79.5,58.7,29.06,NE,46,0.0,3.6,49,0.00,,---,0.00,VWS V14.01,2013-06-23 13:47:00,
2013-06-23 09:48:00,77.4,63.3,29.06,West,265,10.1,10.1,62,0.00,,---,0.04,VWS V14.01,2013-06-23 13:48:00,
2013-06-23 09:49:00,77.2,62.7,29.06,WNW,284,8.3,12.5,61,0.00,,---,0.04,VWS V14.01,2013-06-23 13:49:00,
2013-06-23 09:50:00,77.4,62.4,29.06,West,280,10.1,10.5,60,0.00,,---,0.04,VWS V14.01,2013-06-23 13:50:00,
2013-06-23 09:51:00,77.4,62.4,29.06,WSW,244,5.8,10.1,60,0.00,,---,0.04,VWS V14.01,2013-06-23 13:51:00,
2013-06-23 09:52:00,80.1,59.2,29.06,WNW,293,0.0,4.0,49,0.00,,---,0.00,VWS V14.01,2013-06-23 13:52:00,
2013-06-23 09:53:00,77.5,62.6,29.06,West,270,11.0,11.0,60,0.00,,---,0.04,VWS V14.01,2013-06-23 13:53:00,
2013-06-23 09:54:00,77.4,62.9,29.06,West,281,7.8,11.0,61,0.00,,---,0.04,VWS V14.01,2013-06-23 13:54:00,
2013-06-23 09:55:00,77.4,62.9,29.06,SW,214,3.6,7.8,61,0.00,,---,0.04,VWS V14.01,2013-06-23 13:55:00,
2013-06-23 09:56:00,77.4,62.9,29.06,WSW,256,7.4,9.6,61,0.00,,---,0.04,VWS V14.01,2013-06-23 13:56:00,
2013-06-23 09:57:00,80.4,57.8,29.06,WSW,241,0.0,10.5,46,0.00,,---,0.00,VWS V14.01,2013-06-23 13:57:00,
2013-06-23 09:58:00,77.7,63.2,29.06,WSW,252,4.0,5.4,61,0.00,,---,0.04,VWS V14.01,2013-06-23 13:58:00,
2013-06-23 09:59:00,77.9,63.4,29.06,WNW,284,3.6,7.4,61,0.00,,---,0.04,VWS V14.01,2013-06-23 13:59:00,
2013-06-23 10:00:00,78.1,63.5,29.06,WNW,284,4.0,4.5,61,0.00,,---,0.04,VWS V14.01,2013-06-23 14:00:00,
2013-06-23 10:01:00,78.1,63.5,29.06,WSW,238,4.5,9.2,61,0.00,,---,0.04,VWS V14.01,2013-06-23 14:01:00,
2013-06-23 10:02:00,78.3,63.2,29.06,SW,230,6.9,8.3,60,0.00,,---,0.04,VWS V14.01,2013-06-23 14:02:00,
2013-06-23 10:03:00,78.6,63.6,29.06,NW,305,8.3,8.3,60,0.00,,---,0.04,VWS V14.01,2013-06-23 14:03:00,
2013-06-23 10:04:00,78.6,62.6,29.06,WNW,295,7.8,9.6,58,0.00,,---,0.04,VWS V14.01,2013-06-23 14:04:00,
2013-06-23 10:05:00,81.1,59.0,29.06,SE,125,0.0,4.9,47,0.00,,---,0.00,VWS V14.01,2013-06-23 14:05:00,
2013-06-23 10:06:00,78.4,61.5,29.06,SW,229,6.7,9.2,56,0.00,,---,0.04,VWS V14.01,2013-06-23 14:06:00,
2013-06-23 10:07:00,78.3,61.8,29.06,West,271,4.5,9.6,57,0.00,,---,0.04,VWS V14.01,2013-06-23 14:07:00,
2013-06-23 10:08:00,78.3,62.3,29.06,WNW,282,5.4,10.5,58,0.00,,---,0.04,VWS V14.01,2013-06-23 14:08:00,
2013-06-23 10:09:00,78.4,62.5,29.06,WNW,298,2.7,5.8,58,0.00,,---,0.04,VWS V14.01,2013-06-23 14:09:00,
2013-06-23 10:10:00,81.5,57.5,29.06,South,178,4.5,5.8,44,0.00,,---,0.00,VWS V14.01,2013-06-23 14:10:00,
2013-06-23 10:11:00,78.8,62.8,29.06,West,278,4.9,6.3,58,0.00,,---,0.04,VWS V14.01,2013-06-23 14:11:00,
2013-06-23 10:12:00,78.8,62.3,29.06,West,269,3.1,8.7,57,0.00,,---,0.04,VWS V14.01,2013-06-23 14:12:00,
2013-06-23 10:13:00,79.0,62.5,29.06,SSW,206,0.0,4.0,57,0.00,,---,0.04,VWS V14.01,2013-06-23 14:13:00,
2013-06-23 10:14:00,78.8,61.8,29.06,WNW,293,7.8,8.7,56,0.00,,---,0.04,VWS V14.01,2013-06-23 14:14:00,
2013-06-23 10:15:00,78.8,61.8,29.06,WSW,255,3.6,7.8,56,0.00,,---,0.04,VWS V14.01,2013-06-23 14:15:00,
2013-06-23 10:16:00,81.9,57.8,29.03,SE,129,0.0,4.5,44,0.00,,---,0.00,VWS V14.01,2013-06-23 14:16:00,
2013-06-23 10:17:00,78.4,61.5,29.06,West,261,4.5,11.0,56,0.00,,---,0.04,VWS V14.01,2013-06-23 14:17:00,
2013-06-23 10:18:00,78.3,61.8,29.06,West,262,4.9,10.5,57,0.00,,---,0.04,VWS V14.01,2013-06-23 14:18:00,
2013-06-23 10:19:00,78.3,62.3,29.06,WSW,255,6.3,6.3,58,0.00,,---,0.04,VWS V14.01,2013-06-23 14:19:00,
2013-06-23 10:20:00,78.4,62.9,29.06,WSW,254,5.8,8.3,59,0.00,,---,0.04,VWS V14.01,2013-06-23 14:20:00,
2013-06-23 10:21:00,82.8,58.0,29.03,ESE,107,3.1,6.7,43,0.00,,---,0.00,VWS V14.01,2013-06-23 14:21:00,
2013-06-23 10:22:00,78.4,62.5,29.06,West,271,3.6,6.7,58,0.00,,---,0.04,VWS V14.01,2013-06-23 14:22:00,
2013-06-23 10:23:00,78.4,62.9,29.06,West,279,4.0,6.3,59,0.00,,---,0.04,VWS V14.01,2013-06-23 14:23:00,
2013-06-23 10:24:00,78.4,62.5,29.06,NW,304,9.2,11.0,58,0.00,,---,0.04,VWS V14.01,2013-06-23 14:24:00,
2013-06-23 10:25:00,78.3,61.8,29.06,West,277,5.4,9.2,57,0.00,,---,0.04,VWS V14.01,2013-06-23 14:25:00,
2013-06-23 10:26:00,82.9,56.8,29.03,SSW,200,0.0,6.3,41,0.00,,---,0.00,VWS V14.01,2013-06-23 14:26:00,
2013-06-23 10:27:00,78.4,62.5,29.06,WNW,282,5.8,6.3,58,0.00,,---,0.04,VWS V14.01,2013-06-23 14:27:00,
2013-06-23 10:28:00,78.4,61.5,29.06,West,263,6.7,9.6,56,0.00,,---,0.04,VWS V14.01,2013-06-23 14:28:00,
2013-06-23 10:29:00,78.4,61.5,29.06,NW,323,7.4,9.2,56,0.00,,---,0.04,VWS V14.01,2013-06-23 14:29:00,
2013-06-23 10:30:00,78.4,61.0,29.06,WNW,284,4.9,9.2,55,0.00,,---,0.04,VWS V14.01,2013-06-23 14:30:00,
2013-06-23 10:31:00,83.5,56.6,29.03,SW,227,2.7,4.0,40,0.00,,---,0.00,VWS V14.01,2013-06-23 14:31:00,
2013-06-23 10:32:00,78.4,60.4,29.06,West,261,6.3,6.7,54,0.00,,---,0.04,VWS V14.01,2013-06-23 14:32:00,
2013-06-23 10:33:00,78.3,59.7,29.06,WSW,253,4.9,10.5,53,0.00,,---,0.04,VWS V14.01,2013-06-23 14:33:00,
2013-06-23 10:34:00,78.4,59.9,29.06,WNW,283,5.8,6.9,53,0.00,,---,0.04,VWS V14.01,2013-06-23 14:34:00,
2013-06-23 10:35:00,78.8,60.2,29.06,WSW,256,3.1,6.9,53,0.00,,---,0.04,VWS V14.01,2013-06-23 14:35:00,
2013-06-23 10:36:00,84.2,56.6,29.03,WSW,237,2.7,3.6,39,0.00,,---,0.00,VWS V14.01,2013-06-23 14:36:00,
2013-06-23 10:37:00,79.2,61.1,29.06,West,259,3.6,4.9,54,0.00,,---,0.04,VWS V14.01,2013-06-23 14:37:00,
2013-06-23 10:38:00,79.2,60.6,29.06,West,269,5.8,7.8,53,0.00,,---,0.04,VWS V14.01,2013-06-23 14:38:00,
2013-06-23 10:39:00,79.2,60.6,29.06,WNW,294,5.8,6.9,53,0.00,,---,0.04,VWS V14.01,2013-06-23 14:39:00,
2013-06-23 10:40:00,79.5,61.4,29.06,West,264,4.5,5.8,54,0.00,,---,0.04,VWS V14.01,2013-06-23 14:40:00,
2013-06-23 10:41:00,84.6,56.2,29.03,ESE,105,4.0,6.7,38,0.00,,---,0.00,VWS V14.01,2013-06-23 14:41:00,
2013-06-23 10:42:00,79.5,60.4,29.06,WNW,301,4.9,4.9,52,0.00,,---,0.04,VWS V14.01,2013-06-23 14:42:00,
2013-06-23 10:43:00,79.3,59.7,29.06,West,279,5.8,8.7,51,0.00,,---,0.04,VWS V14.01,2013-06-23 14:43:00,
2013-06-23 10:44:00,79.2,59.5,29.06,WSW,241,5.4,9.6,51,0.00,,---,0.04,VWS V14.01,2013-06-23 14:44:00,
2013-06-23 10:45:00,79.3,60.2,29.06,West,274,4.9,6.9,52,0.00,,---,0.04,VWS V14.01,2013-06-23 14:45:00,
2013-06-23 10:46:00,85.1,55.2,29.03,South,186,0.0,4.0,36,0.00,,---,0.00,VWS V14.01,2013-06-23 14:46:00,
2013-06-23 10:47:00,79.5,59.8,29.06,West,271,4.0,7.8,51,0.00,,---,0.04,VWS V14.01,2013-06-23 14:47:00,
2013-06-23 10:48:00,79.5,60.4,29.06,WNW,283,5.8,7.4,52,0.00,,---,0.04,VWS V14.01,2013-06-23 14:48:00,
2013-06-23 10:49:00,79.7,60.5,29.06,SW,224,8.3,10.5,52,0.00,,---,0.04,VWS V14.01,2013-06-23 14:49:00,
2013-06-23 10:50:00,79.7,60.5,29.06,WNW,283,6.7,8.7,52,0.00,,---,0.04,VWS V14.01,2013-06-23 14:50:00,
2013-06-23 10:51:00,79.5,60.4,29.06,West,273,4.5,8.7,52,0.00,,---,0.04,VWS V14.01,2013-06-23 14:51:00,
2013-06-23 10:52:00,86.0,52.7,29.03,SE,140,2.7,8.3,32,0.00,,---,0.00,VWS V14.01,2013-06-23 14:52:00,
2013-06-23 10:53:00,79.5,60.4,29.06,West,264,8.3,9.6,52,0.00,,---,0.04,VWS V14.01,2013-06-23 14:53:00,
2013-06-23 10:54:00,79.5,59.8,29.06,WNW,297,5.8,9.6,51,0.00,,---,0.04,VWS V14.01,2013-06-23 14:54:00,
2013-06-23 10:55:00,79.5,59.8,29.06,SW,228,3.6,7.4,51,0.00,,---,0.04,VWS V14.01,2013-06-23 14:55:00,
2013-06-23 10:56:00,79.5,60.4,29.06,WSW,256,4.5,7.8,52,0.00,,---,0.04,VWS V14.01,2013-06-23 14:56:00,
2013-06-23 10:57:00,86.9,55.2,29.03,NNE,24,2.7,4.0,34,0.00,,---,0.00,VWS V14.01,2013-06-23 14:57:00,
2013-06-23 10:58:00,80.1,60.9,29.06,WSW,255,2.7,3.1,52,0.00,,---,0.04,VWS V14.01,2013-06-23 14:58:00,
2013-06-23 10:59:00,80.1,58.6,29.06,West,281,8.7,8.7,48,0.00,,---,0.04,VWS V14.01,2013-06-23 14:59:00,
2013-06-23 11:00:00,80.1,58.0,29.06,West,268,8.7,10.1,47,0.00,,---,0.04,VWS V14.01,2013-06-23 15:00:00,
2013-06-23 11:01:00,80.1,57.4,29.06,NW,319,8.3,8.7,46,0.00,,---,0.04,VWS V14.01,2013-06-23 15:01:00,
2013-06-23 11:02:00,80.1,57.4,29.06,West,272,5.8,8.3,46,0.00,,---,0.04,VWS V14.01,2013-06-23 15:02:00,
2013-06-23 11:03:00,87.1,52.8,29.03,SE,140,3.6,4.0,31,0.00,,---,0.00,VWS V14.01,2013-06-23 15:03:00,
2013-06-23 11:04:00,80.4,57.8,29.06,SW,218,6.3,7.8,46,0.00,,---,0.04,VWS V14.01,2013-06-23 15:04:00,
2013-06-23 11:05:00,80.4,56.5,29.06,NW,304,5.8,10.5,44,0.00,,---,0.04,VWS V14.01,2013-06-23 15:05:00,
2013-06-23 11:06:00,80.4,56.5,29.06,WNW,296,8.3,13.0,44,0.00,,---,0.04,VWS V14.01,2013-06-23 15:06:00,
2013-06-23 11:07:00,80.4,56.5,29.06,West,264,7.4,10.1,44,0.00,,---,0.04,VWS V14.01,2013-06-23 15:07:00,
2013-06-23 11:08:00,87.3,52.1,29.03,ESE,121,0.0,6.9,30,0.00,,---,0.00,VWS V14.01,2013-06-23 15:08:00,
2013-06-23 11:09:00,81.0,57.0,29.06,NW,310,4.9,8.7,44,0.00,,---,0.04,VWS V14.01,2013-06-23 15:09:00,
2013-06-23 11:10:00,81.0,56.4,29.06,WNW,286,8.3,9.2,43,0.00,,---,0.04,VWS V14.01,2013-06-23 15:10:00,
2013-06-23 11:11:00,81.0,56.4,29.06,WNW,297,11.0,11.0,43,0.00,,---,0.04,VWS V14.01,2013-06-23 15:11:00,
2013-06-23 11:12:00,81.3,56.7,29.06,NW,305,6.9,11.0,43,0.00,,---,0.04,VWS V14.01,2013-06-23 15:12:00,
2013-06-23 11:13:00,81.5,56.2,29.06,West,270,8.7,13.4,42,0.00,,---,0.04,VWS V14.01,2013-06-23 15:13:00,
2013-06-23 11:14:00,87.1,51.9,29.00,WSW,240,0.0,5.8,30,0.00,,---,0.00,VWS V14.01,2013-06-23 15:14:00,
2013-06-23 11:15:00,82.0,56.7,29.06,WNW,284,5.8,6.7,42,0.00,,---,0.04,VWS V14.01,2013-06-23 15:15:00,
2013-06-23 11:16:00,82.0,56.0,29.06,WNW,282,6.3,9.2,41,0.00,,---,0.04,VWS V14.01,2013-06-23 15:16:00,
2013-06-23 11:17:00,82.0,56.0,29.06,WNW,284,5.8,8.3,41,0.00,,---,0.04,VWS V14.01,2013-06-23 15:17:00,
2013-06-23 11:18:00,82.0,55.4,29.06,West,276,6.7,10.1,40,0.00,,---,0.04,VWS V14.01,2013-06-23 15:18:00,
2013-06-23 11:19:00,87.3,51.2,29.00,West,262,4.0,5.4,29,0.00,,---,0.00,VWS V14.01,2013-06-23 15:19:00,
2013-06-23 11:20:00,82.0,55.4,29.06,NW,305,5.8,9.2,40,0.00,,---,0.04,VWS V14.01,2013-06-23 15:20:00,
2013-06-23 11:21:00,82.0,55.4,29.06,WNW,287,0.0,5.8,40,0.00,,---,0.04,VWS V14.01,2013-06-23 15:21:00,
2013-06-23 11:22:00,82.0,55.4,29.06,SW,217,3.6,4.9,40,0.00,,---,0.04,VWS V14.01,2013-06-23 15:22:00,
2013-06-23 11:23:00,82.4,57.0,29.06,WNW,302,0.0,3.6,42,0.00,,---,0.04,VWS V14.01,2013-06-23 15:23:00,
2013-06-23 11:24:00,87.3,52.1,29.00,WSW,237,4.9,6.9,30,0.00,,---,0.00,VWS V14.01,2013-06-23 15:24:00,
2013-06-23 11:25:00,82.4,57.0,29.06,WNW,291,3.6,4.5,42,0.00,,---,0.04,VWS V14.01,2013-06-23 15:25:00,
2013-06-23 11:26:00,82.4,57.0,29.06,WNW,299,4.9,5.8,42,0.00,,---,0.04,VWS V14.01,2013-06-23 15:26:00,
2013-06-23 11:27:00,82.2,56.2,29.06,NNW,343,4.9,6.7,41,0.00,,---,0.04,VWS V14.01,2013-06-23 15:27:00,
2013-06-23 11:28:00,82.2,56.2,29.06,WNW,297,6.7,6.7,41,0.00,,---,0.04,VWS V14.01,2013-06-23 15:28:00,
2013-06-23 11:29:00,88.3,53.0,29.03,SSW,198,2.7,4.5,30,0.00,,---,0.00,VWS V14.01,2013-06-23 15:29:00,
2013-06-23 11:30:00,81.7,55.7,29.06,WNW,287,4.9,6.9,41,0.00,,---,0.04,VWS V14.01,2013-06-23 15:30:00,
2013-06-23 11:31:00,81.7,55.7,29.06,NW,305,2.7,6.9,41,0.00,,---,0.04,VWS V14.01,2013-06-23 15:31:00,
2013-06-23 11:32:00,81.7,55.7,29.06,WNW,286,4.9,6.9,41,0.00,,---,0.04,VWS V14.01,2013-06-23 15:32:00,
2013-06-23 11:33:00,81.5,54.9,29.06,NNW,336,5.8,8.3,40,0.00,,---,0.04,VWS V14.01,2013-06-23 15:33:00,
2013-06-23 11:34:00,88.9,50.6,29.03,South,185,5.4,6.7,27,0.00,,---,0.00,VWS V14.01,2013-06-23 15:34:00,
2013-06-23 11:35:00,81.3,55.4,29.06,WNW,291,4.5,8.3,41,0.00,,---,0.04,VWS V14.01,2013-06-23 15:35:00,
2013-06-23 11:36:00,81.5,55.6,29.06,WSW,241,7.8,8.7,41,0.00,,---,0.04,VWS V14.01,2013-06-23 15:36:00,
2013-06-23 11:37:00,81.5,54.9,29.06,SW,223,5.4,9.2,40,0.00,,---,0.04,VWS V14.01,2013-06-23 15:37:00,
2013-06-23 11:38:00,81.5,54.9,29.06,WNW,289,5.4,10.5,40,0.00,,---,0.04,VWS V14.01,2013-06-23 15:38:00,
2013-06-23 11:39:00,89.4,52.1,29.03,SW,214,3.6,5.4,28,0.00,,---,0.00,VWS V14.01,2013-06-23 15:39:00,
2013-06-23 11:40:00,81.7,55.0,29.06,West,278,3.6,6.7,40,0.00,,---,0.04,VWS V14.01,2013-06-23 15:40:00,
2013-06-23 11:41:00,81.9,55.9,29.06,NW,326,0.0,4.5,41,0.00,,---,0.04,VWS V14.01,2013-06-23 15:41:00,
2013-06-23 11:42:00,82.0,56.0,29.06,WNW,286,3.1,4.9,41,0.00,,---,0.04,VWS V14.01,2013-06-23 15:42:00,
2013-06-23 11:43:00,81.7,52.9,29.06,NW,316,4.5,8.3,37,0.00,,---,0.04,VWS V14.01,2013-06-23 15:43:00,
2013-06-23 11:44:00,88.3,51.1,29.03,WSW,239,0.0,7.4,28,0.00,,---,0.00,VWS V14.01,2013-06-23 15:44:00,
2013-06-23 11:45:00,82.0,54.7,29.06,WNW,303,0.0,5.4,39,0.00,,---,0.04,VWS V14.01,2013-06-23 15:45:00,
2013-06-23 11:46:00,82.4,55.7,29.06,West,261,3.6,4.9,40,0.00,,---,0.04,VWS V14.01,2013-06-23 15:46:00,
2013-06-23 11:47:00,82.6,55.1,29.06,WSW,241,2.7,7.4,39,0.00,,---,0.04,VWS V14.01,2013-06-23 15:47:00,
2013-06-23 11:48:00,83.1,56.3,29.06,WSW,241,0.0,2.7,40,0.00,,---,0.04,VWS V14.01,2013-06-23 15:48:00,
2013-06-23 11:49:00,88.9,51.6,29.03,SW,230,3.1,5.4,28,0.00,,---,0.00,VWS V14.01,2013-06-23 15:49:00,
2013-06-23 11:50:00,82.9,54.0,29.06,South,175,2.7,6.7,37,0.00,,---,0.04,VWS V14.01,2013-06-23 15:50:00,
2013-06-23 11:51:00,82.9,53.3,29.06,NW,313,5.8,5.8,36,0.00,,---,0.04,VWS V14.01,2013-06-23 15:51:00,
2013-06-23 11:52:00,82.9,54.0,29.06,NW,317,4.0,5.8,37,0.00,,---,0.04,VWS V14.01,2013-06-23 15:52:00,
2013-06-23 11:53:00,82.4,52.0,29.06,West,280,4.0,7.8,35,0.00,,---,0.04,VWS V14.01,2013-06-23 15:53:00,
2013-06-23 11:54:00,82.6,53.0,29.06,WNW,282,4.5,5.4,36,0.00,,---,0.04,VWS V14.01,2013-06-23 15:54:00,
2013-06-23 11:55:00,88.3,51.1,29.03,WSW,240,5.4,9.2,28,0.00,,---,0.00,VWS V14.01,2013-06-23 15:55:00,
2013-06-23 11:56:00,82.6,54.4,29.06,West,269,5.8,6.3,38,0.00,,---,0.04,VWS V14.01,2013-06-23 15:56:00,
2013-06-23 11:57:00,82.6,53.7,29.06,West,277,7.8,7.8,37,0.00,,---,0.04,VWS V14.01,2013-06-23 15:57:00,
2013-06-23 11:58:00,82.0,51.7,29.06,West,273,4.9,8.7,35,0.00,,---,0.04,VWS V14.01,2013-06-23 15:58:00,
2013-06-23 11:59:00,82.0,51.7,29.06,West,276,3.6,6.3,35,0.00,,---,0.04,VWS V14.01,2013-06-23 15:59:00,
2013-06-23 12:00:00,82.2,52.6,29.06,WNW,300,4.5,4.5,36,0.00,,---,0.04,VWS V14.01,2013-06-23 16:00:00,
2013-06-23 12:01:00,89.6,51.2,29.03,SW,226,0.0,5.4,27,0.00,,---,0.00,VWS V14.01,2013-06-23 16:01:00,
2013-06-23 12:02:00,82.0,51.7,29.06,West,271,3.1,7.8,35,0.00,,---,0.04,VWS V14.01,2013-06-23 16:02:00,
2013-06-23 12:03:00,82.0,52.5,29.06,WNW,299,4.0,7.4,36,0.00,,---,0.04,VWS V14.01,2013-06-23 16:03:00,
2013-06-23 12:04:00,82.4,53.5,29.06,West,280,4.0,4.5,37,0.00,,---,0.04,VWS V14.01,2013-06-23 16:04:00,
2013-06-23 12:05:00,82.6,53.7,29.06,WSW,238,4.0,6.3,37,0.00,,---,0.04,VWS V14.01,2013-06-23 16:05:00,
2013-06-23 12:06:00,82.9,52.5,29.06,WSW,254,2.7,5.8,35,0.00,,---,0.04,VWS V14.01,2013-06-23 16:06:00,
2013-06-23 12:07:00,88.9,51.6,29.03,WSW,248,0.0,9.2,28,0.00,,---,0.00,VWS V14.01,2013-06-23 16:07:00,
2013-06-23 12:08:00,82.9,50.9,29.06,SSW,198,6.7,8.7,33,0.00,,---,0.04,VWS V14.01,2013-06-23 16:08:00,
2013-06-23 12:09:00,83.1,51.9,29.06,SW,235,4.5,6.7,34,0.00,,---,0.04,VWS V14.01,2013-06-23 16:09:00,
2013-06-23 12:10:00,83.5,51.4,29.06,West,261,3.6,4.5,33,0.00,,---,0.04,VWS V14.01,2013-06-23 16:10:00,
2013-06-23 12:11:00,83.8,51.7,29.06,WSW,252,4.9,6.3,33,0.00,,---,0.04,VWS V14.01,2013-06-23 16:11:00,
2013-06-23 12:12:00,89.4,51.1,29.03,SW,234,4.9,8.3,27,0.00,,---,0.00,VWS V14.01,2013-06-23 16:12:00,
2013-06-23 12:13:00,83.8,50.0,29.06,WSW,257,5.4,8.3,31,0.00,,---,0.04,VWS V14.01,2013-06-23 16:13:00,
2013-06-23 12:14:00,83.7,49.0,29.06,WNW,303,5.4,9.2,30,0.00,,---,0.04,VWS V14.01,2013-06-23 16:14:00,
2013-06-23 12:15:00,83.8,50.9,29.06,WSW,243,8.3,8.3,32,0.00,,---,0.04,VWS V14.01,2013-06-23 16:15:00,
2013-06-23 12:16:00,83.5,48.8,29.06,WNW,282,5.8,8.7,30,0.00,,---,0.04,VWS V14.01,2013-06-23 16:16:00,
2013-06-23 12:17:00,89.4,51.1,29.03,WNW,287,6.3,8.7,27,0.00,,---,0.00,VWS V14.01,2013-06-23 16:17:00,
2013-06-23 12:18:00,83.7,49.8,29.06,WSW,242,6.3,9.2,31,0.00,,---,0.04,VWS V14.01,2013-06-23 16:18:00,
2013-06-23 12:19:00,83.7,50.7,29.06,NW,318,5.8,9.2,32,0.00,,---,0.04,VWS V14.01,2013-06-23 16:19:00,
2013-06-23 12:20:00,83.5,48.8,29.06,WNW,292,6.9,8.3,30,0.00,,---,0.04,VWS V14.01,2013-06-23 16:20:00,
2013-06-23 12:21:00,83.5,49.7,29.06,West,261,6.9,6.9,31,0.00,,---,0.04,VWS V14.01,2013-06-23 16:21:00,
2013-06-23 12:22:00,90.9,52.3,29.03,WSW,250,0.0,6.9,27,0.00,,---,0.00,VWS V14.01,2013-06-23 16:22:00,
2013-06-23 12:23:00,83.8,49.1,29.06,WNW,283,5.8,6.7,30,0.00,,---,0.04,VWS V14.01,2013-06-23 16:23:00,
2013-06-23 12:24:00,84.0,50.2,29.06,WNW,282,3.1,5.8,31,0.00,,---,0.04,VWS V14.01,2013-06-23 16:24:00,
2013-06-23 12:25:00,84.2,52.0,29.06,WNW,291,4.0,4.5,33,0.00,,---,0.04,VWS V14.01,2013-06-23 16:25:00,
2013-06-23 12:26:00,84.4,50.5,29.06,North,356,3.1,5.8,31,0.00,,---,0.04,VWS V14.01,2013-06-23 16:26:00,
2013-06-23 12:27:00,91.2,51.6,29.03,SSW,202,6.7,9.2,26,0.00,,---,0.00,VWS V14.01,2013-06-23 16:27:00,
2013-06-23 12:28:00,85.3,52.1,29.06,NNW,328,0.0,0.0,32,0.00,,---,0.04,VWS V14.01,2013-06-23 16:28:00,
2013-06-23 12:29:00,85.5,51.4,29.06,NW,310,0.0,2.7,31,0.00,,---,0.04,VWS V14.01,2013-06-23 16:29:00,
2013-06-23 12:30:00,85.3,50.4,29.06,WNW,292,0.0,5.8,30,0.00,,---,0.04,VWS V14.01,2013-06-23 16:30:00,
2013-06-23 12:31:00,85.5,50.5,29.06,WNW,292,4.5,5.4,30,0.00,,---,0.04,VWS V14.01,2013-06-23 16:31:00,
2013-06-23 12:32:00,91.2,49.4,29.03,SE,129,4.0,5.4,24,0.00,,---,0.00,VWS V14.01,2013-06-23 16:32:00,
2013-06-23 12:33:00,85.5,50.5,29.06,West,272,3.6,6.3,30,0.00,,---,0.04,VWS V14.01,2013-06-23 16:33:00,
2013-06-23 12:34:00,85.8,52.6,29.06,West,272,0.0,3.6,32,0.00,,---,0.04,VWS V14.01,2013-06-23 16:34:00,
2013-06-23 12:35:00,86.4,52.2,29.06,West,272,0.0,0.0,31,0.00,,---,0.04,VWS V14.01,2013-06-23 16:35:00,
2013-06-23 12:36:00,86.5,50.5,29.06,SSW,209,4.9,4.9,29,0.00,,---,0.04,VWS V14.01,2013-06-23 16:36:00,
2013-06-23 12:37:00,91.9,51.1,29.03,SW,220,4.0,5.8,25,0.00,,---,0.00,VWS V14.01,2013-06-23 16:37:00,
2013-06-23 12:38:00,87.1,50.1,29.06,West,277,5.4,6.7,28,0.00,,---,0.04,VWS V14.01,2013-06-23 16:38:00,
2013-06-23 12:39:00,86.9,46.9,29.06,NW,307,4.9,8.7,25,0.00,,---,0.04,VWS V14.01,2013-06-23 16:39:00,
2013-06-23 12:40:00,86.9,48.9,29.06,NW,305,0.0,4.9,27,0.00,,---,0.04,VWS V14.01,2013-06-23 16:40:00,
2013-06-23 12:41:00,87.1,48.1,29.06,NW,305,0.0,4.0,26,0.00,,---,0.04,VWS V14.01,2013-06-23 16:41:00,
2013-06-23 12:42:00,91.9,48.9,29.03,SW,227,6.3,7.8,23,0.00,,---,0.00,VWS V14.01,2013-06-23 16:42:00,
2013-06-23 12:43:00,87.1,48.1,29.06,West,280,6.3,6.9,26,0.00,,---,0.04,VWS V14.01,2013-06-23 16:43:00,
2013-06-23 12:44:00,87.3,49.2,29.06,West,278,3.1,6.3,27,0.00,,---,0.04,VWS V14.01,2013-06-23 16:44:00,
2013-06-23 12:45:00,87.3,50.2,29.06,NNW,340,4.5,6.7,28,0.00,,---,0.04,VWS V14.01,2013-06-23 16:45:00,
2013-06-23 12:46:00,87.3,50.2,29.06,NW,316,3.6,6.7,28,0.00,,---,0.04,VWS V14.01,2013-06-23 16:46:00,
2013-06-23 12:47:00,91.6,47.4,29.03,South,186,3.6,5.4,22,0.00,,---,0.00,VWS V14.01,2013-06-23 16:47:00,
2013-06-23 12:48:00,87.4,50.4,29.06,WNW,301,3.6,4.5,28,0.00,,---,0.04,VWS V14.01,2013-06-23 16:48:00,
2013-06-23 12:49:00,87.6,50.5,29.06,West,265,0.0,4.5,28,0.00,,---,0.04,VWS V14.01,2013-06-23 16:49:00,
2013-06-23 12:50:00,87.6,50.5,29.06,NW,318,4.0,5.4,28,0.00,,---,0.04,VWS V14.01,2013-06-23 16:50:00,
2013-06-23 12:51:00,87.8,50.7,29.06,NW,318,0.0,4.0,28,0.00,,---,0.04,VWS V14.01,2013-06-23 16:51:00,
2013-06-23 12:52:00,87.6,49.5,29.06,NW,326,4.9,5.4,27,0.00,,---,0.04,VWS V14.01,2013-06-23 16:52:00,
2013-06-23 12:53:00,91.8,49.9,29.03,SSW,197,4.5,6.7,24,0.00,,---,0.00,VWS V14.01,2013-06-23 16:53:00,
2013-06-23 12:54:00,87.8,50.7,29.06,NW,318,5.4,6.7,28,0.00,,---,0.04,VWS V14.01,2013-06-23 16:54:00,
2013-06-23 12:55:00,87.6,50.5,29.06,West,277,6.9,8.3,28,0.00,,---,0.04,VWS V14.01,2013-06-23 16:55:00,
2013-06-23 12:56:00,87.3,49.2,29.06,WSW,256,6.7,7.4,27,0.00,,---,0.04,VWS V14.01,2013-06-23 16:56:00,
2013-06-23 12:57:00,87.4,47.3,29.06,West,261,3.6,6.7,25,0.00,,---,0.04,VWS V14.01,2013-06-23 16:57:00,
2013-06-23 12:58:00,87.4,48.4,29.06,West,265,6.7,7.4,26,0.00,,---,0.04,VWS V14.01,2013-06-23 16:58:00,
2013-06-23 12:59:00,87.6,49.5,29.06,SSE,163,4.5,6.7,27,0.00,,---,0.04,VWS V14.01,2013-06-23 16:59:00,
2013-06-23 13:00:00,87.4,47.3,29.06,West,281,6.3,7.4,25,0.00,,---,0.04,VWS V14.01,2013-06-23 17:00:00,
2013-06-23 13:01:00,87.4,50.4,29.06,West,271,3.6,6.3,28,0.00,,---,0.04,VWS V14.01,2013-06-23 17:01:00,
2013-06-23 13:02:00,87.3,50.2,29.06,West,281,5.8,6.7,28,0.00,,---,0.04,VWS V14.01,2013-06-23 17:02:00,
2013-06-23 13:03:00,87.1,49.1,29.06,WSW,252,4.5,8.7,27,0.00,,---,0.04,VWS V14.01,2013-06-23 17:03:00,
2013-06-23 13:04:00,87.3,49.2,29.06,West,263,3.1,6.9,27,0.00,,---,0.04,VWS V14.01,2013-06-23 17:04:00,
2013-06-23 13:05:00,87.6,50.5,29.06,West,264,0.0,4.9,28,0.00,,---,0.04,VWS V14.01,2013-06-23 17:05:00,
2013-06-23 13:06:00,87.4,50.4,29.06,West,269,6.3,6.3,28,0.00,,---,0.04,VWS V14.01,2013-06-23 17:06:00,
2013-06-23 13:07:00,87.4,49.4,29.06,SW,218,5.4,6.9,27,0.00,,---,0.04,VWS V14.01,2013-06-23 17:07:00,
2013-06-23 13:08:00,87.8,49.7,29.06,WSW,246,3.6,5.4,27,0.00,,---,0.04,VWS V14.01,2013-06-23 17:08:00,
2013-06-23 13:09:00,88.2,49.0,29.06,West,266,6.3,7.4,26,0.00,,---,0.04,VWS V14.01,2013-06-23 17:09:00,
2013-06-23 13:10:00,87.6,47.5,29.06,WSW,249,3.6,8.3,25,0.00,,---,0.04,VWS V14.01,2013-06-23 17:10:00,
2013-06-23 13:11:00,88.2,47.9,29.06,WSW,248,0.0,4.9,25,0.00,,---,0.04,VWS V14.01,2013-06-23 17:11:00,
2013-06-23 13:12:00,88.5,49.3,29.06,WSW,248,4.5,4.5,26,0.00,,---,0.04,VWS V14.01,2013-06-23 17:12:00,
2013-06-23 13:13:00,88.9,48.5,29.06,SSW,208,4.0,6.3,25,0.00,,---,0.04,VWS V14.01,2013-06-23 17:13:00,
2013-06-23 13:14:00,89.1,48.7,29.06,WSW,250,3.1,4.5,25,0.00,,---,0.04,VWS V14.01,2013-06-23 17:14:00,
2013-06-23 13:15:00,89.2,48.8,29.06,WNW,295,6.7,8.7,25,0.00,,---,0.04,VWS V14.01,2013-06-23 17:15:00,
2013-06-23 13:16:00,88.9,46.3,29.06,West,273,2.7,6.7,23,0.00,,---,0.04,VWS V14.01,2013-06-23 17:16:00,
2013-06-23 13:17:00,88.2,44.6,29.06,WNW,290,4.9,8.3,22,0.00,,---,0.04,VWS V14.01,2013-06-23 17:17:00,
2013-06-23 13:18:00,88.2,45.7,29.06,WSW,257,4.5,5.4,23,0.00,,---,0.04,VWS V14.01,2013-06-23 17:18:00,
2013-06-23 13:19:00,88.2,46.9,29.06,West,262,2.7,4.5,24,0.00,,---,0.04,VWS V14.01,2013-06-23 17:19:00,
2013-06-23 13:20:00,88.5,47.2,29.06,WSW,253,3.1,4.0,24,0.00,,---,0.04,VWS V14.01,2013-06-23 17:20:00,
2013-06-23 13:21:00,88.5,44.9,29.06,WSW,253,0.0,3.1,22,0.00,,---,0.04,VWS V14.01,2013-06-23 17:21:00,
2013-06-23 13:22:00,89.2,45.5,29.06,WSW,253,0.0,0.0,22,0.00,,---,0.04,VWS V14.01,2013-06-23 17:22:00,
2013-06-23 13:23:00,89.4,44.4,29.06,NW,305,4.5,4.5,21,0.00,,---,0.04,VWS V14.01,2013-06-23 17:23:00,
2013-06-23 13:24:00,89.1,47.6,29.06,NW,318,4.0,5.8,24,0.00,,---,0.04,VWS V14.01,2013-06-23 17:24:00,
2013-06-23 13:25:00,88.9,48.5,29.06,WNW,289,4.5,4.9,25,0.00,,---,0.04,VWS V14.01,2013-06-23 17:25:00,
2013-06-23 13:26:00,88.9,48.5,29.06,West,274,3.6,4.5,25,0.00,,---,0.04,VWS V14.01,2013-06-23 17:26:00,
2013-06-23 13:27:00,89.2,48.8,29.06,WNW,293,4.5,4.5,25,0.00,,---,0.04,VWS V14.01,2013-06-23 17:27:00,
2013-06-23 13:28:00,89.2,46.6,29.06,West,272,4.5,8.7,23,0.00,,---,0.04,VWS V14.01,2013-06-23 17:28:00,
2013-06-23 13:29:00,88.7,47.3,29.06,West,265,4.5,7.4,24,0.00,,---,0.04,VWS V14.01,2013-06-23 17:29:00,
2013-06-23 13:30:00,88.7,47.3,29.06,SSW,212,4.0,8.3,24,0.00,,---,0.04,VWS V14.01,2013-06-23 17:30:00,
2013-06-23 13:31:00,89.1,46.5,29.06,NW,309,4.5,6.7,23,0.00,,---,0.04,VWS V14.01,2013-06-23 17:31:00,
2013-06-23 13:32:00,88.9,45.2,29.06,WSW,255,4.9,6.3,22,0.00,,---,0.04,VWS V14.01,2013-06-23 17:32:00,
2013-06-23 13:33:00,89.2,45.5,29.06,WSW,247,0.0,5.4,22,0.00,,---,0.04,VWS V14.01,2013-06-23 17:33:00,
2013-06-23 13:34:00,89.4,46.8,29.06,South,189,0.0,4.9,23,0.00,,---,0.04,VWS V14.01,2013-06-23 17:34:00,
2013-06-23 13:35:00,89.6,45.8,29.06,SE,125,2.7,4.5,22,0.00,,---,0.04,VWS V14.01,2013-06-23 17:35:00,
2013-06-23 13:36:00,89.6,44.5,29.06,West,278,3.1,4.5,21,0.00,,---,0.04,VWS V14.01,2013-06-23 17:36:00,
2013-06-23 13:37:00,89.8,47.1,29.06,West,279,2.7,4.5,23,0.00,,---,0.04,VWS V14.01,2013-06-23 17:37:00,
2013-06-23 13:38:00,89.8,45.9,29.06,SW,231,4.0,4.5,22,0.00,,---,0.04,VWS V14.01,2013-06-23 17:38:00,
2013-06-23 13:39:00,88.9,43.9,29.06,West,268,5.8,8.3,21,0.00,,---,0.04,VWS V14.01,2013-06-23 17:39:00,
2013-06-23 13:40:00,88.3,44.7,29.06,West,270,4.9,6.7,22,0.00,,---,0.04,VWS V14.01,2013-06-23 17:40:00,
2013-06-23 13:41:00,88.2,47.9,29.06,NW,317,0.0,5.4,25,0.00,,---,0.04,VWS V14.01,2013-06-23 17:41:00,
2013-06-23 13:42:00,88.0,46.7,29.03,NW,306,4.9,5.8,24,0.00,,---,0.04,VWS V14.01,2013-06-23 17:42:00,
2013-06-23 13:43:00,88.0,45.6,29.03,West,270,5.4,5.8,23,0.00,,---,0.04,VWS V14.01,2013-06-23 17:43:00,
2013-06-23 13:44:00,87.8,45.4,29.03,WSW,251,0.0,5.4,23,0.00,,---,0.04,VWS V14.01,2013-06-23 17:44:00,
2013-06-23 13:45:00,88.2,44.6,29.03,WSW,251,0.0,3.6,22,0.00,,---,0.04,VWS V14.01,2013-06-23 17:45:00,
2013-06-23 13:46:00,88.5,44.9,29.03,WSW,250,2.7,2.7,22,0.00,,---,0.04,VWS V14.01,2013-06-23 17:46:00,
2013-06-23 13:47:00,88.7,43.8,29.03,WSW,252,0.0,5.4,21,0.00,,---,0.04,VWS V14.01,2013-06-23 17:47:00,
2013-06-23 13:48:00,89.2,45.5,29.03,WSW,252,0.0,0.0,22,0.00,,---,0.04,VWS V14.01,2013-06-23 17:48:00,
2013-06-23 13:49:00,89.4,45.6,29.03,WSW,252,0.0,0.0,22,0.00,,---,0.04,VWS V14.01,2013-06-23 17:49:00,
2013-06-23 13:50:00,89.8,48.2,29.03,WSW,251,0.0,0.0,24,0.00,,---,0.04,VWS V14.01,2013-06-23 17:50:00,
2013-06-23 13:51:00,90.0,46.1,29.03,WSW,250,0.0,4.0,22,0.00,,---,0.04,VWS V14.01,2013-06-23 17:51:00,
2013-06-23 13:52:00,90.3,45.1,29.03,WSW,250,0.0,3.1,21,0.00,,---,0.04,VWS V14.01,2013-06-23 17:52:00,
2013-06-23 13:53:00,90.5,45.3,29.03,WSW,254,4.0,4.0,21,0.00,,---,0.04,VWS V14.01,2013-06-23 17:53:00,
2013-06-23 13:54:00,90.5,45.3,29.03,WSW,258,3.1,5.8,21,0.00,,---,0.04,VWS V14.01,2013-06-23 17:54:00,
2013-06-23 13:55:00,90.7,44.1,29.03,WNW,287,5.4,5.4,20,0.00,,---,0.04,VWS V14.01,2013-06-23 17:55:00,
2013-06-23 13:56:00,90.3,43.8,29.03,WNW,285,2.7,5.4,20,0.00,,---,0.04,VWS V14.01,2013-06-23 17:56:00,
2013-06-23 13:57:00,89.1,42.8,29.03,NW,307,7.4,7.8,20,0.00,,---,0.04,VWS V14.01,2013-06-23 17:57:00,
2013-06-23 13:58:00,88.5,44.9,29.03,West,271,5.4,7.4,22,0.00,,---,0.04,VWS V14.01,2013-06-23 17:58:00,
2013-06-23 13:59:00,87.8,44.3,29.03,NW,314,4.5,7.4,22,0.00,,---,0.04,VWS V14.01,2013-06-23 17:59:00,
2013-06-23 14:00:00,87.6,45.3,29.03,West,272,4.5,4.9,23,0.00,,---,0.04,VWS V14.01,2013-06-23 18:00:00,
2013-06-23 14:01:00,87.6,47.5,29.03,West,272,3.6,4.5,25,0.00,,---,0.04,VWS V14.01,2013-06-23 18:01:00,
2013-06-23 14:02:00,87.6,47.5,29.03,West,272,0.0,3.6,25,0.00,,---,0.04,VWS V14.01,2013-06-23 18:02:00,
2013-06-23 14:03:00,87.6,47.5,29.03,WNW,282,5.4,6.7,25,0.00,,---,0.04,VWS V14.01,2013-06-23 18:03:00,
2013-06-23 14:04:00,87.8,49.7,29.03,NW,321,5.4,6.3,27,0.00,,---,0.04,VWS V14.01,2013-06-23 18:04:00,
2013-06-23 14:05:00,87.8,47.6,29.03,South,191,0.0,5.4,25,0.00,,---,0.04,VWS V14.01,2013-06-23 18:05:00,
2013-06-23 14:06:00,87.8,48.7,29.03,West,274,6.7,6.7,26,0.00,,---,0.04,VWS V14.01,2013-06-23 18:06:00,
2013-06-23 14:07:00,87.6,45.3,29.03,NW,308,4.9,6.7,23,0.00,,---,0.04,VWS V14.01,2013-06-23 18:07:00,
2013-06-23 14:08:00,87.8,45.4,29.03,NW,307,0.0,4.9,23,0.00,,---,0.04,VWS V14.01,2013-06-23 18:08:00,
2013-06-23 14:09:00,88.2,46.9,29.03,WSW,245,4.0,4.0,24,0.00,,---,0.04,VWS V14.01,2013-06-23 18:09:00,
2013-06-23 14:10:00,88.7,47.3,29.03,West,264,0.0,4.0,24,0.00,,---,0.04,VWS V14.01,2013-06-23 18:10:00,
2013-06-23 14:11:00,89.1,47.6,29.03,West,263,2.7,3.1,24,0.00,,---,0.04,VWS V14.01,2013-06-23 18:11:00,
2013-06-23 14:12:00,89.2,46.6,29.03,WSW,241,5.8,6.7,23,0.00,,---,0.04,VWS V14.01,2013-06-23 18:12:00,
2013-06-23 14:13:00,89.4,45.6,29.03,SSW,205,2.7,5.8,22,0.00,,---,0.04,VWS V14.01,2013-06-23 18:13:00,
2013-06-23 14:14:00,89.6,45.8,29.03,West,280,4.0,5.4,22,0.00,,---,0.04,VWS V14.01,2013-06-23 18:14:00,
2013-06-23 14:15:00,90.1,46.2,29.03,SW,217,0.0,4.5,22,0.00,,---,0.04,VWS V14.01,2013-06-23 18:15:00,
2013-06-23 14:16:00,90.3,43.8,29.03,WNW,284,0.0,4.9,20,0.00,,---,0.04,VWS V14.01,2013-06-23 18:16:00,
2013-06-23 14:17:00,90.7,42.8,29.03,West,266,5.4,5.4,19,0.00,,---,0.04,VWS V14.01,2013-06-23 18:17:00,
2013-06-23 14:18:00,90.5,44.0,29.03,WNW,293,4.5,5.4,20,0.00,,---,0.04,VWS V14.01,2013-06-23 18:18:00,
2013-06-23 14:19:00,90.5,44.0,29.03,West,264,6.7,6.9,20,0.00,,---,0.04,VWS V14.01,2013-06-23 18:19:00,
2013-06-23 14:20:00,90.1,42.4,29.03,WNW,300,5.4,7.4,19,0.00,,---,0.04,VWS V14.01,2013-06-23 18:20:00,
2013-06-23 14:21:00,89.8,43.4,29.03,NW,324,4.5,5.8,20,0.00,,---,0.04,VWS V14.01,2013-06-23 18:21:00,
2013-06-23 14:22:00,90.0,46.1,29.03,WNW,302,3.6,4.5,22,0.00,,---,0.04,VWS V14.01,2013-06-23 18:22:00,
2013-06-23 14:23:00,90.1,43.7,29.03,NW,304,0.0,3.6,20,0.00,,---,0.04,VWS V14.01,2013-06-23 18:23:00,
2013-06-23 14:24:00,90.5,47.7,29.03,NW,305,0.0,0.0,23,0.00,,---,0.04,VWS V14.01,2013-06-23 18:24:00,
2013-06-23 14:25:00,90.7,44.1,29.03,West,277,0.0,0.0,20,0.00,,---,0.04,VWS V14.01,2013-06-23 18:25:00,
2013-06-23 14:26:00,91.0,43.1,29.03,WSW,253,3.1,4.9,19,0.00,,---,0.04,VWS V14.01,2013-06-23 18:26:00,
2013-06-23 14:27:00,91.6,46.2,29.03,WNW,290,6.3,8.3,21,0.00,,---,0.00,VWS V14.01,2013-06-23 18:27:00,
2013-06-23 14:28:00,91.8,45.0,29.00,WSW,254,0.0,0.0,20,0.00,,---,0.04,VWS V14.01,2013-06-23 18:28:00,
2013-06-23 14:29:00,92.3,44.1,29.00,West,265,2.7,5.4,19,0.00,,---,0.04,VWS V14.01,2013-06-23 18:29:00,
2013-06-23 14:30:00,92.3,45.5,29.00,WSW,257,0.0,3.6,20,0.00,,---,0.04,VWS V14.01,2013-06-23 18:30:00,
2013-06-23 14:31:00,91.8,43.7,29.00,West,262,5.8,7.8,19,0.00,,---,0.04,VWS V14.01,2013-06-23 18:31:00,
2013-06-23 14:32:00,91.8,42.3,29.00,SW,231,4.5,5.8,18,0.00,,---,0.04,VWS V14.01,2013-06-23 18:32:00,
2013-06-23 14:33:00,92.5,45.6,29.03,WSW,258,5.4,9.6,20,0.00,,---,0.00,VWS V14.01,2013-06-23 18:33:00,
2013-06-23 14:34:00,92.1,44.0,29.00,West,266,0.0,4.0,19,0.00,,---,0.04,VWS V14.01,2013-06-23 18:34:00,
2013-06-23 14:35:00,92.3,44.1,29.00,West,261,3.1,6.7,19,0.00,,---,0.04,VWS V14.01,2013-06-23 18:35:00,
2013-06-23 14:36:00,92.5,44.3,29.00,West,261,2.7,3.1,19,0.00,,---,0.04,VWS V14.01,2013-06-23 18:36:00,
2013-06-23 14:37:00,92.7,44.4,29.00,West,261,0.0,3.1,19,0.00,,---,0.04,VWS V14.01,2013-06-23 18:37:00,
2013-06-23 14:38:00,92.8,44.6,29.03,NW,307,6.7,9.2,19,0.00,,---,0.00,VWS V14.01,2013-06-23 18:38:00,
2013-06-23 14:39:00,92.8,43.2,29.00,WSW,246,3.6,4.0,18,0.00,,---,0.04,VWS V14.01,2013-06-23 18:39:00,
2013-06-23 14:40:00,93.0,43.3,29.00,West,264,4.5,5.8,18,0.00,,---,0.04,VWS V14.01,2013-06-23 18:40:00,
2013-06-23 14:41:00,92.7,43.0,29.00,SW,229,2.7,5.4,18,0.00,,---,0.04,VWS V14.01,2013-06-23 18:41:00,
2013-06-23 14:42:00,91.9,42.4,29.00,West,271,6.9,9.6,18,0.00,,---,0.04,VWS V14.01,2013-06-23 18:42:00,
2013-06-23 14:43:00,91.9,45.2,29.03,West,265,7.8,9.6,20,0.00,,---,0.00,VWS V14.01,2013-06-23 18:43:00,
2013-06-23 14:44:00,90.9,43.0,29.00,SW,226,3.1,6.7,19,0.00,,---,0.04,VWS V14.01,2013-06-23 18:44:00,
2013-06-23 14:45:00,91.0,44.4,29.00,SW,226,0.0,3.6,20,0.00,,---,0.04,VWS V14.01,2013-06-23 18:45:00,
2013-06-23 14:46:00,91.4,44.7,29.00,WSW,238,2.7,4.9,20,0.00,,---,0.04,VWS V14.01,2013-06-23 18:46:00,
2013-06-23 14:47:00,91.2,43.2,29.00,WSW,255,4.5,8.3,19,0.00,,---,0.04,VWS V14.01,2013-06-23 18:47:00,
2013-06-23 14:48:00,92.8,45.9,29.03,SE,134,3.1,7.8,20,0.00,,---,0.00,VWS V14.01,2013-06-23 18:48:00,
2013-06-23 14:49:00,90.1,43.7,29.00,WNW,284,6.3,6.3,20,0.00,,---,0.04,VWS V14.01,2013-06-23 18:49:00,
2013-06-23 14:50:00,89.6,43.3,29.00,WSW,256,4.0,7.4,20,0.00,,---,0.04,VWS V14.01,2013-06-23 18:50:00,
2013-06-23 14:51:00,90.0,46.1,29.00,South,174,7.4,7.4,22,0.00,,---,0.04,VWS V14.01,2013-06-23 18:51:00,
2013-06-23 14:52:00,90.1,46.2,29.00,WNW,299,10.1,10.1,22,0.00,,---,0.04,VWS V14.01,2013-06-23 18:52:00,
2013-06-23 14:53:00,93.0,43.3,29.03,WSW,256,10.5,11.6,18,0.00,,---,0.00,VWS V14.01,2013-06-23 18:53:00,
2013-06-23 14:54:00,90.1,45.0,29.00,SE,136,3.6,4.0,21,0.00,,---,0.04,VWS V14.01,2013-06-23 18:54:00,
2013-06-23 14:55:00,90.5,44.0,29.00,SE,138,0.0,3.6,20,0.00,,---,0.04,VWS V14.01,2013-06-23 18:55:00,
2013-06-23 14:56:00,90.9,44.3,29.00,WSW,237,4.9,4.9,20,0.00,,---,0.04,VWS V14.01,2013-06-23 18:56:00,
2013-06-23 14:57:00,91.4,44.7,29.00,WSW,239,2.7,4.9,20,0.00,,---,0.04,VWS V14.01,2013-06-23 18:57:00,
2013-06-23 14:58:00,91.8,45.0,29.03,NW,311,9.2,9.2,20,0.00,,---,0.00,VWS V14.01,2013-06-23 18:58:00,
2013-06-23 14:59:00,92.1,44.0,29.00,SW,223,0.0,5.4,19,0.00,,---,0.04,VWS V14.01,2013-06-23 18:59:00,
2013-06-23 15:00:00,92.3,45.5,29.00,West,264,5.8,5.8,20,0.00,,---,0.04,VWS V14.01,2013-06-23 19:00:00,
2013-06-23 15:01:00,92.7,43.0,29.00,WSW,242,0.0,5.8,18,0.00,,---,0.04,VWS V14.01,2013-06-23 19:01:00,
2013-06-23 15:02:00,92.3,44.1,29.00,WNW,287,4.5,4.5,19,0.00,,---,0.04,VWS V14.01,2013-06-23 19:02:00,
2013-06-23 15:03:00,90.1,46.2,29.03,WSW,237,5.8,6.9,22,0.00,,---,0.00,VWS V14.01,2013-06-23 19:03:00,
2013-06-23 15:04:00,91.9,42.4,29.00,West,263,4.0,6.7,18,0.00,,---,0.04,VWS V14.01,2013-06-23 19:04:00,
2013-06-23 15:05:00,91.8,42.3,29.00,SW,219,4.0,7.4,18,0.00,,---,0.04,VWS V14.01,2013-06-23 19:05:00,
2013-06-23 15:06:00,91.6,43.5,29.00,WNW,285,2.7,4.9,19,0.00,,---,0.04,VWS V14.01,2013-06-23 19:06:00,
2013-06-23 15:07:00,91.6,43.5,29.00,WNW,288,3.1,6.9,19,0.00,,---,0.04,VWS V14.01,2013-06-23 19:07:00,
2013-06-23 15:08:00,91.0,47.0,29.03,West,263,0.0,6.9,22,0.00,,---,0.00,VWS V14.01,2013-06-23 19:08:00,
2013-06-23 15:09:00,91.6,44.9,29.00,SW,223,5.8,7.8,20,0.00,,---,0.04,VWS V14.01,2013-06-23 19:09:00,
2013-06-23 15:10:00,91.6,46.2,29.00,East,97,0.0,5.8,21,0.00,,---,0.04,VWS V14.01,2013-06-23 19:10:00,
2013-06-23 15:11:00,91.6,46.2,29.00,WNW,283,4.9,4.9,21,0.00,,---,0.04,VWS V14.01,2013-06-23 19:11:00,
2013-06-23 15:12:00,91.9,46.5,29.00,SSW,209,4.9,6.7,21,0.00,,---,0.04,VWS V14.01,2013-06-23 19:12:00,
2013-06-23 15:13:00,92.1,46.6,29.03,West,267,9.2,9.2,21,0.00,,---,0.00,VWS V14.01,2013-06-23 19:13:00,
2013-06-23 15:14:00,92.5,45.6,29.00,SW,225,4.5,4.5,20,0.00,,---,0.04,VWS V14.01,2013-06-23 19:14:00,
2013-06-23 15:15:00,92.7,45.8,29.00,WSW,251,4.9,5.4,20,0.00,,---,0.04,VWS V14.01,2013-06-23 19:15:00,
2013-06-23 15:16:00,92.7,44.4,29.00,SW,230,0.0,6.7,19,0.00,,---,0.04,VWS V14.01,2013-06-23 19:16:00,
2013-06-23 15:17:00,92.8,44.6,29.00,WSW,257,0.0,3.1,19,0.00,,---,0.04,VWS V14.01,2013-06-23 19:17:00,
2013-06-23 15:18:00,90.7,46.7,29.03,WSW,257,5.4,9.2,22,0.00,,---,0.00,VWS V14.01,2013-06-23 19:18:00,
2013-06-23 15:19:00,93.0,44.7,29.00,WNW,291,5.4,5.8,19,0.00,,---,0.04,VWS V14.01,2013-06-23 19:19:00,
2013-06-23 15:20:00,91.9,42.4,29.00,NW,315,7.8,10.1,18,0.00,,---,0.04,VWS V14.01,2013-06-23 19:20:00,
2013-06-23 15:21:00,91.2,43.2,29.00,NW,308,5.4,7.8,19,0.00,,---,0.04,VWS V14.01,2013-06-23 19:21:00,
2013-06-23 15:22:00,90.5,42.7,29.00,WSW,251,4.0,8.3,19,0.00,,---,0.04,VWS V14.01,2013-06-23 19:22:00,
2013-06-23 15:23:00,89.6,46.9,29.03,West,259,3.1,6.7,23,0.00,,---,0.00,VWS V14.01,2013-06-23 19:23:00,
2013-06-23 15:24:00,90.7,46.7,29.00,SSW,195,2.7,3.1,22,0.00,,---,0.04,VWS V14.01,2013-06-23 19:24:00,
2013-06-23 15:25:00,91.0,47.0,29.00,West,263,0.0,3.1,22,0.00,,---,0.04,VWS V14.01,2013-06-23 19:25:00,
2013-06-23 15:26:00,91.2,48.3,29.00,South,190,3.1,4.9,23,0.00,,---,0.04,VWS V14.01,2013-06-23 19:26:00,
2013-06-23 15:27:00,91.6,49.7,29.00,WSW,249,3.1,3.1,24,0.00,,---,0.04,VWS V14.01,2013-06-23 19:27:00,
2013-06-23 15:28:00,89.6,48.1,29.03,West,270,4.0,6.9,24,0.00,,---,0.00,VWS V14.01,2013-06-23 19:28:00,
2013-06-23 15:29:00,91.4,48.4,29.00,West,264,4.5,4.5,23,0.00,,---,0.04,VWS V14.01,2013-06-23 19:29:00,
2013-06-23 15:30:00,91.2,48.3,29.00,WSW,246,4.0,4.5,23,0.00,,---,0.04,VWS V14.01,2013-06-23 19:30:00,
2013-06-23 15:31:00,91.0,47.0,29.00,SSE,162,0.0,4.5,22,0.00,,---,0.04,VWS V14.01,2013-06-23 19:31:00,
2013-06-23 15:32:00,90.7,46.7,29.00,South,191,3.6,6.3,22,0.00,,---,0.04,VWS V14.01,2013-06-23 19:32:00,
2013-06-23 15:33:00,89.8,50.4,29.03,West,270,6.7,7.4,26,0.00,,---,0.00,VWS V14.01,2013-06-23 19:33:00,
2013-06-23 15:34:00,90.1,47.4,29.00,SW,231,0.0,5.8,23,0.00,,---,0.04,VWS V14.01,2013-06-23 19:34:00,
2013-06-23 15:35:00,90.0,49.5,29.00,SE,133,0.0,3.6,25,0.00,,---,0.04,VWS V14.01,2013-06-23 19:35:00,
2013-06-23 15:36:00,90.0,49.5,29.00,ESE,111,0.0,3.1,25,0.00,,---,0.04,VWS V14.01,2013-06-23 19:36:00,
2013-06-23 15:37:00,89.8,50.4,29.00,WSW,253,0.0,3.6,26,0.00,,---,0.04,VWS V14.01,2013-06-23 19:37:00,
2013-06-23 15:38:00,91.2,48.3,29.03,SW,229,0.0,3.6,23,0.00,,---,0.00,VWS V14.01,2013-06-23 19:38:00,
2013-06-23 15:39:00,89.6,50.2,29.00,SW,230,4.9,5.8,26,0.00,,---,0.04,VWS V14.01,2013-06-23 19:39:00,
2013-06-23 15:40:00,89.4,50.1,29.00,WSW,245,3.6,5.8,26,0.00,,---,0.04,VWS V14.01,2013-06-23 19:40:00,
2013-06-23 15:41:00,89.1,50.8,29.00,SW,228,6.9,6.9,27,0.00,,---,0.04,VWS V14.01,2013-06-23 19:41:00,
2013-06-23 15:42:00,89.1,50.8,29.00,West,261,6.9,6.9,27,0.00,,---,0.04,VWS V14.01,2013-06-23 19:42:00,
2013-06-23 15:43:00,92.8,44.6,29.03,SW,234,0.0,3.1,19,0.00,,---,0.00,VWS V14.01,2013-06-23 19:43:00,
2013-06-23 15:44:00,88.7,50.5,29.00,WSW,237,3.1,6.3,27,0.00,,---,0.04,VWS V14.01,2013-06-23 19:44:00,
2013-06-23 15:45:00,89.1,51.8,29.00,West,274,0.0,3.1,28,0.00,,---,0.04,VWS V14.01,2013-06-23 19:45:00,
2013-06-23 15:46:00,89.4,52.1,29.00,West,281,3.6,3.6,28,0.00,,---,0.04,VWS V14.01,2013-06-23 19:46:00,
2013-06-23 15:47:00,89.4,51.1,29.00,SW,217,6.9,6.9,27,0.00,,---,0.04,VWS V14.01,2013-06-23 19:47:00,
2013-06-23 15:48:00,92.1,45.3,29.00,SSW,194,0.0,4.5,20,0.00,,---,0.00,VWS V14.01,2013-06-23 19:48:00,
2013-06-23 15:49:00,89.6,51.2,29.00,WSW,258,3.6,6.9,27,0.00,,---,0.04,VWS V14.01,2013-06-23 19:49:00,
2013-06-23 15:50:00,90.0,51.5,29.00,SE,127,0.0,3.6,27,0.00,,---,0.04,VWS V14.01,2013-06-23 19:50:00,
2013-06-23 15:51:00,90.5,53.0,29.00,ESE,102,2.7,4.0,28,0.00,,---,0.04,VWS V14.01,2013-06-23 19:51:00,
2013-06-23 15:52:00,90.7,51.1,29.00,West,267,6.7,6.7,26,0.00,,---,0.04,VWS V14.01,2013-06-23 19:52:00,
2013-06-23 15:53:00,91.2,43.2,29.00,NNW,342,0.0,5.4,19,0.00,,---,0.00,VWS V14.01,2013-06-23 19:53:00,
2013-06-23 15:54:00,91.0,49.3,29.00,SSW,195,6.3,7.8,24,0.00,,---,0.04,VWS V14.01,2013-06-23 19:54:00,
2013-06-23 15:55:00,91.2,48.3,29.00,SE,132,0.0,8.7,23,0.00,,---,0.04,VWS V14.01,2013-06-23 19:55:00,
2013-06-23 15:56:00,91.6,49.7,29.00,South,177,4.0,4.0,24,0.00,,---,0.04,VWS V14.01,2013-06-23 19:56:00,
2013-06-23 15:57:00,91.6,47.4,29.00,WSW,240,4.0,6.7,22,0.00,,---,0.04,VWS V14.01,2013-06-23 19:57:00,
2013-06-23 15:58:00,90.9,44.3,29.00,WNW,288,4.0,6.3,20,0.00,,---,0.00,VWS V14.01,2013-06-23 19:58:00,
2013-06-23 15:59:00,90.5,46.5,29.00,West,272,6.9,11.0,22,0.00,,---,0.04,VWS V14.01,2013-06-23 19:59:00,
2013-06-23 16:00:00,90.7,47.8,29.00,WSW,240,4.9,6.9,23,0.00,,---,0.04,VWS V14.01,2013-06-23 20:00:00,
2013-06-23 16:01:00,90.9,49.1,29.00,SSE,161,2.7,4.9,24,0.00,,---,0.04,VWS V14.01,2013-06-23 20:01:00,
2013-06-23 16:02:00,91.2,48.3,29.00,South,176,4.5,6.9,23,0.00,,---,0.04,VWS V14.01,2013-06-23 20:02:00,
2013-06-23 16:03:00,91.8,43.7,29.00,WNW,284,5.8,7.8,19,0.00,,---,0.00,VWS V14.01,2013-06-23 20:03:00,
2013-06-23 16:04:00,91.8,48.7,29.00,West,267,3.1,3.6,23,0.00,,---,0.04,VWS V14.01,2013-06-23 20:04:00,
2013-06-23 16:05:00,91.9,46.5,29.00,SSE,157,2.7,4.9,21,0.00,,---,0.04,VWS V14.01,2013-06-23 20:05:00,
2013-06-23 16:06:00,92.3,46.8,29.00,SSW,211,0.0,3.1,21,0.00,,---,0.04,VWS V14.01,2013-06-23 20:06:00,
2013-06-23 16:07:00,92.5,45.6,29.00,South,179,4.0,5.4,20,0.00,,---,0.04,VWS V14.01,2013-06-23 20:07:00,
2013-06-23 16:08:00,91.2,41.8,29.00,WNW,286,4.5,7.8,18,0.00,,---,0.00,VWS V14.01,2013-06-23 20:08:00,
2013-06-23 16:09:00,92.8,45.9,29.00,South,170,6.3,6.3,20,0.00,,---,0.04,VWS V14.01,2013-06-23 20:09:00,
2013-06-23 16:10:00,93.0,47.3,29.00,West,261,0.0,6.3,21,0.00,,---,0.04,VWS V14.01,2013-06-23 20:10:00,
2013-06-23 16:11:00,93.2,46.2,29.00,SE,146,3.1,4.0,20,0.00,,---,0.04,VWS V14.01,2013-06-23 20:11:00,
2013-06-23 16:12:00,93.2,44.9,29.00,SW,224,2.7,6.9,19,0.00,,---,0.04,VWS V14.01,2013-06-23 20:12:00,
2013-06-23 16:13:00,93.0,41.8,29.00,West,275,0.0,5.4,17,0.00,,---,0.00,VWS V14.01,2013-06-23 20:13:00,
2013-06-23 16:14:00,93.6,46.5,29.00,SE,130,4.5,5.4,20,0.00,,---,0.04,VWS V14.01,2013-06-23 20:14:00,
2013-06-23 16:15:00,93.6,45.2,29.00,ESE,113,0.0,4.5,19,0.00,,---,0.04,VWS V14.01,2013-06-23 20:15:00,
2013-06-23 16:16:00,93.7,45.3,29.00,SE,144,3.6,5.4,19,0.00,,---,0.04,VWS V14.01,2013-06-23 20:16:00,
2013-06-23 16:17:00,93.7,46.7,29.00,South,176,3.6,5.4,20,0.00,,---,0.04,VWS V14.01,2013-06-23 20:17:00,
2013-06-23 16:18:00,93.2,42.0,29.00,West,262,5.4,7.4,17,0.00,,---,0.00,VWS V14.01,2013-06-23 20:18:00,
2013-06-23 16:19:00,93.9,46.8,29.00,SSW,213,2.7,4.0,20,0.00,,---,0.04,VWS V14.01,2013-06-23 20:19:00,
2013-06-23 16:20:00,94.1,44.2,29.00,SW,220,0.0,4.5,18,0.00,,---,0.04,VWS V14.01,2013-06-23 20:20:00,
2013-06-23 16:21:00,94.1,45.6,29.00,East,94,0.0,4.9,19,0.00,,---,0.04,VWS V14.01,2013-06-23 20:21:00,
2013-06-23 16:22:00,94.3,45.7,29.00,WSW,244,0.0,0.0,19,0.00,,---,0.04,VWS V14.01,2013-06-23 20:22:00,
2013-06-23 16:23:00,93.0,41.8,29.00,WNW,301,6.3,7.8,17,0.00,,---,0.00,VWS V14.01,2013-06-23 20:23:00,
2013-06-23 16:24:00,94.5,43.0,29.00,SE,137,4.5,6.3,17,0.00,,---,0.04,VWS V14.01,2013-06-23 20:24:00,
2013-06-23 16:25:00,94.3,42.8,29.00,SE,140,2.7,4.9,17,0.00,,---,0.04,VWS V14.01,2013-06-23 20:25:00,
2013-06-23 16:26:00,94.3,45.7,29.00,WSW,240,2.7,4.9,19,0.00,,---,0.04,VWS V14.01,2013-06-23 20:26:00,
2013-06-23 16:27:00,94.3,45.7,29.00,WSW,240,0.0,2.7,19,0.00,,---,0.04,VWS V14.01,2013-06-23 20:27:00,
2013-06-23 16:28:00,92.8,41.7,29.00,SW,227,3.6,6.7,17,0.00,,---,0.00,VWS V14.01,2013-06-23 20:28:00,
2013-06-23 16:29:00,94.6,44.6,29.00,SE,140,0.0,4.5,18,0.00,,---,0.04,VWS V14.01,2013-06-23 20:29:00,
2013-06-23 16:30:00,94.5,43.0,29.00,SSW,206,0.0,4.9,17,0.00,,---,0.04,VWS V14.01,2013-06-23 20:30:00,
2013-06-23 16:31:00,94.5,44.5,29.00,SW,225,3.6,3.6,18,0.00,,---,0.04,VWS V14.01,2013-06-23 20:31:00,
2013-06-23 16:32:00,94.3,42.8,29.00,SW,228,4.0,6.7,17,0.00,,---,0.04,VWS V14.01,2013-06-23 20:32:00,
2013-06-23 16:33:00,93.2,42.0,28.97,SW,231,4.9,6.7,17,0.00,,---,0.00,VWS V14.01,2013-06-23 20:33:00,
2013-06-23 16:34:00,93.9,44.0,29.00,SW,226,2.7,7.4,18,0.00,,---,0.04,VWS V14.01,2013-06-23 20:34:00,
2013-06-23 16:35:00,93.7,43.9,29.00,West,270,4.9,4.9,18,0.00,,---,0.04,VWS V14.01,2013-06-23 20:35:00,
2013-06-23 16:36:00,93.7,43.9,29.00,West,263,2.7,4.9,18,0.00,,---,0.04,VWS V14.01,2013-06-23 20:36:00,
2013-06-23 16:37:00,93.7,43.9,29.00,West,263,4.5,5.4,18,0.00,,---,0.04,VWS V14.01,2013-06-23 20:37:00,
2013-06-23 16:38:00,92.1,41.1,28.97,NW,311,4.5,4.9,17,0.00,,---,0.00,VWS V14.01,2013-06-23 20:38:00,
2013-06-23 16:39:00,93.7,43.9,29.00,SW,236,4.0,4.5,18,0.00,,---,0.04,VWS V14.01,2013-06-23 20:39:00,
2013-06-23 16:40:00,93.7,43.9,29.00,West,281,0.0,4.0,18,0.00,,---,0.04,VWS V14.01,2013-06-23 20:40:00,
2013-06-23 16:41:00,93.4,43.6,29.00,WNW,295,5.4,6.9,18,0.00,,---,0.04,VWS V14.01,2013-06-23 20:41:00,
2013-06-23 16:42:00,93.2,44.9,28.97,WNW,294,3.6,5.4,19,0.00,,---,0.04,VWS V14.01,2013-06-23 20:42:00,
2013-06-23 16:43:00,92.7,43.0,28.97,West,274,5.4,5.8,18,0.00,,---,0.00,VWS V14.01,2013-06-23 20:43:00,
2013-06-23 16:44:00,92.8,45.9,28.97,SSW,192,2.7,6.7,20,0.00,,---,0.04,VWS V14.01,2013-06-23 20:44:00,
2013-06-23 16:45:00,92.8,44.6,28.97,SSE,149,3.6,3.6,19,0.00,,---,0.04,VWS V14.01,2013-06-23 20:45:00,
2013-06-23 16:46:00,92.7,45.8,28.97,WSW,240,4.5,4.5,20,0.00,,---,0.04,VWS V14.01,2013-06-23 20:46:00,
2013-06-23 16:47:00,92.1,44.0,28.97,West,278,2.7,7.4,19,0.00,,---,0.04,VWS V14.01,2013-06-23 20:47:00,
2013-06-23 16:48:00,92.8,41.7,28.97,WNW,291,3.1,6.9,17,0.00,,---,0.00,VWS V14.01,2013-06-23 20:48:00,
2013-06-23 16:49:00,92.1,46.6,28.97,WSW,240,2.7,6.3,21,0.00,,---,0.04,VWS V14.01,2013-06-23 20:49:00,
2013-06-23 16:50:00,92.3,45.5,28.97,WSW,252,2.7,5.8,20,0.00,,---,0.04,VWS V14.01,2013-06-23 20:50:00,
2013-06-23 16:51:00,92.3,45.5,28.97,SW,223,5.4,5.4,20,0.00,,---,0.04,VWS V14.01,2013-06-23 20:51:00,
2013-06-23 16:52:00,92.1,46.6,28.97,West,270,5.8,6.7,21,0.00,,---,0.04,VWS V14.01,2013-06-23 20:52:00,
2013-06-23 16:53:00,93.4,42.1,28.97,SW,214,4.9,6.3,17,0.00,,---,0.00,VWS V14.01,2013-06-23 20:53:00,
2013-06-23 16:54:00,92.3,48.0,28.97,SW,219,3.1,5.4,22,0.00,,---,0.04,VWS V14.01,2013-06-23 20:54:00,
2013-06-23 16:55:00,92.5,46.9,28.97,WNW,286,0.0,3.6,21,0.00,,---,0.04,VWS V14.01,2013-06-23 20:55:00,
2013-06-23 16:56:00,92.5,46.9,28.97,SW,225,7.4,7.4,21,0.00,,---,0.04,VWS V14.01,2013-06-23 20:56:00,
2013-06-23 16:57:00,92.5,45.6,28.97,ESE,121,3.6,7.4,20,0.00,,---,0.04,VWS V14.01,2013-06-23 20:57:00,
2013-06-23 16:58:00,93.9,41.0,28.97,NW,314,5.4,8.7,16,0.00,,---,0.00,VWS V14.01,2013-06-23 20:58:00,
2013-06-23 16:59:00,92.1,45.3,28.97,WSW,253,2.7,4.9,20,0.00,,---,0.04,VWS V14.01,2013-06-23 20:59:00,
2013-06-23 17:00:00,92.1,45.3,28.97,SW,220,4.9,6.3,20,0.00,,---,0.04,VWS V14.01,2013-06-23 21:00:00,
2013-06-23 17:01:00,92.3,45.5,28.97,WNW,298,3.1,5.4,20,0.00,,---,0.04,VWS V14.01,2013-06-23 21:01:00,
2013-06-23 17:02:00,92.1,44.0,28.97,SE,132,2.7,5.4,19,0.00,,---,0.04,VWS V14.01,2013-06-23 21:02:00,
2013-06-23 17:03:00,92.5,39.8,28.97,WNW,282,5.4,9.6,16,0.00,,---,0.00,VWS V14.01,2013-06-23 21:03:00,
2013-06-23 17:04:00,91.9,46.5,28.97,SSW,195,3.1,4.5,21,0.00,,---,0.04,VWS V14.01,2013-06-23 21:04:00,
2013-06-23 17:05:00,91.9,46.5,28.97,WSW,241,0.0,5.4,21,0.00,,---,0.04,VWS V14.01,2013-06-23 21:05:00,
2013-06-23 17:06:00,92.1,47.8,28.97,West,261,4.5,4.5,22,0.00,,---,0.04,VWS V14.01,2013-06-23 21:06:00,
2013-06-23 17:07:00,91.9,45.2,28.97,SW,231,0.0,7.8,20,0.00,,---,0.04,VWS V14.01,2013-06-23 21:07:00,
2013-06-23 17:08:00,91.9,40.9,28.97,West,266,0.0,4.9,17,0.00,,---,0.00,VWS V14.01,2013-06-23 21:08:00,
2013-06-23 17:09:00,92.3,46.8,28.97,SSE,160,0.0,3.6,21,0.00,,---,0.04,VWS V14.01,2013-06-23 21:09:00,
2013-06-23 17:10:00,92.3,45.5,28.97,West,274,0.0,7.8,20,0.00,,---,0.04,VWS V14.01,2013-06-23 21:10:00,
2013-06-23 17:11:00,92.5,45.6,28.97,SE,127,3.1,6.3,20,0.00,,---,0.04,VWS V14.01,2013-06-23 21:11:00,
2013-06-23 17:12:00,92.5,48.2,28.97,NW,305,3.1,3.6,22,0.00,,---,0.04,VWS V14.01,2013-06-23 21:12:00,
2013-06-23 17:13:00,92.8,41.7,28.97,WNW,284,5.4,5.4,17,0.00,,---,0.00,VWS V14.01,2013-06-23 21:13:00,
2013-06-23 17:14:00,92.5,46.9,28.97,ENE,74,0.0,4.5,21,0.00,,---,0.04,VWS V14.01,2013-06-23 21:14:00,
2013-06-23 17:15:00,92.5,45.6,28.97,WSW,251,5.4,5.4,20,0.00,,---,0.04,VWS V14.01,2013-06-23 21:15:00,
2013-06-23 17:16:00,92.3,45.5,28.97,SW,219,0.0,7.8,20,0.00,,---,0.04,VWS V14.01,2013-06-23 21:16:00,
2013-06-23 17:17:00,92.5,45.6,28.97,SW,228,0.0,4.9,20,0.00,,---,0.04,VWS V14.01,2013-06-23 21:17:00,
2013-06-23 17:18:00,93.9,42.5,28.97,WSW,255,7.8,10.1,17,0.00,,---,0.00,VWS V14.01,2013-06-23 21:18:00,
2013-06-23 17:19:00,92.7,45.8,28.97,SSW,198,4.0,4.0,20,0.00,,---,0.04,VWS V14.01,2013-06-23 21:19:00,
2013-06-23 17:20:00,92.7,45.8,28.97,South,189,0.0,4.9,20,0.00,,---,0.04,VWS V14.01,2013-06-23 21:20:00,
2013-06-23 17:21:00,92.7,44.4,28.97,SE,143,4.9,4.9,19,0.00,,---,0.04,VWS V14.01,2013-06-23 21:21:00,
2013-06-23 17:22:00,92.5,44.3,28.97,SSE,156,4.9,4.9,19,0.00,,---,0.04,VWS V14.01,2013-06-23 21:22:00,
2013-06-23 17:23:00,93.6,42.2,28.97,WNW,303,3.6,4.5,17,0.00,,---,0.00,VWS V14.01,2013-06-23 21:23:00,
2013-06-23 17:24:00,92.3,42.7,28.97,WSW,246,2.7,4.9,18,0.00,,---,0.04,VWS V14.01,2013-06-23 21:24:00,
2013-06-23 17:25:00,92.1,45.3,28.97,NW,311,0.0,4.5,20,0.00,,---,0.04,VWS V14.01,2013-06-23 21:25:00,
2013-06-23 17:26:00,92.3,45.5,28.97,East,92,0.0,5.4,20,0.00,,---,0.04,VWS V14.01,2013-06-23 21:26:00,
2013-06-23 17:27:00,92.1,45.3,28.97,SW,231,3.1,5.4,20,0.00,,---,0.04,VWS V14.01,2013-06-23 21:27:00,
2013-06-23 17:28:00,93.7,42.4,28.97,WSW,256,0.0,5.4,17,0.00,,---,0.00,VWS V14.01,2013-06-23 21:28:00,
2013-06-23 17:29:00,91.8,45.0,28.97,WSW,251,4.9,4.9,20,0.00,,---,0.04,VWS V14.01,2013-06-23 21:29:00,
2013-06-23 17:30:00,91.8,45.0,28.97,SSW,204,0.0,4.9,20,0.00,,---,0.04,VWS V14.01,2013-06-23 21:30:00,
2013-06-23 17:31:00,91.6,44.9,28.97,South,187,0.0,5.8,20,0.00,,---,0.04,VWS V14.01,2013-06-23 21:31:00,
2013-06-23 17:32:00,91.6,47.4,28.97,SSW,208,0.0,3.1,22,0.00,,---,0.04,VWS V14.01,2013-06-23 21:32:00,
2013-06-23 17:33:00,90.5,39.8,28.97,South,171,2.7,7.8,17,0.00,,---,0.00,VWS V14.01,2013-06-23 21:33:00,
2013-06-23 17:34:00,91.9,47.7,28.97,SE,139,2.7,4.0,22,0.00,,---,0.04,VWS V14.01,2013-06-23 21:34:00,
2013-06-23 17:35:00,92.1,46.6,28.97,WSW,243,0.0,3.1,21,0.00,,---,0.04,VWS V14.01,2013-06-23 21:35:00,
2013-06-23 17:36:00,91.9,45.2,28.97,SW,227,3.6,7.8,20,0.00,,---,0.04,VWS V14.01,2013-06-23 21:36:00,
2013-06-23 17:37:00,91.9,46.5,28.97,SSW,207,0.0,3.6,21,0.00,,---,0.04,VWS V14.01,2013-06-23 21:37:00,
2013-06-23 17:38:00,84.2,40.1,28.97,SE,133,8.3,13.4,21,0.00,,---,0.00,VWS V14.01,2013-06-23 21:38:00,
2013-06-23 17:39:00,91.8,46.3,28.97,WSW,241,4.5,4.9,21,0.00,,---,0.04,VWS V14.01,2013-06-23 21:39:00,
2013-06-23 17:40:00,91.6,46.2,28.97,SW,222,7.8,7.8,21,0.00,,---,0.04,VWS V14.01,2013-06-23 21:40:00,
2013-06-23 17:41:00,91.4,44.7,28.97,WSW,238,0.0,7.8,20,0.00,,---,0.04,VWS V14.01,2013-06-23 21:41:00,
2013-06-23 17:42:00,91.4,46.0,28.94,SSW,194,2.7,2.7,21,0.00,,---,0.04,VWS V14.01,2013-06-23 21:42:00,
2013-06-23 17:43:00,80.4,49.5,28.97,South,174,6.9,10.5,34,0.00,,---,0.00,VWS V14.01,2013-06-23 21:43:00,
2013-06-23 17:44:00,91.2,45.9,28.94,SSE,153,3.6,8.3,21,0.00,,---,0.04,VWS V14.01,2013-06-23 21:44:00,
2013-06-23 17:45:00,91.2,45.9,28.94,South,174,0.0,3.6,21,0.00,,---,0.04,VWS V14.01,2013-06-23 21:45:00,
2013-06-23 17:46:00,91.2,44.6,28.94,SW,217,4.0,6.3,20,0.00,,---,0.04,VWS V14.01,2013-06-23 21:46:00,
2013-06-23 17:47:00,91.0,44.4,28.94,SSW,192,0.0,4.5,20,0.00,,---,0.04,VWS V14.01,2013-06-23 21:47:00,
2013-06-23 17:48:00,77.5,59.6,29.03,SW,223,5.8,7.8,54,0.00,,---,0.00,VWS V14.01,2013-06-23 21:48:00,
2013-06-23 17:49:00,91.2,45.9,28.94,ESE,113,3.6,5.4,21,0.00,,---,0.04,VWS V14.01,2013-06-23 21:49:00,
2013-06-23 17:50:00,91.4,46.0,28.94,ESE,120,0.0,3.6,21,0.00,,---,0.04,VWS V14.01,2013-06-23 21:50:00,
2013-06-23 17:51:00,91.6,46.2,28.94,SSE,149,2.7,5.4,21,0.00,,---,0.04,VWS V14.01,2013-06-23 21:51:00,
2013-06-23 17:52:00,91.6,44.9,28.94,WNW,283,2.7,6.7,20,0.00,,---,0.04,VWS V14.01,2013-06-23 21:52:00,
2013-06-23 17:53:00,91.6,44.9,28.94,ESE,114,0.0,5.4,20,0.00,,---,0.04,VWS V14.01,2013-06-23 21:53:00,
2013-06-23 17:54:00,73.9,63.5,29.03,SSW,195,0.0,0.0,70,0.31,,---,0.31,VWS V14.01,2013-06-23 21:54:00,
2013-06-23 17:55:00,91.2,43.2,28.94,ESE,106,4.0,5.4,19,0.00,,---,0.04,VWS V14.01,2013-06-23 21:55:00,
2013-06-23 17:56:00,91.2,44.6,28.94,SSE,152,0.0,4.0,20,0.00,,---,0.04,VWS V14.01,2013-06-23 21:56:00,
2013-06-23 17:57:00,91.2,47.1,28.97,WSW,250,0.0,0.0,22,0.00,,---,0.04,VWS V14.01,2013-06-23 21:57:00,
2013-06-23 17:58:00,91.4,47.2,28.97,SSW,212,4.0,4.9,22,0.00,,---,0.04,VWS V14.01,2013-06-23 21:58:00,
2013-06-23 17:59:00,91.2,44.6,28.97,South,187,0.0,4.9,20,0.00,,---,0.04,VWS V14.01,2013-06-23 21:59:00,
2013-06-23 18:00:00,72.1,66.0,29.03,West,271,3.1,4.5,81,0.39,,---,0.39,VWS V14.01,2013-06-23 22:00:00,
2013-06-23 18:01:00,91.0,44.4,28.97,SW,232,5.8,7.8,20,0.00,,---,0.04,VWS V14.01,2013-06-23 22:01:00,
2013-06-23 18:02:00,90.9,44.3,28.97,West,271,3.1,5.8,20,0.00,,---,0.04,VWS V14.01,2013-06-23 22:02:00,
2013-06-23 18:03:00,90.9,45.6,28.97,SW,236,5.4,7.4,21,0.00,,---,0.04,VWS V14.01,2013-06-23 22:03:00,
2013-06-23 18:04:00,90.7,44.1,28.97,ESE,110,3.1,5.4,20,0.00,,---,0.04,VWS V14.01,2013-06-23 22:04:00,
2013-06-23 18:05:00,71.1,65.6,29.03,SW,215,3.1,3.1,83,0.39,,---,0.39,VWS V14.01,2013-06-23 22:05:00,
2013-06-23 18:06:00,90.7,44.1,28.97,SW,216,0.0,7.4,20,0.00,,---,0.04,VWS V14.01,2013-06-23 22:06:00,
2013-06-23 18:07:00,90.7,45.4,28.97,SSE,164,3.6,4.5,21,0.00,,---,0.04,VWS V14.01,2013-06-23 22:07:00,
2013-06-23 18:08:00,90.7,45.4,28.97,WSW,243,0.0,4.5,21,0.00,,---,0.04,VWS V14.01,2013-06-23 22:08:00,
2013-06-23 18:09:00,90.7,45.4,28.97,NE,44,0.0,4.0,21,0.00,,---,0.04,VWS V14.01,2013-06-23 22:09:00,
2013-06-23 18:10:00,71.1,66.7,29.03,WSW,249,3.1,4.9,86,0.39,,---,0.39,VWS V14.01,2013-06-23 22:10:00,
2013-06-23 18:11:00,90.9,44.3,28.97,SSE,147,0.0,5.8,20,0.00,,---,0.04,VWS V14.01,2013-06-23 22:11:00,
2013-06-23 18:12:00,90.9,45.6,28.97,SSE,151,0.0,0.0,21,0.00,,---,0.04,VWS V14.01,2013-06-23 22:12:00,
2013-06-23 18:13:00,91.0,44.4,28.97,SSE,150,4.9,4.9,20,0.00,,---,0.04,VWS V14.01,2013-06-23 22:13:00,
2013-06-23 18:14:00,91.2,43.2,28.97,WSW,240,4.5,8.7,19,0.00,,---,0.04,VWS V14.01,2013-06-23 22:14:00,
2013-06-23 18:15:00,70.9,67.5,29.03,WSW,246,3.1,5.8,89,0.43,,---,0.43,VWS V14.01,2013-06-23 22:15:00,
2013-06-23 18:16:00,91.2,43.2,28.97,WSW,238,3.1,5.8,19,0.00,,---,0.04,VWS V14.01,2013-06-23 22:16:00,
2013-06-23 18:17:00,91.4,43.4,28.97,WSW,251,4.5,4.9,19,0.00,,---,0.04,VWS V14.01,2013-06-23 22:17:00,
2013-06-23 18:18:00,91.6,43.5,28.97,SW,228,2.7,5.4,19,0.00,,---,0.04,VWS V14.01,2013-06-23 22:18:00,
2013-06-23 18:19:00,91.8,43.7,28.97,East,98,0.0,4.9,19,0.00,,---,0.04,VWS V14.01,2013-06-23 22:19:00,
2013-06-23 18:20:00,70.2,67.1,29.03,SSE,148,0.0,4.5,90,0.43,,---,0.43,VWS V14.01,2013-06-23 22:20:00,
2013-06-23 18:21:00,91.9,43.8,28.97,SSE,155,0.0,3.6,19,0.00,,---,0.04,VWS V14.01,2013-06-23 22:21:00,
2013-06-23 18:22:00,92.1,44.0,28.97,WSW,243,3.1,5.4,19,0.00,,---,0.04,VWS V14.01,2013-06-23 22:22:00,
2013-06-23 18:23:00,92.3,42.7,28.97,WSW,238,3.1,5.8,18,0.00,,---,0.04,VWS V14.01,2013-06-23 22:23:00,
2013-06-23 18:24:00,92.3,42.7,28.97,SW,232,2.7,6.9,18,0.00,,---,0.04,VWS V14.01,2013-06-23 22:24:00,
2013-06-23 18:25:00,70.3,67.3,29.03,NNW,327,0.0,3.6,90,0.43,,---,0.43,VWS V14.01,2013-06-23 22:25:00,
2013-06-23 18:26:00,92.7,43.0,28.97,SW,234,2.7,6.3,18,0.00,,---,0.04,VWS V14.01,2013-06-23 22:26:00,
2013-06-23 18:27:00,93.0,43.3,28.97,SSE,151,0.0,5.8,18,0.00,,---,0.04,VWS V14.01,2013-06-23 22:27:00,
2013-06-23 18:28:00,70.2,67.4,29.03,WNW,290,0.0,2.7,91,0.43,,---,0.43,VWS V14.01,2013-06-23 22:28:00,
2013-06-23 18:29:00,93.6,43.7,28.97,SSW,192,2.7,7.4,18,0.00,,---,0.04,VWS V14.01,2013-06-23 22:29:00,
2013-06-23 18:30:00,93.7,43.9,28.97,SW,236,0.0,4.9,18,0.00,,---,0.04,VWS V14.01,2013-06-23 22:30:00,
2013-06-23 18:31:00,94.3,42.8,28.97,SSW,206,0.0,4.5,17,0.00,,---,0.04,VWS V14.01,2013-06-23 22:31:00,
2013-06-23 18:32:00,94.5,43.0,28.97,ESE,109,0.0,4.5,17,0.00,,---,0.04,VWS V14.01,2013-06-23 22:32:00,
2013-06-23 18:33:00,70.2,67.7,29.03,WNW,288,0.0,0.0,92,0.43,,---,0.43,VWS V14.01,2013-06-23 22:33:00,
2013-06-23 18:34:00,95.4,43.7,28.97,WNW,299,3.1,3.6,17,0.00,,---,0.04,VWS V14.01,2013-06-23 22:34:00,
2013-06-23 18:35:00,95.5,43.8,28.97,NW,305,0.0,3.1,17,0.00,,---,0.04,VWS V14.01,2013-06-23 22:35:00,
2013-06-23 18:36:00,95.7,44.0,28.97,WNW,303,0.0,4.5,17,0.00,,---,0.04,VWS V14.01,2013-06-23 22:36:00,
2013-06-23 18:37:00,95.9,42.5,28.97,WNW,303,0.0,0.0,16,0.00,,---,0.04,VWS V14.01,2013-06-23 22:37:00,
2013-06-23 18:38:00,69.8,67.4,29.03,SW,216,3.1,4.5,92,0.43,,---,0.43,VWS V14.01,2013-06-23 22:38:00,
2013-06-23 18:39:00,96.6,43.1,28.97,NW,312,0.0,3.1,16,0.00,,---,0.04,VWS V14.01,2013-06-23 22:39:00,
2013-06-23 18:40:00,96.6,43.1,28.97,West,276,4.5,6.7,16,0.00,,---,0.04,VWS V14.01,2013-06-23 22:40:00,
2013-06-23 18:41:00,96.8,43.3,28.97,SSW,198,3.1,6.3,16,0.00,,---,0.04,VWS V14.01,2013-06-23 22:41:00,
2013-06-23 18:42:00,96.8,43.3,28.97,SW,214,0.0,5.4,16,0.00,,---,0.04,VWS V14.01,2013-06-23 22:42:00,
2013-06-23 18:43:00,69.8,67.7,29.03,SW,215,4.0,4.0,93,0.43,,---,0.43,VWS V14.01,2013-06-23 22:43:00,
2013-06-23 18:44:00,97.0,43.4,28.97,SW,222,0.0,4.9,16,0.00,,---,0.04,VWS V14.01,2013-06-23 22:44:00,
2013-06-23 18:45:00,97.0,43.4,28.97,SW,221,3.6,4.5,16,0.00,,---,0.04,VWS V14.01,2013-06-23 22:45:00,
2013-06-23 18:46:00,97.0,43.4,28.97,SE,131,3.1,4.9,16,0.00,,---,0.04,VWS V14.01,2013-06-23 22:46:00,
2013-06-23 18:47:00,96.6,43.1,28.97,West,266,5.4,5.4,16,0.00,,---,0.04,VWS V14.01,2013-06-23 22:47:00,
2013-06-23 18:48:00,69.8,67.7,29.03,WSW,245,3.6,5.4,93,0.43,,---,0.43,VWS V14.01,2013-06-23 22:48:00,
2013-06-23 18:49:00,96.6,43.1,28.97,SSW,205,0.0,4.0,16,0.00,,---,0.04,VWS V14.01,2013-06-23 22:49:00,
2013-06-23 18:50:00,96.8,43.3,28.97,West,260,0.0,3.6,16,0.00,,---,0.04,VWS V14.01,2013-06-23 22:50:00,
2013-06-23 18:51:00,96.6,43.1,28.97,SW,231,3.1,4.5,16,0.00,,---,0.04,VWS V14.01,2013-06-23 22:51:00,
2013-06-23 18:52:00,96.6,43.1,28.97,South,175,0.0,6.7,16,0.00,,---,0.04,VWS V14.01,2013-06-23 22:52:00,
2013-06-23 18:53:00,69.8,68.0,29.03,SW,223,0.0,0.0,94,0.20,,---,0.43,VWS V14.01,2013-06-23 22:53:00,
2013-06-23 18:54:00,96.8,43.3,28.97,West,272,4.5,6.7,16,0.00,,---,0.04,VWS V14.01,2013-06-23 22:54:00,
2013-06-23 18:55:00,96.6,43.1,28.97,NW,308,3.6,4.9,16,0.00,,---,0.04,VWS V14.01,2013-06-23 22:55:00,
2013-06-23 18:56:00,96.4,43.0,28.97,NW,306,3.6,5.4,16,0.00,,---,0.04,VWS V14.01,2013-06-23 22:56:00,
2013-06-23 18:57:00,96.3,42.8,28.97,SW,234,3.1,5.8,16,0.00,,---,0.04,VWS V14.01,2013-06-23 22:57:00,
2013-06-23 18:58:00,69.8,68.0,29.03,WNW,301,0.0,0.0,94,0.08,,---,0.43,VWS V14.01,2013-06-23 22:58:00,
2013-06-23 18:59:00,95.7,44.0,28.97,SE,133,0.0,4.9,17,0.00,,---,0.04,VWS V14.01,2013-06-23 22:59:00,
2013-06-23 19:00:00,95.4,43.7,28.97,WNW,286,4.5,11.6,17,0.00,,---,0.04,VWS V14.01,2013-06-23 23:00:00,
2013-06-23 19:01:00,95.0,43.4,28.97,WSW,255,4.0,8.7,17,0.00,,---,0.04,VWS V14.01,2013-06-23 23:01:00,
2013-06-23 19:02:00,94.8,43.3,28.97,WSW,249,0.0,6.3,17,0.00,,---,0.04,VWS V14.01,2013-06-23 23:02:00,
2013-06-23 19:03:00,70.2,68.4,29.03,WNW,301,0.0,4.0,94,0.04,,---,0.43,VWS V14.01,2013-06-23 23:03:00,
2013-06-23 19:04:00,94.8,43.3,28.97,SW,228,3.6,5.8,17,0.00,,---,0.04,VWS V14.01,2013-06-23 23:04:00,
2013-06-23 19:05:00,95.0,43.4,28.97,SSW,212,0.0,5.8,17,0.00,,---,0.04,VWS V14.01,2013-06-23 23:05:00,
2013-06-23 19:06:00,95.4,43.7,28.97,West,278,4.5,7.4,17,0.00,,---,0.04,VWS V14.01,2013-06-23 23:06:00,
2013-06-23 19:07:00,95.5,43.8,28.97,SSW,212,3.1,5.8,17,0.00,,---,0.04,VWS V14.01,2013-06-23 23:07:00,
2013-06-23 19:08:00,70.3,68.8,29.03,NNW,334,3.6,4.5,95,0.04,,---,0.43,VWS V14.01,2013-06-23 23:08:00,
2013-06-23 19:09:00,95.4,43.7,28.97,ESE,116,0.0,5.8,17,0.00,,---,0.04,VWS V14.01,2013-06-23 23:09:00,
2013-06-23 19:10:00,95.5,43.8,28.97,WNW,290,0.0,3.1,17,0.00,,---,0.04,VWS V14.01,2013-06-23 23:10:00,
2013-06-23 19:11:00,95.7,44.0,28.97,WSW,246,4.0,5.8,17,0.00,,---,0.04,VWS V14.01,2013-06-23 23:11:00,
2013-06-23 19:12:00,95.7,44.0,28.97,SW,231,0.0,6.9,17,0.00,,---,0.04,VWS V14.01,2013-06-23 23:12:00,
2013-06-23 19:13:00,70.2,68.7,29.03,West,269,5.4,5.4,95,0.00,,---,0.43,VWS V14.01,2013-06-23 23:13:00,
2013-06-23 19:14:00,95.9,42.5,28.97,West,266,6.3,6.3,16,0.00,,---,0.04,VWS V14.01,2013-06-23 23:14:00,
2013-06-23 19:15:00,95.4,43.7,28.97,WSW,238,4.5,12.1,17,0.00,,---,0.04,VWS V14.01,2013-06-23 23:15:00,
2013-06-23 19:16:00,94.8,43.3,28.97,North,1,4.0,8.3,17,0.00,,---,0.04,VWS V14.01,2013-06-23 23:16:00,
2013-06-23 19:17:00,94.5,43.0,28.97,West,263,3.1,4.0,17,0.00,,---,0.04,VWS V14.01,2013-06-23 23:17:00,
2013-06-23 19:18:00,69.6,68.1,29.00,WSW,251,3.1,3.6,95,0.00,,---,0.43,VWS V14.01,2013-06-23 23:18:00,
2013-06-23 19:19:00,94.5,44.5,28.97,West,280,6.9,6.9,18,0.00,,---,0.04,VWS V14.01,2013-06-23 23:19:00,
2013-06-23 19:20:00,94.1,42.7,28.97,West,270,0.0,10.5,17,0.00,,---,0.04,VWS V14.01,2013-06-23 23:20:00,
2013-06-23 19:21:00,94.1,44.2,28.97,WSW,255,0.0,4.5,18,0.00,,---,0.04,VWS V14.01,2013-06-23 23:21:00,
2013-06-23 19:22:00,93.9,44.0,28.97,West,281,4.0,5.8,18,0.00,,---,0.04,VWS V14.01,2013-06-23 23:22:00,
2013-06-23 19:23:00,69.6,68.1,29.00,East,98,4.0,4.5,95,0.00,,---,0.43,VWS V14.01,2013-06-23 23:23:00,
2013-06-23 19:24:00,93.9,44.0,28.97,West,266,5.8,6.3,18,0.00,,---,0.04,VWS V14.01,2013-06-23 23:24:00,
2013-06-23 19:25:00,93.4,43.6,28.97,WNW,295,5.8,9.2,18,0.00,,---,0.04,VWS V14.01,2013-06-23 23:25:00,
2013-06-23 19:26:00,93.2,44.9,28.97,SSW,213,4.9,5.8,19,0.00,,---,0.04,VWS V14.01,2013-06-23 23:26:00,
2013-06-23 19:27:00,93.2,44.9,28.97,WSW,256,2.7,4.9,19,0.00,,---,0.04,VWS V14.01,2013-06-23 23:27:00,
2013-06-23 19:28:00,69.8,68.3,29.00,East,95,3.6,5.8,95,0.00,,---,0.43,VWS V14.01,2013-06-23 23:28:00,
2013-06-23 19:29:00,93.0,44.7,28.97,SSE,149,4.5,8.3,19,0.00,,---,0.04,VWS V14.01,2013-06-23 23:29:00,
2013-06-23 19:30:00,93.0,43.3,28.97,SW,235,4.5,5.8,18,0.00,,---,0.04,VWS V14.01,2013-06-23 23:30:00,
2013-06-23 19:31:00,93.0,43.3,28.97,SSE,166,0.0,4.5,18,0.00,,---,0.04,VWS V14.01,2013-06-23 23:31:00,
2013-06-23 19:32:00,93.0,44.7,28.97,SE,142,6.3,6.3,19,0.00,,---,0.04,VWS V14.01,2013-06-23 23:32:00,
2013-06-23 19:33:00,70.0,68.5,29.00,East,90,0.0,0.0,95,0.00,,---,0.43,VWS V14.01,2013-06-23 23:33:00,
2013-06-23 19:34:00,93.0,44.7,28.97,West,259,5.8,8.3,19,0.00,,---,0.04,VWS V14.01,2013-06-23 23:34:00,
2013-06-23 19:35:00,92.8,44.6,28.97,West,260,3.6,5.8,19,0.00,,---,0.04,VWS V14.01,2013-06-23 23:35:00,
2013-06-23 19:36:00,92.8,44.6,28.97,SSW,202,4.5,4.9,19,0.00,,---,0.04,VWS V14.01,2013-06-23 23:36:00,
2013-06-23 19:37:00,92.8,43.2,28.97,West,271,6.3,6.7,18,0.00,,---,0.04,VWS V14.01,2013-06-23 23:37:00,
2013-06-23 19:38:00,70.3,68.8,29.00,East,90,0.0,0.0,95,0.00,,---,0.43,VWS V14.01,2013-06-23 23:38:00,
2013-06-23 19:39:00,92.5,44.3,28.97,WSW,244,2.7,5.4,19,0.00,,---,0.04,VWS V14.01,2013-06-23 23:39:00,
2013-06-23 19:40:00,92.3,44.1,28.97,ESE,123,0.0,3.1,19,0.00,,---,0.04,VWS V14.01,2013-06-23 23:40:00,
2013-06-23 19:41:00,92.3,44.1,28.97,WNW,294,0.0,3.6,19,0.00,,---,0.04,VWS V14.01,2013-06-23 23:41:00,
2013-06-23 19:42:00,92.3,45.5,28.97,West,269,4.5,4.5,20,0.00,,---,0.04,VWS V14.01,2013-06-23 23:42:00,
2013-06-23 19:43:00,70.5,69.0,29.00,East,90,0.0,0.0,95,0.00,,---,0.43,VWS V14.01,2013-06-23 23:43:00,
2013-06-23 19:44:00,91.8,45.0,28.97,WSW,239,0.0,6.7,20,0.00,,---,0.04,VWS V14.01,2013-06-23 23:44:00,
2013-06-23 19:45:00,91.4,44.7,28.97,SW,232,3.6,4.9,20,0.00,,---,0.04,VWS V14.01,2013-06-23 23:45:00,
2013-06-23 19:46:00,91.0,45.7,28.97,SW,215,3.1,6.3,21,0.00,,---,0.04,VWS V14.01,2013-06-23 23:46:00,
2013-06-23 19:47:00,90.3,46.3,28.97,SW,223,3.6,6.9,22,0.00,,---,0.04,VWS V14.01,2013-06-23 23:47:00,
2013-06-23 19:48:00,70.7,69.5,29.00,East,90,0.0,0.0,96,0.00,,---,0.43,VWS V14.01,2013-06-23 23:48:00,
2013-06-23 19:49:00,89.4,49.0,28.97,SW,223,0.0,0.0,25,0.00,,---,0.04,VWS V14.01,2013-06-23 23:49:00,
2013-06-23 19:50:00,89.1,48.7,28.97,SSW,202,0.0,4.5,25,0.00,,---,0.04,VWS V14.01,2013-06-23 23:50:00,
2013-06-23 19:51:00,88.7,50.5,28.97,WSW,248,0.0,3.6,27,0.00,,---,0.04,VWS V14.01,2013-06-23 23:51:00,
2013-06-23 19:52:00,88.5,51.3,28.97,South,181,3.6,5.4,28,0.00,,---,0.04,VWS V14.01,2013-06-23 23:52:00,
2013-06-23 19:53:00,70.9,69.4,29.00,East,90,0.0,0.0,95,0.00,,---,0.43,VWS V14.01,2013-06-23 23:53:00,
2013-06-23 19:54:00,88.0,50.8,28.97,South,178,4.5,6.3,28,0.00,,---,0.04,VWS V14.01,2013-06-23 23:54:00,
2013-06-23 19:55:00,87.6,50.5,28.97,NW,314,6.3,6.3,28,0.00,,---,0.04,VWS V14.01,2013-06-23 23:55:00,
2013-06-23 19:56:00,87.4,50.4,28.97,East,89,0.0,6.3,28,0.00,,---,0.04,VWS V14.01,2013-06-23 23:56:00,
2013-06-23 19:57:00,87.3,50.2,28.97,SSW,211,4.5,4.5,28,0.00,,---,0.04,VWS V14.01,2013-06-23 23:57:00,
2013-06-23 19:58:00,70.9,69.4,29.00,East,90,0.0,0.0,95,0.00,,---,0.43,VWS V14.01,2013-06-23 23:58:00,
2013-06-23 19:59:00,87.1,51.0,28.97,West,281,0.0,0.0,29,0.00,,---,0.04,VWS V14.01,2013-06-23 23:59:00,
2013-06-23 20:00:00,86.9,51.8,28.97,SSW,211,4.0,4.0,30,0.00,,---,0.04,VWS V14.01,2013-06-24 00:00:00,
2013-06-23 20:01:00,86.9,51.8,28.97,WSW,239,0.0,5.8,30,0.00,,---,0.04,VWS V14.01,2013-06-24 00:01:00,
2013-06-23 20:02:00,86.7,51.6,28.97,WSW,239,0.0,0.0,30,0.00,,---,0.04,VWS V14.01,2013-06-24 00:02:00,
2013-06-23 20:03:00,70.9,69.4,29.00,East,92,3.1,4.0,95,0.00,,---,0.43,VWS V14.01,2013-06-24 00:03:00,
2013-06-23 20:04:00,86.4,51.3,28.97,WSW,249,2.7,5.8,30,0.00,,---,0.04,VWS V14.01,2013-06-24 00:04:00,
2013-06-23 20:05:00,86.2,52.0,28.97,WSW,249,0.0,2.7,31,0.00,,---,0.04,VWS V14.01,2013-06-24 00:05:00,
2013-06-23 20:06:00,86.2,52.0,28.97,WSW,249,4.0,4.0,31,0.00,,---,0.04,VWS V14.01,2013-06-24 00:06:00,
2013-06-23 20:07:00,86.0,51.9,28.97,WSW,249,5.4,5.8,31,0.00,,---,0.04,VWS V14.01,2013-06-24 00:07:00,
2013-06-23 20:08:00,71.2,69.7,29.00,SE,124,4.5,4.5,95,0.00,,---,0.43,VWS V14.01,2013-06-24 00:08:00,
2013-06-23 20:09:00,85.8,52.6,28.97,WSW,244,3.6,5.8,32,0.00,,---,0.04,VWS V14.01,2013-06-24 00:09:00,
2013-06-23 20:10:00,85.6,52.4,28.97,SW,231,0.0,4.9,32,0.00,,---,0.04,VWS V14.01,2013-06-24 00:10:00,
2013-06-23 20:11:00,85.5,53.1,28.97,SW,231,0.0,0.0,33,0.00,,---,0.04,VWS V14.01,2013-06-24 00:11:00,
2013-06-23 20:12:00,85.5,53.1,28.97,SW,227,4.5,4.5,33,0.00,,---,0.04,VWS V14.01,2013-06-24 00:12:00,
2013-06-23 20:13:00,71.1,69.6,29.00,ESE,119,3.1,3.6,95,0.00,,---,0.43,VWS V14.01,2013-06-24 00:13:00,
2013-06-23 20:14:00,85.1,53.6,28.97,SW,231,0.0,3.6,34,0.00,,---,0.04,VWS V14.01,2013-06-24 00:14:00,
2013-06-23 20:15:00,84.9,54.2,28.97,West,274,3.6,5.4,35,0.00,,---,0.04,VWS V14.01,2013-06-24 00:15:00,
2013-06-23 20:16:00,84.9,54.2,28.97,WSW,252,2.7,5.4,35,0.00,,---,0.04,VWS V14.01,2013-06-24 00:16:00,
2013-06-23 20:17:00,84.6,54.7,28.97,West,280,0.0,4.5,36,0.00,,---,0.04,VWS V14.01,2013-06-24 00:17:00,
2013-06-23 20:18:00,71.1,69.6,29.00,ESE,107,0.0,0.0,95,0.00,,---,0.43,VWS V14.01,2013-06-24 00:18:00,
2013-06-23 20:19:00,84.4,54.5,28.97,SW,229,3.6,6.3,36,0.00,,---,0.04,VWS V14.01,2013-06-24 00:19:00,
2013-06-23 20:20:00,84.2,55.1,28.97,WSW,248,4.5,5.8,37,0.00,,---,0.04,VWS V14.01,2013-06-24 00:20:00,
2013-06-23 20:21:00,84.0,55.0,28.97,WSW,246,4.0,6.9,37,0.00,,---,0.04,VWS V14.01,2013-06-24 00:21:00,
2013-06-23 20:22:00,84.0,55.7,28.97,SSW,201,2.7,4.5,38,0.00,,---,0.04,VWS V14.01,2013-06-24 00:22:00,
2013-06-23 20:23:00,71.1,69.9,29.00,ESE,117,2.7,4.0,96,0.00,,---,0.43,VWS V14.01,2013-06-24 00:23:00,
2013-06-23 20:24:00,83.8,55.5,28.97,SSE,167,3.1,6.3,38,0.00,,---,0.04,VWS V14.01,2013-06-24 00:24:00,
2013-06-23 20:25:00,83.7,55.4,28.97,SW,226,3.1,5.4,38,0.00,,---,0.04,VWS V14.01,2013-06-24 00:25:00,
2013-06-23 20:26:00,83.7,56.1,28.97,West,268,3.6,4.0,39,0.00,,---,0.04,VWS V14.01,2013-06-24 00:26:00,
2013-06-23 20:27:00,83.5,55.9,28.97,SW,222,0.0,3.6,39,0.00,,---,0.04,VWS V14.01,2013-06-24 00:27:00,
2013-06-23 20:28:00,71.2,70.1,29.00,ESE,117,0.0,3.6,96,0.00,,---,0.43,VWS V14.01,2013-06-24 00:28:00,
2013-06-23 20:29:00,83.3,55.8,28.97,SW,226,0.0,5.4,39,0.00,,---,0.04,VWS V14.01,2013-06-24 00:29:00,
2013-06-23 20:30:00,83.3,56.5,28.97,SW,226,3.1,3.1,40,0.00,,---,0.04,VWS V14.01,2013-06-24 00:30:00,
2013-06-23 20:31:00,83.1,56.3,28.97,West,261,0.0,3.1,40,0.00,,---,0.04,VWS V14.01,2013-06-24 00:31:00,
2013-06-23 20:32:00,83.1,56.3,28.97,West,261,3.6,3.6,40,0.00,,---,0.04,VWS V14.01,2013-06-24 00:32:00,
2013-06-23 20:33:00,71.4,70.2,29.00,ESE,117,0.0,0.0,96,0.00,,---,0.43,VWS V14.01,2013-06-24 00:33:00,
2013-06-23 20:34:00,82.9,56.2,28.97,WNW,286,4.0,4.0,40,0.00,,---,0.04,VWS V14.01,2013-06-24 00:34:00,
2013-06-23 20:35:00,82.9,56.2,28.97,SE,143,0.0,4.9,40,0.00,,---,0.04,VWS V14.01,2013-06-24 00:35:00,
2013-06-23 20:36:00,82.9,56.8,28.97,SW,218,3.6,4.5,41,0.00,,---,0.04,VWS V14.01,2013-06-24 00:36:00,
2013-06-23 20:37:00,82.8,56.7,28.97,SW,233,5.8,5.8,41,0.00,,---,0.04,VWS V14.01,2013-06-24 00:37:00,
2013-06-23 20:38:00,82.8,56.7,28.97,West,277,4.0,5.8,41,0.00,,---,0.04,VWS V14.01,2013-06-24 00:38:00,
2013-06-23 20:39:00,71.2,70.1,29.00,ESE,117,0.0,3.1,96,0.00,,---,0.43,VWS V14.01,2013-06-24 00:39:00,
2013-06-23 20:40:00,82.6,57.2,28.97,South,180,0.0,0.0,42,0.00,,---,0.04,VWS V14.01,2013-06-24 00:40:00,
2013-06-23 20:41:00,82.4,57.0,28.97,West,259,2.7,3.6,42,0.00,,---,0.04,VWS V14.01,2013-06-24 00:41:00,
2013-06-23 20:42:00,82.4,57.0,28.97,West,259,0.0,2.7,42,0.00,,---,0.04,VWS V14.01,2013-06-24 00:42:00,
2013-06-23 20:43:00,82.2,56.9,28.97,West,268,0.0,0.0,42,0.00,,---,0.04,VWS V14.01,2013-06-24 00:43:00,
2013-06-23 20:44:00,71.4,70.2,29.00,ESE,117,0.0,0.0,96,0.00,,---,0.43,VWS V14.01,2013-06-24 00:44:00,
2013-06-23 20:45:00,82.2,57.5,28.97,SSW,202,3.1,6.7,43,0.00,,---,0.04,VWS V14.01,2013-06-24 00:45:00,
2013-06-23 20:46:00,82.0,57.4,28.97,SSW,202,0.0,3.1,43,0.00,,---,0.04,VWS V14.01,2013-06-24 00:46:00,
2013-06-23 20:47:00,82.0,57.4,28.97,NE,49,0.0,4.0,43,0.00,,---,0.04,VWS V14.01,2013-06-24 00:47:00,
2013-06-23 20:48:00,81.9,57.2,28.97,North,351,0.0,3.6,43,0.00,,---,0.04,VWS V14.01,2013-06-24 00:48:00,
2013-06-23 20:49:00,71.4,70.2,29.00,ESE,117,0.0,0.0,96,0.00,,---,0.43,VWS V14.01,2013-06-24 00:49:00,
2013-06-23 20:50:00,81.7,57.7,28.97,WSW,257,3.1,4.0,44,0.00,,---,0.04,VWS V14.01,2013-06-24 00:50:00,
2013-06-23 20:51:00,81.7,57.7,28.97,West,268,3.1,7.4,44,0.00,,---,0.04,VWS V14.01,2013-06-24 00:51:00,
2013-06-23 20:52:00,81.5,57.5,28.97,SSW,202,4.9,5.4,44,0.00,,---,0.04,VWS V14.01,2013-06-24 00:52:00,
2013-06-23 20:53:00,81.5,57.5,28.97,SW,216,0.0,4.9,44,0.00,,---,0.04,VWS V14.01,2013-06-24 00:53:00,
2013-06-23 20:54:00,71.2,70.1,29.00,ESE,117,0.0,0.0,96,0.00,,---,0.43,VWS V14.01,2013-06-24 00:54:00,
2013-06-23 20:55:00,81.3,58.0,28.97,WNW,292,0.0,3.1,45,0.00,,---,0.04,VWS V14.01,2013-06-24 00:55:00,
2013-06-23 20:56:00,81.1,57.8,28.97,WNW,292,0.0,0.0,45,0.00,,---,0.04,VWS V14.01,2013-06-24 00:56:00,
2013-06-23 20:57:00,81.1,57.8,28.97,SW,222,0.0,5.4,45,0.00,,---,0.04,VWS V14.01,2013-06-24 00:57:00,
2013-06-23 20:58:00,81.1,57.8,28.97,West,277,3.1,3.1,45,0.00,,---,0.04,VWS V14.01,2013-06-24 00:58:00,
2013-06-23 20:59:00,71.2,70.1,29.03,ESE,117,0.0,0.0,96,0.00,,---,0.43,VWS V14.01,2013-06-24 00:59:00,
2013-06-23 21:00:00,81.0,58.3,28.97,West,276,0.0,3.1,46,0.00,,---,0.04,VWS V14.01,2013-06-24 01:00:00,
2013-06-23 21:01:00,81.0,58.3,28.97,West,276,2.7,3.1,46,0.00,,---,0.04,VWS V14.01,2013-06-24 01:01:00,
2013-06-23 21:02:00,80.8,58.7,28.97,SSW,205,0.0,7.8,47,0.00,,---,0.04,VWS V14.01,2013-06-24 01:02:00,
2013-06-23 21:03:00,80.8,58.7,28.97,SSW,213,0.0,0.0,47,0.00,,---,0.04,VWS V14.01,2013-06-24 01:03:00,
2013-06-23 21:04:00,71.2,70.1,29.03,ESE,117,0.0,0.0,96,0.00,,---,0.43,VWS V14.01,2013-06-24 01:04:00,
2013-06-23 21:05:00,80.6,58.5,28.97,SW,225,0.0,3.6,47,0.00,,---,0.04,VWS V14.01,2013-06-24 01:05:00,
2013-06-23 21:06:00,80.6,58.5,28.97,SSW,205,0.0,3.1,47,0.00,,---,0.04,VWS V14.01,2013-06-24 01:06:00,
2013-06-23 21:07:00,80.4,58.4,28.97,SW,236,0.0,6.9,47,0.00,,---,0.04,VWS V14.01,2013-06-24 01:07:00,
2013-06-23 21:08:00,80.4,59.0,28.97,WSW,254,4.5,5.4,48,0.00,,---,0.04,VWS V14.01,2013-06-24 01:08:00,
2013-06-23 21:09:00,71.2,69.7,29.03,ESE,117,0.0,0.0,95,0.00,,---,0.43,VWS V14.01,2013-06-24 01:09:00,
2013-06-23 21:10:00,80.2,58.8,28.97,WNW,286,0.0,0.0,48,0.00,,---,0.04,VWS V14.01,2013-06-24 01:10:00,
2013-06-23 21:11:00,80.2,58.8,28.97,WNW,286,0.0,0.0,48,0.00,,---,0.04,VWS V14.01,2013-06-24 01:11:00,
2013-06-23 21:12:00,80.2,59.4,28.97,WNW,286,0.0,0.0,49,0.00,,---,0.04,VWS V14.01,2013-06-24 01:12:00,
2013-06-23 21:13:00,80.2,59.4,28.97,WSW,255,6.3,6.3,49,0.00,,---,0.04,VWS V14.01,2013-06-24 01:13:00,
2013-06-23 21:14:00,71.1,69.6,29.00,ESE,117,0.0,0.0,95,0.00,,---,0.43,VWS V14.01,2013-06-24 01:14:00,
2013-06-23 21:15:00,80.1,59.2,28.97,WSW,252,0.0,6.3,49,0.00,,---,0.04,VWS V14.01,2013-06-24 01:15:00,
2013-06-23 21:16:00,80.1,59.2,28.97,West,271,3.6,6.3,49,0.00,,---,0.04,VWS V14.01,2013-06-24 01:16:00,
2013-06-23 21:17:00,80.1,59.2,28.97,West,271,0.0,3.6,49,0.00,,---,0.04,VWS V14.01,2013-06-24 01:17:00,
2013-06-23 21:18:00,79.9,59.0,28.97,West,271,0.0,0.0,49,0.00,,---,0.04,VWS V14.01,2013-06-24 01:18:00,
2013-06-23 21:19:00,71.1,69.6,29.00,ESE,117,0.0,0.0,95,0.00,,---,0.43,VWS V14.01,2013-06-24 01:19:00,
2013-06-23 21:20:00,79.9,59.6,28.97,WSW,253,0.0,4.5,50,0.00,,---,0.04,VWS V14.01,2013-06-24 01:20:00,
2013-06-23 21:21:00,79.9,59.6,28.97,SW,236,4.5,4.5,50,0.00,,---,0.04,VWS V14.01,2013-06-24 01:21:00,
2013-06-23 21:22:00,79.7,59.4,28.97,SW,230,0.0,6.3,50,0.00,,---,0.04,VWS V14.01,2013-06-24 01:22:00,
2013-06-23 21:23:00,79.7,59.4,28.97,SW,229,0.0,2.7,50,0.00,,---,0.04,VWS V14.01,2013-06-24 01:23:00,
2013-06-23 21:24:00,70.9,69.4,29.00,SE,129,0.0,3.1,95,0.00,,---,0.43,VWS V14.01,2013-06-24 01:24:00,
2013-06-23 21:25:00,79.7,59.4,28.97,WSW,246,0.0,0.0,50,0.00,,---,0.04,VWS V14.01,2013-06-24 01:25:00,
2013-06-23 21:26:00,79.5,59.3,28.97,WSW,246,0.0,0.0,50,0.00,,---,0.04,VWS V14.01,2013-06-24 01:26:00,
2013-06-23 21:27:00,79.5,59.8,28.97,WSW,246,0.0,0.0,51,0.00,,---,0.04,VWS V14.01,2013-06-24 01:27:00,
2013-06-23 21:28:00,79.5,59.8,28.97,SW,228,0.0,4.0,51,0.00,,---,0.04,VWS V14.01,2013-06-24 01:28:00,
2013-06-23 21:29:00,70.3,69.2,29.00,ESE,123,2.7,7.4,96,0.00,,---,0.43,VWS V14.01,2013-06-24 01:29:00,
2013-06-23 21:30:00,79.5,59.8,28.97,West,273,4.0,4.9,51,0.00,,---,0.04,VWS V14.01,2013-06-24 01:30:00,
2013-06-23 21:31:00,79.3,59.7,28.97,West,273,0.0,4.0,51,0.00,,---,0.04,VWS V14.01,2013-06-24 01:31:00,
2013-06-23 21:32:00,79.3,59.7,28.97,South,171,0.0,4.9,51,0.00,,---,0.04,VWS V14.01,2013-06-24 01:32:00,
2013-06-23 21:33:00,79.3,59.7,28.97,West,271,0.0,4.0,51,0.00,,---,0.04,VWS V14.01,2013-06-24 01:33:00,
2013-06-23 21:34:00,70.3,69.2,29.00,SE,137,3.1,5.4,96,0.00,,---,0.43,VWS V14.01,2013-06-24 01:34:00,
2013-06-23 21:35:00,79.2,59.5,28.97,NNW,335,3.1,3.1,51,0.00,,---,0.04,VWS V14.01,2013-06-24 01:35:00,
2013-06-23 21:36:00,79.2,59.5,28.97,NNW,335,0.0,3.6,51,0.00,,---,0.04,VWS V14.01,2013-06-24 01:36:00,
2013-06-23 21:37:00,79.2,60.0,28.97,West,260,4.5,4.9,52,0.00,,---,0.04,VWS V14.01,2013-06-24 01:37:00,
2013-06-23 21:38:00,79.2,60.0,28.97,WNW,287,2.7,4.9,52,0.00,,---,0.04,VWS V14.01,2013-06-24 01:38:00,
2013-06-23 21:39:00,70.3,68.8,29.00,SE,145,3.6,4.5,95,0.00,,---,0.43,VWS V14.01,2013-06-24 01:39:00,
2013-06-23 21:40:00,79.2,60.0,28.97,WSW,243,0.0,4.9,52,0.00,,---,0.04,VWS V14.01,2013-06-24 01:40:00,
2013-06-23 21:41:00,79.0,59.9,28.97,West,281,0.0,4.5,52,0.00,,---,0.04,VWS V14.01,2013-06-24 01:41:00,
2013-06-23 21:42:00,79.0,59.9,28.97,West,281,0.0,3.6,52,0.00,,---,0.04,VWS V14.01,2013-06-24 01:42:00,
2013-06-23 21:44:00,70.2,68.7,29.03,SE,135,3.1,4.9,95,0.00,,---,0.43,VWS V14.01,2013-06-24 01:44:00,
2013-06-23 21:49:00,70.0,68.5,29.03,SE,125,0.0,0.0,95,0.00,,---,0.43,VWS V14.01,2013-06-24 01:49:00,
2013-06-23 21:54:00,70.0,68.2,29.03,SE,125,0.0,0.0,94,0.00,,---,0.43,VWS V14.01,2013-06-24 01:54:00,
2013-06-23 21:59:00,69.8,68.0,29.03,SE,142,3.1,5.4,94,0.00,,---,0.43,VWS V14.01,2013-06-24 01:59:00,
2013-06-23 22:04:00,69.8,67.7,29.03,SE,133,0.0,0.0,93,0.00,,---,0.43,VWS V14.01,2013-06-24 02:04:00,
2013-06-23 22:09:00,69.8,67.7,29.03,SE,133,0.0,0.0,93,0.00,,---,0.43,VWS V14.01,2013-06-24 02:09:00,
2013-06-23 22:14:00,69.6,67.5,29.03,SE,133,0.0,0.0,93,0.00,,---,0.43,VWS V14.01,2013-06-24 02:14:00,
2013-06-23 22:15:00,77.5,56.9,29.00,North,351,7.8,7.8,49,0.00,,---,0.04,VWS V14.01,2013-06-24 02:15:00,
2013-06-23 22:16:00,77.5,55.7,29.00,NNE,25,4.5,7.8,47,0.00,,---,0.04,VWS V14.01,2013-06-24 02:16:00,
2013-06-23 22:17:00,77.2,53.0,29.00,NNE,16,4.0,6.3,43,0.00,,---,0.04,VWS V14.01,2013-06-24 02:17:00,
2013-06-23 22:18:00,76.8,52.7,29.00,NNE,19,2.7,6.7,43,0.00,,---,0.04,VWS V14.01,2013-06-24 02:18:00,
2013-06-23 22:19:00,69.6,67.5,29.03,SE,133,0.0,0.0,93,0.00,,---,0.43,VWS V14.01,2013-06-24 02:19:00,
2013-06-23 22:20:00,76.3,52.2,29.00,North,351,3.6,6.7,43,0.00,,---,0.04,VWS V14.01,2013-06-24 02:20:00,
2013-06-23 22:21:00,76.1,52.6,29.00,North,7,4.9,5.4,44,0.00,,---,0.04,VWS V14.01,2013-06-24 02:21:00,
2013-06-23 22:22:00,75.7,52.3,29.00,NE,39,5.8,6.7,44,0.00,,---,0.04,VWS V14.01,2013-06-24 02:22:00,
2013-06-23 22:23:00,75.6,52.8,29.00,NE,49,7.4,8.7,45,0.00,,---,0.04,VWS V14.01,2013-06-24 02:23:00,
2013-06-23 22:24:00,69.6,67.5,29.03,SE,132,0.0,0.0,93,0.00,,---,0.43,VWS V14.01,2013-06-24 02:24:00,
2013-06-23 22:25:00,75.0,52.9,29.00,NNE,21,4.0,6.3,46,0.00,,---,0.04,VWS V14.01,2013-06-24 02:25:00,
2013-06-23 22:26:00,75.0,52.9,29.00,NE,34,4.0,9.6,46,0.00,,---,0.04,VWS V14.01,2013-06-24 02:26:00,
2013-06-23 22:27:00,74.8,53.3,29.03,NNW,332,8.7,8.7,47,0.00,,---,0.04,VWS V14.01,2013-06-24 02:27:00,
2013-06-23 22:28:00,74.7,53.1,29.03,North,351,6.3,11.0,47,0.00,,---,0.04,VWS V14.01,2013-06-24 02:28:00,
2013-06-23 22:29:00,74.7,53.1,29.03,NW,317,5.4,6.9,47,0.00,,---,0.04,VWS V14.01,2013-06-24 02:29:00,
2013-06-23 22:30:00,74.5,53.0,29.03,NNW,331,12.1,12.1,47,0.00,,---,0.04,VWS V14.01,2013-06-24 02:30:00,
2013-06-23 22:31:00,69.4,67.0,29.03,SE,132,0.0,0.0,92,0.00,,---,0.43,VWS V14.01,2013-06-24 02:31:00,
2013-06-23 22:32:00,74.5,53.0,29.03,NW,323,4.9,10.5,47,0.00,,---,0.04,VWS V14.01,2013-06-24 02:32:00,
2013-06-23 22:33:00,74.5,53.5,29.03,NW,323,3.1,6.7,48,0.00,,---,0.04,VWS V14.01,2013-06-24 02:33:00,
2013-06-23 22:34:00,74.5,53.0,29.03,NW,319,4.5,10.1,47,0.00,,---,0.04,VWS V14.01,2013-06-24 02:34:00,
2013-06-23 22:35:00,74.7,53.7,29.03,NNE,17,4.0,8.3,48,0.00,,---,0.04,VWS V14.01,2013-06-24 02:35:00,
2013-06-23 22:36:00,69.6,67.2,29.03,SE,133,0.0,0.0,92,0.00,,---,0.43,VWS V14.01,2013-06-24 02:36:00,
2013-06-23 22:37:00,74.5,56.8,29.03,NNW,342,4.5,8.7,54,0.00,,---,0.04,VWS V14.01,2013-06-24 02:37:00,
2013-06-23 22:38:00,73.9,58.2,29.03,WNW,301,4.0,4.5,58,0.00,,---,0.04,VWS V14.01,2013-06-24 02:38:00,
2013-06-23 22:39:00,73.2,59.0,29.03,NW,322,2.7,4.5,61,0.00,,---,0.04,VWS V14.01,2013-06-24 02:39:00,
2013-06-23 22:40:00,72.7,59.8,29.03,NW,305,3.6,6.9,64,0.00,,---,0.04,VWS V14.01,2013-06-24 02:40:00,
2013-06-23 22:41:00,69.6,67.2,29.03,SE,133,0.0,0.0,92,0.00,,---,0.43,VWS V14.01,2013-06-24 02:41:00,
2013-06-23 22:42:00,71.2,59.3,29.00,NW,305,0.0,0.0,66,0.00,,---,0.04,VWS V14.01,2013-06-24 02:42:00,
2013-06-23 22:43:00,70.9,59.4,29.00,NW,305,2.7,3.6,67,0.00,,---,0.04,VWS V14.01,2013-06-24 02:43:00,
2013-06-23 22:44:00,70.5,59.5,29.00,NW,305,0.0,2.7,68,0.00,,---,0.04,VWS V14.01,2013-06-24 02:44:00,
2013-06-23 22:45:00,70.0,59.3,29.00,NW,305,0.0,0.0,69,0.00,,---,0.04,VWS V14.01,2013-06-24 02:45:00,
2013-06-23 22:46:00,69.8,59.6,29.00,NW,305,0.0,0.0,70,0.00,,---,0.04,VWS V14.01,2013-06-24 02:46:00,
2013-06-23 22:47:00,69.4,67.0,29.03,SE,132,0.0,0.0,92,0.00,,---,0.43,VWS V14.01,2013-06-24 02:47:00,
2013-06-23 22:48:00,69.4,60.0,29.00,NNE,29,0.0,4.5,72,0.00,,---,0.04,VWS V14.01,2013-06-24 02:48:00,
2013-06-23 22:49:00,69.3,59.9,29.00,NNE,29,0.0,0.0,72,0.00,,---,0.04,VWS V14.01,2013-06-24 02:49:00,
2013-06-23 22:50:00,69.1,60.1,29.00,NNE,29,0.0,0.0,73,0.00,,---,0.04,VWS V14.01,2013-06-24 02:50:00,
2013-06-23 22:51:00,69.1,60.8,29.00,NNE,29,0.0,0.0,75,0.00,,---,0.04,VWS V14.01,2013-06-24 02:51:00,
2013-06-23 22:52:00,69.1,61.2,29.00,NNE,29,0.0,0.0,76,0.00,,---,0.04,VWS V14.01,2013-06-24 02:52:00,
2013-06-23 22:53:00,68.9,61.4,29.00,NNE,29,0.0,0.0,77,0.00,,---,0.04,VWS V14.01,2013-06-24 02:53:00,
2013-06-23 22:54:00,68.7,61.6,29.00,NNE,29,0.0,0.0,78,0.00,,---,0.04,VWS V14.01,2013-06-24 02:54:00,
2013-06-23 22:55:00,68.7,62.0,29.00,NNE,29,0.0,0.0,79,0.00,,---,0.04,VWS V14.01,2013-06-24 02:55:00,
2013-06-23 22:56:00,69.4,67.0,29.03,SE,133,0.0,0.0,92,0.00,,---,0.43,VWS V14.01,2013-06-24 02:56:00,
2013-06-23 22:57:00,68.7,62.0,28.97,NNE,29,0.0,0.0,79,0.00,,---,0.04,VWS V14.01,2013-06-24 02:57:00,
2013-06-23 22:58:00,68.7,62.3,28.97,NNE,29,0.0,0.0,80,0.00,,---,0.04,VWS V14.01,2013-06-24 02:58:00,
2013-06-23 22:59:00,68.5,62.1,28.97,NNE,29,0.0,0.0,80,0.00,,---,0.04,VWS V14.01,2013-06-24 02:59:00,
2013-06-23 23:00:00,68.5,62.1,28.97,NNE,29,0.0,0.0,80,0.00,,---,0.04,VWS V14.01,2013-06-24 03:00:00,
2013-06-23 23:01:00,69.1,66.7,29.03,SE,133,0.0,0.0,92,0.00,,---,0.43,VWS V14.01,2013-06-24 03:01:00,
2013-06-23 23:02:00,68.4,62.3,28.97,NNE,29,0.0,0.0,81,0.00,,---,0.04,VWS V14.01,2013-06-24 03:02:00,
2013-06-23 23:03:00,68.4,62.3,28.97,NNE,29,0.0,0.0,81,0.00,,---,0.04,VWS V14.01,2013-06-24 03:03:00,
2013-06-23 23:04:00,68.4,62.7,28.97,NNE,29,0.0,0.0,82,0.00,,---,0.04,VWS V14.01,2013-06-24 03:04:00,
2013-06-23 23:05:00,68.4,62.7,28.97,NNE,29,0.0,0.0,82,0.00,,---,0.04,VWS V14.01,2013-06-24 03:05:00,
2013-06-23 23:06:00,68.4,62.7,28.97,NNE,29,0.0,0.0,82,0.00,,---,0.04,VWS V14.01,2013-06-24 03:06:00,
2013-06-23 23:07:00,69.1,66.7,29.03,SE,133,0.0,0.0,92,0.00,,---,0.43,VWS V14.01,2013-06-24 03:07:00,
2013-06-23 23:08:00,68.4,63.0,28.97,NNE,29,0.0,0.0,83,0.00,,---,0.04,VWS V14.01,2013-06-24 03:08:00,
2013-06-23 23:09:00,68.2,62.8,28.97,NNE,29,0.0,0.0,83,0.00,,---,0.04,VWS V14.01,2013-06-24 03:09:00,
2013-06-23 23:10:00,68.2,62.8,28.97,NNE,29,0.0,0.0,83,0.00,,---,0.04,VWS V14.01,2013-06-24 03:10:00,
2013-06-23 23:11:00,68.2,62.8,28.97,NNE,29,0.0,0.0,83,0.00,,---,0.04,VWS V14.01,2013-06-24 03:11:00,
2013-06-23 23:12:00,68.9,66.5,29.03,SE,133,0.0,0.0,92,0.00,,---,0.43,VWS V14.01,2013-06-24 03:12:00,
2013-06-23 23:13:00,68.2,63.2,28.97,East,93,0.0,2.7,84,0.00,,---,0.04,VWS V14.01,2013-06-24 03:13:00,
2013-06-23 23:14:00,68.2,63.2,28.97,East,96,0.0,3.1,84,0.00,,---,0.04,VWS V14.01,2013-06-24 03:14:00,
2013-06-23 23:15:00,68.2,63.2,28.97,East,96,0.0,0.0,84,0.00,,---,0.04,VWS V14.01,2013-06-24 03:15:00,
2013-06-23 23:16:00,68.2,63.2,28.97,SE,144,2.7,3.6,84,0.00,,---,0.04,VWS V14.01,2013-06-24 03:16:00,
2013-06-23 23:17:00,68.2,63.5,28.97,SE,143,2.7,3.1,85,0.00,,---,0.04,VWS V14.01,2013-06-24 03:17:00,
2013-06-23 23:18:00,68.4,64.0,28.97,SE,143,0.0,4.0,86,0.00,,---,0.04,VWS V14.01,2013-06-24 03:18:00,
2013-06-23 23:19:00,68.4,64.0,28.97,SE,143,0.0,0.0,86,0.00,,---,0.04,VWS V14.01,2013-06-24 03:19:00,
2013-06-23 23:20:00,68.9,66.5,29.03,East,87,3.1,4.0,92,0.00,,---,0.43,VWS V14.01,2013-06-24 03:20:00,
2013-06-23 23:21:00,68.4,64.3,28.97,SE,143,0.0,0.0,87,0.00,,---,0.04,VWS V14.01,2013-06-24 03:21:00,
2013-06-23 23:22:00,68.5,64.5,28.97,SE,143,0.0,0.0,87,0.00,,---,0.04,VWS V14.01,2013-06-24 03:22:00,
2013-06-23 23:23:00,68.4,64.7,28.97,SE,143,0.0,0.0,88,0.00,,---,0.04,VWS V14.01,2013-06-24 03:23:00,
2013-06-23 23:24:00,68.4,64.7,28.97,SE,143,0.0,0.0,88,0.00,,---,0.04,VWS V14.01,2013-06-24 03:24:00,
2013-06-23 23:25:00,68.4,64.7,28.97,SE,143,0.0,0.0,88,0.00,,---,0.04,VWS V14.01,2013-06-24 03:25:00,
2013-06-23 23:26:00,69.3,66.8,29.03,ESE,122,4.0,5.4,92,0.00,,---,0.43,VWS V14.01,2013-06-24 03:26:00,
2013-06-23 23:27:00,68.4,64.7,28.94,SE,143,0.0,0.0,88,0.00,,---,0.04,VWS V14.01,2013-06-24 03:27:00,
2013-06-23 23:28:00,68.4,64.7,28.94,SE,143,0.0,0.0,88,0.00,,---,0.04,VWS V14.01,2013-06-24 03:28:00,
2013-06-23 23:29:00,68.5,64.8,28.94,SE,143,0.0,0.0,88,0.00,,---,0.04,VWS V14.01,2013-06-24 03:29:00,
2013-06-23 23:30:00,68.5,64.8,28.94,SE,143,0.0,0.0,88,0.00,,---,0.04,VWS V14.01,2013-06-24 03:30:00,
2013-06-23 23:31:00,68.5,65.2,28.94,SE,143,0.0,0.0,89,0.00,,---,0.04,VWS V14.01,2013-06-24 03:31:00,
2013-06-23 23:32:00,69.3,67.2,29.03,SE,131,3.6,4.5,93,0.00,,---,0.43,VWS V14.01,2013-06-24 03:32:00,
2013-06-23 23:33:00,68.7,65.3,28.94,SE,143,0.0,0.0,89,0.00,,---,0.04,VWS V14.01,2013-06-24 03:33:00,
2013-06-23 23:34:00,68.7,65.3,28.94,SE,143,0.0,0.0,89,0.00,,---,0.04,VWS V14.01,2013-06-24 03:34:00,
2013-06-23 23:35:00,68.5,65.2,28.94,SE,143,0.0,0.0,89,0.00,,---,0.04,VWS V14.01,2013-06-24 03:35:00,
2013-06-23 23:36:00,68.5,65.2,28.94,SE,143,0.0,0.0,89,0.00,,---,0.04,VWS V14.01,2013-06-24 03:36:00,
2013-06-23 23:37:00,69.3,67.2,29.03,SE,134,0.0,3.1,93,0.00,,---,0.43,VWS V14.01,2013-06-24 03:37:00,
2013-06-23 23:38:00,68.5,65.2,28.94,SE,143,0.0,0.0,89,0.00,,---,0.04,VWS V14.01,2013-06-24 03:38:00,
2013-06-23 23:39:00,68.5,65.2,28.94,SE,143,0.0,0.0,89,0.00,,---,0.04,VWS V14.01,2013-06-24 03:39:00,
2013-06-23 23:40:00,68.4,65.0,28.94,SE,143,0.0,0.0,89,0.00,,---,0.04,VWS V14.01,2013-06-24 03:40:00,
2013-06-23 23:41:00,68.4,65.0,28.94,SE,144,0.0,0.0,89,0.00,,---,0.04,VWS V14.01,2013-06-24 03:41:00,
2013-06-23 23:42:00,69.3,67.2,29.03,SE,134,0.0,0.0,93,0.00,,---,0.43,VWS V14.01,2013-06-24 03:42:00,
2013-06-23 23:43:00,68.2,64.8,28.94,SE,136,0.0,3.1,89,0.00,,---,0.04,VWS V14.01,2013-06-24 03:43:00,
2013-06-23 23:44:00,68.2,64.8,28.94,SE,136,0.0,2.7,89,0.00,,---,0.04,VWS V14.01,2013-06-24 03:44:00,
2013-06-23 23:45:00,68.2,64.8,28.94,SE,136,0.0,0.0,89,0.00,,---,0.04,VWS V14.01,2013-06-24 03:45:00,
2013-06-23 23:46:00,68.2,65.1,28.94,South,191,0.0,2.7,90,0.00,,---,0.04,VWS V14.01,2013-06-24 03:46:00,
2013-06-23 23:47:00,69.1,67.0,29.03,SE,134,0.0,0.0,93,0.00,,---,0.43,VWS V14.01,2013-06-24 03:47:00,
2013-06-23 23:48:00,68.4,65.3,28.94,West,264,0.0,0.0,90,0.00,,---,0.04,VWS V14.01,2013-06-24 03:48:00,
2013-06-23 23:49:00,68.4,65.3,28.94,West,280,0.0,3.1,90,0.00,,---,0.04,VWS V14.01,2013-06-24 03:49:00,
2013-06-23 23:50:00,68.4,65.3,28.94,SE,133,0.0,4.9,90,0.00,,---,0.04,VWS V14.01,2013-06-24 03:50:00,
2013-06-23 23:51:00,68.2,65.5,28.94,WSW,246,4.0,4.9,91,0.00,,---,0.04,VWS V14.01,2013-06-24 03:51:00,
2013-06-23 23:52:00,69.1,67.0,29.03,SE,133,3.1,4.0,93,0.00,,---,0.43,VWS V14.01,2013-06-24 03:52:00,
2013-06-23 23:53:00,68.2,65.5,28.94,West,268,0.0,4.0,91,0.00,,---,0.04,VWS V14.01,2013-06-24 03:53:00,
2013-06-23 23:54:00,68.0,65.3,28.94,WSW,238,0.0,4.9,91,0.00,,---,0.04,VWS V14.01,2013-06-24 03:54:00,
2013-06-23 23:55:00,68.0,65.3,28.94,West,280,0.0,3.6,91,0.00,,---,0.04,VWS V14.01,2013-06-24 03:55:00,
2013-06-23 23:56:00,68.0,65.3,28.94,West,278,0.0,0.0,91,0.00,,---,0.04,VWS V14.01,2013-06-24 03:56:00,
2013-06-23 23:57:00,69.3,67.2,29.03,SE,135,0.0,4.5,93,0.00,,---,0.43,VWS V14.01,2013-06-24 03:57:00,
2013-06-23 23:58:00,68.0,65.3,28.94,West,278,0.0,0.0,91,0.00,,---,0.04,VWS V14.01,2013-06-24 03:58:00,
2013-06-23 23:59:00,68.2,65.5,28.94,West,278,0.0,0.0,91,0.00,,---,0.04,VWS V14.01,2013-06-24 03:59:00,